[[{"header":{"parameterUnit":"m.s-1","parameterCategory":1,"la1":30.6,"la2":29.2853,"lo1":-89.7004,"lo2":-87.6739,"dy":0.0162,"dx":0.0183,"nx":112,"ny":82,"refTime":"2023-09-02T12:00:00:Z","depth":0,"parameterNumber":2,"parameterNumberName":"U-component_of_WINDS"},"data":[0.0,0.0,0.0,0.0,0.0,0.0,0.0,0.0,0.0,0.0,0.0,0.0,0.0,0.0,0.0,0.0,0.0,0.0,0.0,0.0,0.0,0.0,0.0,0.0,0.0,0.0,0.0,0.0,0.0,0.0,0.0,0.0,0.0,0.0,0.0,0.0,0.0,0.0,0.0,0.0,0.0,0.0,0.0,0.0,0.0,0.0,0.0,0.0,0.0,0.0,0.0,0.0,0.0,0.0,0.0,0.0,0.0,0.0,0.0,0.0,0.0,0.0,0.0,0.0,0.0,0.0,0.0,0.0,0.0,0.0,0.0,0.0,0.0,0.0,0.0,0.0,0.0,0.0,0.0,0.0,0.0,0.0,0.0,0.0,0.0,0.0,0.0,0.0,0.0,0.0,-2.3697,-2.5264,-2.7496,-2.8023,-2.5912,-2.4933,-2.2407,-1.7634,0.0,0.0,0.0,0.0,0.0,0.0,0.0,0.0,0.0,0.0,0.0,0.0,0.0,0.0,0.0,0.0,0.0,0.0,0.0,0.0,0.0,0.0,0.0,0.0,0.0,0.0,0.0,0.0,0.0,0.0,0.0,0.0,0.0,0.0,0.0,0.0,0.0,0.0,0.0,0.0,0.0,0.0,0.0,0.0,0.0,0.0,0.0,0.0,0.0,0.0,0.0,0.0,0.0,0.0,0.0,0.0,0.0,0.0,0.0,0.0,0.0,0.0,0.0,0.0,0.0,0.0,0.0,0.0,0.0,0.0,0.0,0.0,0.0,0.0,0.0,0.0,0.0,0.0,0.0,0.0,0.0,0.0,0.0,0.0,0.0,0.0,0.0,0.0,0.0,0.0,0.0,0.0,0.0,0.0,0.0,0.0,0.0,0.0,0.0,0.0,0.0,0.0,0.0,0.0,-2.4424,-2.7897,-2.8637,-2.8222,-2.6512,-2.4092,-2.1321,-1.8085,0.0,0.0,0.0,0.0,0.0,0.0,0.0,0.0,0.0,0.0,0.0,0.0,0.0,0.0,0.0,0.0,0.0,0.0,0.0,0.0,0.0,0.0,0.0,0.0,0.0,0.0,0.0,0.0,0.0,0.0,0.0,0.0,0.0,0.0,0.0,0.0,0.0,0.0,0.0,0.0,0.0,0.0,0.0,0.0,0.0,0.0,0.0,0.0,0.0,0.0,0.0,0.0,0.0,0.0,0.0,0.0,0.0,0.0,0.0,0.0,0.0,0.0,0.0,0.0,0.0,0.0,0.0,0.0,0.0,0.0,0.0,0.0,0.0,0.0,0.0,0.0,0.0,0.0,0.0,0.0,0.0,0.0,0.0,0.0,0.0,0.0,0.0,0.0,0.0,0.0,0.0,0.0,0.0,0.0,0.0,0.0,0.0,0.0,0.0,0.0,0.0,0.0,0.0,-2.3954,-2.5264,-2.8537,-2.8888,-2.8134,-2.6197,-2.3728,-2.106,-1.8177,-1.6641,0.0,0.0,0.0,0.0,0.0,0.0,0.0,0.0,0.0,0.0,0.0,0.0,0.0,0.0,0.0,0.0,0.0,0.0,0.0,0.0,0.0,0.0,0.0,0.0,0.0,0.0,0.0,0.0,0.0,0.0,0.0,0.0,0.0,0.0,0.0,0.0,0.0,0.0,0.0,0.0,0.0,0.0,0.0,0.0,0.0,0.0,0.0,0.0,0.0,0.0,0.0,0.0,0.0,0.0,0.0,0.0,0.0,0.0,0.0,0.0,0.0,0.0,0.0,0.0,0.0,0.0,0.0,0.0,0.0,0.0,0.0,0.0,0.0,0.0,0.0,0.0,0.0,0.0,0.0,0.0,0.0,0.0,0.0,0.0,0.0,0.0,0.0,0.0,0.0,0.0,0.0,0.0,0.0,0.0,0.0,0.0,0.0,0.0,0.0,0.0,0.0,0.0,-2.5674,-2.628,-2.8637,-2.8662,-2.7745,-2.5762,-2.3339,-2.079,-1.8166,-1.5907,0.0,0.0,0.0,0.0,0.0,0.0,0.0,0.0,0.0,0.0,0.0,0.0,0.0,0.0,0.0,0.0,0.0,0.0,0.0,0.0,0.0,0.0,0.0,0.0,0.0,0.0,0.0,0.0,0.0,0.0,0.0,0.0,0.0,0.0,0.0,0.0,0.0,0.0,0.0,0.0,0.0,0.0,0.0,0.0,0.0,0.0,0.0,0.0,0.0,0.0,0.0,0.0,0.0,0.0,0.0,0.0,0.0,0.0,0.0,0.0,0.0,0.0,0.0,0.0,0.0,0.0,0.0,0.0,0.0,0.0,0.0,0.0,0.0,0.0,0.0,0.0,0.0,0.0,0.0,0.0,0.0,0.0,0.0,0.0,0.0,0.0,0.0,0.0,0.0,0.0,0.0,0.0,0.0,0.0,0.0,0.0,0.0,0.0,0.0,0.0,0.0,0.0,-2.6201,-2.757,-2.8762,-2.8009,-2.6904,-2.5699,-2.2665,-2.002,-1.812,-1.5907,0.0,0.0,0.0,0.0,0.0,0.0,0.0,0.0,0.0,0.0,0.0,0.0,0.0,0.0,0.0,0.0,0.0,0.0,0.0,0.0,0.0,0.0,0.0,0.0,0.0,0.0,0.0,0.0,0.0,0.0,0.0,0.0,0.0,0.0,0.0,0.0,0.0,0.0,0.0,0.0,0.0,0.0,0.0,0.0,0.0,0.0,0.0,0.0,0.0,0.0,0.0,0.0,0.0,0.0,0.0,0.0,0.0,0.0,0.0,0.0,0.0,0.0,0.0,0.0,0.0,0.0,0.0,0.0,0.0,0.0,0.0,0.0,0.0,0.0,0.0,0.0,0.0,0.0,0.0,0.0,0.0,0.0,0.0,0.0,0.0,0.0,0.0,0.0,0.0,0.0,0.0,0.0,0.0,0.0,0.0,0.0,0.0,0.0,0.0,0.0,0.0,0.0,-2.5963,-2.7228,-2.8298,-2.7733,-2.6691,-2.5234,-2.2414,-2.0015,-1.8473,0.0,0.0,0.0,0.0,0.0,0.0,0.0,0.0,0.0,0.0,0.0,0.0,0.0,0.0,0.0,0.0,0.0,0.0,0.0,0.0,0.0,0.0,0.0,0.0,0.0,0.0,0.0,0.0,0.0,0.0,0.0,0.0,0.0,0.0,0.0,0.0,0.0,0.0,0.0,0.0,0.0,0.0,0.0,0.0,0.0,0.0,0.0,0.0,0.0,0.0,0.0,0.0,0.0,0.0,0.0,0.0,0.0,0.0,0.0,0.0,0.0,0.0,0.0,0.0,0.0,0.0,0.0,0.0,0.0,0.0,0.0,0.0,0.0,0.0,0.0,0.0,0.0,0.0,0.0,0.0,0.0,0.0,0.0,0.0,0.0,0.0,0.0,0.0,0.0,0.0,0.0,0.0,0.0,0.0,0.0,0.0,0.0,0.0,0.0,0.0,0.0,0.0,-2.4499,-2.6088,-2.7344,-2.8273,-2.772,-2.6678,-2.5197,-2.2388,-2.0027,-1.8519,0.0,0.0,0.0,0.0,0.0,0.0,0.0,0.0,0.0,0.0,0.0,0.0,0.0,0.0,0.0,0.0,0.0,0.0,0.0,0.0,0.0,0.0,0.0,0.0,0.0,0.0,0.0,0.0,0.0,0.0,0.0,0.0,0.0,0.0,0.0,0.0,0.0,0.0,0.0,0.0,0.0,0.0,0.0,0.0,0.0,0.0,0.0,0.0,0.0,0.0,0.0,0.0,0.0,0.0,0.0,0.0,0.0,0.0,0.0,0.0,0.0,0.0,0.0,0.0,0.0,0.0,0.0,0.0,0.0,0.0,0.0,0.0,0.0,0.0,0.0,0.0,0.0,0.0,0.0,0.0,0.0,0.0,0.0,0.0,0.0,0.0,0.0,0.0,0.0,0.0,0.0,0.0,0.0,0.0,0.0,0.0,0.0,0.0,0.0,0.0,0.0,0.0,-2.465,-2.6741,-2.8323,-2.8838,-2.7946,-2.6829,-2.5686,-2.259,-1.9947,0.0,0.0,0.0,0.0,0.0,0.0,0.0,0.0,0.0,0.0,0.0,0.0,0.0,0.0,0.0,0.0,0.0,0.0,0.0,0.0,0.0,0.0,0.0,0.0,0.0,0.0,0.0,0.0,0.0,0.0,0.0,0.0,0.0,0.0,0.0,0.0,0.0,0.0,0.0,0.0,0.0,0.0,0.0,0.0,0.0,0.0,0.0,0.0,0.0,0.0,0.0,0.0,0.0,0.0,0.0,0.0,0.0,0.0,0.0,0.0,0.0,0.0,0.0,0.0,0.0,0.0,0.0,0.0,0.0,0.0,0.0,0.0,0.0,0.0,0.0,0.0,0.0,0.0,0.0,0.0,0.0,0.0,0.0,0.0,0.0,0.0,0.0,0.0,0.0,0.0,0.0,0.0,0.0,0.0,0.0,0.0,0.0,0.0,0.0,0.0,0.0,0.0,0.0,-2.465,-2.6741,-2.8323,-2.8838,-2.7946,-2.6829,-2.5686,-2.259,-2.0184,-1.8993,0.0,0.0,0.0,0.0,0.0,0.0,0.0,0.0,0.0,0.0,0.0,0.0,0.0,0.0,0.0,0.0,0.0,0.0,0.0,0.0,0.0,0.0,0.0,0.0,0.0,0.0,0.0,0.0,0.0,0.0,0.0,0.0,0.0,0.0,0.0,0.0,0.0,0.0,0.0,0.0,0.0,0.0,0.0,0.0,0.0,0.0,0.0,0.0,0.0,0.0,0.0,0.0,0.0,0.0,0.0,0.0,0.0,0.0,0.0,0.0,0.0,0.0,0.0,0.0,0.0,0.0,0.0,0.0,0.0,0.0,0.0,0.0,0.0,0.0,0.0,0.0,0.0,0.0,0.0,0.0,0.0,0.0,0.0,0.0,0.0,0.0,0.0,0.0,0.0,0.0,0.0,0.0,0.0,0.0,0.0,0.0,0.0,0.0,0.0,0.0,0.0,0.0,-2.4926,-2.6866,-2.8411,-2.9189,-2.8273,-2.7155,-2.6072,-2.2929,-2.049,-1.9227,0.0,0.0,0.0,0.0,0.0,0.0,0.0,0.0,0.0,0.0,0.0,0.0,0.0,0.0,0.0,0.0,0.0,0.0,0.0,0.0,0.0,0.0,0.0,0.0,0.0,0.0,0.0,0.0,0.0,0.0,0.0,0.0,0.0,0.0,0.0,0.0,0.0,0.0,0.0,0.0,0.0,0.0,0.0,0.0,0.0,0.0,0.0,0.0,0.0,0.0,0.0,0.0,0.0,0.0,0.0,0.0,0.0,0.0,0.0,0.0,0.0,0.0,0.0,0.0,0.0,0.0,0.0,0.0,0.0,0.0,0.0,0.0,0.0,0.0,0.0,0.0,0.0,0.0,0.0,0.0,0.0,0.0,0.0,0.0,0.0,0.0,0.0,0.0,0.0,0.0,0.0,0.0,0.0,0.0,0.0,0.0,0.0,0.0,0.0,0.0,0.0,0.0,-2.5385,-2.7067,-2.8536,-2.9679,-2.8775,-2.7657,-2.6587,-2.3482,-2.0831,-1.9068,0.0,0.0,0.0,0.0,0.0,0.0,0.0,0.0,0.0,0.0,0.0,0.0,0.0,0.0,0.0,0.0,0.0,0.0,0.0,0.0,0.0,0.0,0.0,0.0,0.0,0.0,0.0,0.0,0.0,0.0,0.0,0.0,0.0,0.0,0.0,0.0,0.0,0.0,0.0,0.0,0.0,0.0,0.0,0.0,0.0,0.0,0.0,0.0,0.0,0.0,0.0,0.0,0.0,0.0,0.0,0.0,0.0,0.0,0.0,0.0,-1.7774,-1.6544,0.0,0.0,0.0,0.0,0.0,0.0,0.0,0.0,0.0,0.0,0.0,0.0,0.0,0.0,0.0,0.0,0.0,0.0,0.0,0.0,0.0,0.0,0.0,0.0,0.0,0.0,0.0,0.0,0.0,0.0,0.0,0.0,0.0,0.0,0.0,0.0,0.0,0.0,0.0,0.0,-2.5448,-2.7067,-2.8536,-2.9679,-2.8775,-2.7657,-2.6587,-2.3803,-2.1361,-1.9566,-1.7528,0.0,0.0,0.0,0.0,0.0,0.0,0.0,0.0,0.0,0.0,0.0,0.0,0.0,0.0,0.0,0.0,0.0,0.0,0.0,0.0,0.0,0.0,0.0,0.0,0.0,0.0,0.0,0.0,0.0,0.0,0.0,0.0,0.0,0.0,0.0,0.0,0.0,0.0,0.0,0.0,0.0,0.0,0.0,0.0,0.0,0.0,0.0,0.0,0.0,0.0,0.0,0.0,0.0,0.0,0.0,0.0,0.0,0.0,0.0,-2.1935,-1.9926,0.0,0.0,0.0,0.0,0.0,0.0,0.0,0.0,0.0,0.0,0.0,0.0,0.0,0.0,0.0,0.0,0.0,0.0,0.0,0.0,0.0,0.0,0.0,0.0,0.0,0.0,0.0,0.0,0.0,0.0,0.0,0.0,0.0,0.0,0.0,0.0,0.0,0.0,0.0,0.0,-2.5871,-2.7243,-2.8536,-2.9679,-2.8775,-2.777,-2.6964,-2.4305,-2.206,-2.0606,-1.8717,0.0,0.0,0.0,0.0,0.0,0.0,0.0,0.0,0.0,0.0,0.0,0.0,0.0,0.0,0.0,0.0,0.0,0.0,0.0,0.0,0.0,0.0,0.0,0.0,0.0,0.0,0.0,0.0,0.0,0.0,0.0,0.0,0.0,0.0,0.0,0.0,0.0,0.0,0.0,0.0,0.0,0.0,0.0,0.0,0.0,0.0,0.0,0.0,0.0,0.0,0.0,0.0,0.0,-2.6328,-2.7809,-2.9307,-2.9744,-2.9735,-2.9347,-2.7264,-2.484,-2.2453,-2.3169,0.0,0.0,0.0,0.0,0.0,0.0,0.0,0.0,0.0,0.0,0.0,0.0,0.0,0.0,0.0,0.0,0.0,0.0,0.0,0.0,0.0,0.0,-2.7004,-2.7496,-2.9001,-2.8921,-2.3638,0.0,0.0,0.0,0.0,0.0,0.0,0.0,0.0,0.0,0.0,0.0,-2.6311,-2.7507,-2.8649,-2.9679,-2.8863,-2.7984,-2.7344,-2.4996,-2.2982,-2.1707,-2.0175,-1.9033,0.0,0.0,0.0,0.0,0.0,0.0,0.0,0.0,0.0,0.0,0.0,0.0,0.0,0.0,0.0,0.0,0.0,0.0,0.0,0.0,0.0,0.0,0.0,0.0,0.0,0.0,0.0,0.0,0.0,0.0,0.0,0.0,-1.189,-1.2837,0.0,0.0,0.0,0.0,0.0,0.0,0.0,0.0,0.0,0.0,0.0,0.0,0.0,-2.2588,-2.3809,-2.5498,-2.6084,-2.5609,-2.929,-3.1152,-3.1397,-3.3436,-3.441,-3.4423,-3.4475,0.0,-2.7077,-2.6635,0.0,0.0,0.0,0.0,0.0,0.0,0.0,0.0,0.0,0.0,0.0,0.0,0.0,0.0,0.0,0.0,0.0,0.0,0.0,0.0,0.0,0.0,-3.0553,-3.0741,-3.173,-3.2047,-2.9781,-2.7903,-2.6126,-2.4318,-2.2431,-2.135,0.0,0.0,0.0,0.0,0.0,0.0,-2.6399,-2.7846,-2.9026,-2.9729,-2.9214,-2.8398,-2.7369,-2.605,-2.4393,-2.2334,-2.1104,-2.0214,-1.961,-1.8442,0.0,0.0,0.0,0.0,0.0,0.0,0.0,0.0,0.0,0.0,0.0,0.0,0.0,0.0,0.0,0.0,0.0,0.0,0.0,0.0,0.0,0.0,0.0,0.0,0.0,0.0,0.0,0.0,0.0,-1.2703,-1.4008,-1.3745,-1.4395,-1.4616,0.0,0.0,0.0,0.0,0.0,0.0,0.0,0.0,0.0,-2.518,-2.4904,-2.5593,-2.7485,-2.7855,-2.882,-3.0397,-3.2423,-3.4351,-3.623,-3.7565,-3.8189,-3.8302,-3.9127,-3.7952,-3.526,-3.2355,-3.0519,-2.9499,0.0,0.0,0.0,0.0,-3.0136,-3.1513,-3.1795,-3.209,-3.2096,-3.0673,0.0,0.0,0.0,0.0,0.0,0.0,0.0,-2.8246,-2.9429,-3.1466,-3.3318,-3.4027,-3.4813,-3.5102,-3.4073,-3.2102,-2.9679,-2.6766,-2.5828,-2.5243,-2.4305,-2.3691,0.0,0.0,0.0,-2.6436,-2.7268,-2.8285,-2.9113,-2.9729,-2.9277,-2.87,-2.8247,-2.6904,-2.5569,-2.4243,-2.2548,-2.1343,-2.0778,-1.96,-1.8989,0.0,0.0,0.0,0.0,0.0,0.0,0.0,0.0,0.0,0.0,0.0,0.0,0.0,0.0,0.0,0.0,0.0,0.0,0.0,0.0,0.0,0.0,0.0,0.0,0.0,0.0,0.0,0.0,-1.4934,-1.6053,-1.5006,-1.6632,-1.7254,0.0,0.0,0.0,0.0,0.0,0.0,-2.3447,-2.452,-2.6247,-2.8799,-2.8526,-2.9289,-3.1264,-3.0404,-3.1431,-3.4339,-3.4791,-3.654,-3.9365,-4.0305,-4.0877,-4.1191,-4.2062,-4.2221,-4.161,-3.7482,-3.5017,-3.3825,-3.2841,-3.2704,-3.3086,-3.3263,-3.4007,-3.5082,-3.5973,-3.6095,-3.5654,-3.4395,-3.2625,-3.0809,-3.0008,0.0,0.0,0.0,0.0,-3.1169,-3.2512,-3.3997,-3.5391,-3.637,-3.701,-3.7211,-3.6556,-3.4896,-3.2478,-2.9013,-2.8549,-2.8147,-2.6339,-2.5912,0.0,-2.5824,-2.6461,-2.7216,-2.7996,-2.8712,-2.9315,-2.9741,-2.9402,-2.9051,-2.89,-2.767,-2.6612,-2.5862,-2.3879,-2.2498,-2.1933,-2.0828,-2.0162,-2.0024,0.0,0.0,0.0,0.0,0.0,0.0,0.0,0.0,0.0,0.0,0.0,0.0,0.0,0.0,0.0,0.0,0.0,0.0,0.0,0.0,0.0,0.0,0.0,0.0,0.0,0.0,0.0,0.0,0.0,-1.7852,-2.0454,0.0,0.0,0.0,0.0,-2.2217,-2.4658,-2.6123,-2.6191,-2.8696,-3.06,-3.1569,-3.2913,-3.409,-3.5043,-3.3615,-3.3703,-3.5221,-3.577,-3.6851,-3.8443,-4.036,-4.1869,-4.2861,-4.2911,-4.3212,-4.3463,-4.0623,-3.9119,-3.8341,-3.6147,-3.5307,-3.5395,-3.6123,-3.6734,-3.735,-3.8088,-3.8283,-3.8297,-3.8713,-3.7551,-3.5827,-3.4723,-3.4006,0.0,0.0,-3.2881,-3.392,-3.4458,-3.5429,-3.6468,-3.701,-3.7563,-3.7663,-3.6644,-3.5454,-3.396,-3.1637,-2.9541,-2.7946,-2.7306,0.0,-2.6449,-2.6449,-2.7331,-2.8047,-2.8097,-2.9063,-2.9767,-2.9792,-2.9767,-2.9528,-2.8938,-2.8373,-2.7557,-2.6512,-2.4877,-2.3653,-2.3045,-2.1995,-2.1182,-2.0654,-2.0641,0.0,0.0,0.0,0.0,0.0,0.0,0.0,0.0,0.0,0.0,0.0,0.0,0.0,0.0,0.0,0.0,0.0,0.0,0.0,0.0,0.0,0.0,0.0,0.0,0.0,0.0,0.0,0.0,-2.2107,-2.4106,0.0,-2.3564,-2.4763,-2.5797,-2.6221,-2.8135,-2.9883,-3.1162,-3.2385,-3.3971,-3.5931,-3.555,-3.595,-3.7193,-3.5759,-3.5916,-3.7749,-3.7924,-3.8804,-4.0264,-4.1738,-4.261,-4.3037,-4.4129,-4.4493,-4.4254,-4.3275,-4.212,-4.0893,-3.9333,-3.8693,-3.873,-3.8632,-3.9733,-4.1262,-4.0674,-4.1353,-4.2038,-3.9914,-3.7977,-3.6445,-3.6039,-3.5784,-3.5471,-3.462,-3.5222,-3.6087,-3.5826,-3.6596,-3.7475,-3.7663,-3.76,-3.7374,-3.6973,-3.6031,-3.4868,-3.3759,-3.2026,-3.047,-2.9578,-2.8976,-2.8636,-2.8636,-2.8624,-2.8775,-2.9139,-2.9541,-2.9792,-2.9792,-2.9792,-2.9704,-2.9503,-2.8637,-2.7783,-2.7065,-2.5109,-2.374,-2.3133,-2.1732,-2.0893,-2.0691,-2.0327,-2.0214,0.0,0.0,0.0,0.0,0.0,0.0,0.0,0.0,0.0,0.0,0.0,0.0,0.0,0.0,0.0,0.0,0.0,0.0,0.0,0.0,0.0,0.0,0.0,0.0,0.0,-2.3026,-2.5368,-2.491,-2.7168,-2.8184,-2.6709,-2.8281,-2.9453,-2.959,-3.1064,-3.2705,-3.4442,-3.5258,-3.6656,-3.873,-3.8166,-3.8304,-3.931,-3.7839,-3.8015,-3.9831,-3.9558,-4.0262,-4.1932,-4.2836,-4.3463,-4.389,-4.5008,-4.5384,-4.5158,-4.4782,-4.3978,-4.2861,-4.1568,-4.1065,-4.1031,-4.0732,-4.1944,-4.3691,-4.3338,-4.4061,-4.4705,-4.185,-4.0008,-3.8871,-3.8617,-3.8546,-3.8303,-3.7069,-3.744,-3.794,-3.6943,-3.7186,-3.7726,-3.7726,-3.745,-3.7136,-3.6996,-3.6194,-3.5332,-3.4781,-3.3671,-3.2441,-3.1336,-3.0696,-3.0331,-3.0331,-2.9704,-2.9428,-2.9993,-2.9905,-2.9792,-2.9792,-2.9792,-2.9792,-2.9792,-2.8925,-2.8059,-2.7331,-2.5385,-2.391,-2.3133,-2.1895,-2.1157,-2.0968,-2.0564,-2.049,-2.0691,0.0,0.0,0.0,0.0,0.0,0.0,0.0,0.0,0.0,0.0,0.0,0.0,0.0,0.0,0.0,0.0,0.0,0.0,0.0,0.0,0.0,0.0,0.0,-2.3258,-2.6449,-2.8309,-2.6212,-2.9695,-3.1211,-2.8711,-3.1143,-3.2705,-3.2305,-3.3437,-3.4682,-3.5777,-3.7177,-3.8564,-3.9822,-4.0734,-4.1313,-4.1338,-3.9946,-3.9946,-4.1363,-4.0529,-4.1164,-4.3049,-4.3601,-4.4455,-4.5485,-4.5485,-4.5786,-4.6175,-4.5058,-4.4593,-4.4418,-4.2798,-4.2238,-4.2263,-4.2333,-4.3151,-4.44,-4.5801,-4.6237,-4.5983,-4.4725,-4.3913,-4.3269,-4.2635,-4.2425,-4.1927,-3.9578,-3.9386,-3.9479,-3.7654,-3.7174,-3.7174,-3.7161,-3.7161,-3.701,-3.6518,-3.5943,-3.5357,-3.4806,-3.4324,-3.3583,-3.2441,-3.1788,-3.1411,-3.1411,-3.0507,0.0,-3.0545,-3.0131,-2.9804,-2.9817,-2.9817,-2.9817,-2.9817,-2.9277,-2.8448,-2.7318,-2.5711,-2.4261,-2.312,-2.2543,-2.2033,-2.1493,-2.1506,-2.1282,-2.0742,0.0,0.0,0.0,0.0,0.0,0.0,0.0,0.0,0.0,0.0,0.0,0.0,0.0,0.0,0.0,0.0,0.0,0.0,0.0,0.0,0.0,-2.8357,-3.0876,-2.9314,-3.0575,-3.1713,-3.2023,-3.2385,-3.2588,-3.249,-3.3818,-3.4629,-3.4521,-3.541,-3.6333,-3.7188,-3.7329,-3.838,-4.0762,-4.0422,-4.0954,-4.2522,-4.2109,-4.2308,-4.3124,-4.3253,-4.3602,-4.4192,-4.4756,-4.5196,-4.5485,-4.5485,-4.5334,-4.5033,-4.4317,-4.379,-4.3388,-4.2924,-4.2748,-4.2665,-4.1922,-4.193,-4.2649,-4.4881,-4.4996,-4.4282,-4.4819,-4.4272,-4.3275,-4.312,-4.306,-4.2594,-4.028,-4.0021,-3.9874,-3.7271,-3.6885,-3.7086,-3.6732,-3.6631,-3.6593,-3.6443,-3.6292,-3.5981,-3.5382,-3.5157,-3.4568,-3.3106,-3.2365,-3.1989,-3.1989,-3.1072,-3.0444,-3.0595,-3.0131,-2.9942,-3.0344,-3.0394,-3.0394,-3.0394,-2.9452,-2.8285,-2.6813,-2.5134,-2.3715,-2.2556,-2.2008,-2.1644,-2.1493,-2.1882,-2.2008,0.0,0.0,0.0,0.0,0.0,0.0,0.0,0.0,0.0,0.0,0.0,0.0,0.0,0.0,0.0,0.0,0.0,0.0,0.0,0.0,0.0,0.0,-3.2867,-3.577,-3.6026,-3.5554,-3.5478,-3.6084,-3.5084,-3.4637,-3.5268,-3.5524,-3.5732,-3.5918,-3.6553,-3.728,-3.7989,-3.7806,-3.8451,-4.019,-3.9857,-4.0539,-4.2299,-4.2532,-4.3103,-4.4154,-4.4229,-4.4531,-4.4982,-4.4844,-4.5045,-4.5472,-4.5234,-4.4932,-4.4581,-4.4028,-4.3614,-4.3275,0.0,0.0,0.0,0.0,-4.171,-4.1985,-4.4503,-4.4913,-4.437,-4.5062,-4.4781,-4.4007,-4.3469,-4.329,-4.282,-4.0546,-4.0134,-3.9792,-3.736,-3.682,-3.6857,-3.6769,-3.6568,-3.6405,-3.6405,-3.6405,-3.6194,-3.5608,-3.5495,0.0,-3.3671,-3.2955,-3.2579,-3.2579,-3.1637,-3.0947,-3.0947,-3.047,-3.0168,-3.0269,-3.0269,-3.0269,-3.0269,-2.9666,0.0,0.0,0.0,-2.4318,-2.2694,-2.2347,0.0,0.0,0.0,-2.3025,-2.3025,-2.3547,0.0,0.0,-2.3271,-2.3421,0.0,0.0,0.0,0.0,0.0,0.0,0.0,0.0,0.0,0.0,0.0,0.0,0.0,0.0,0.0,0.0,-3.7592,-4.0551,-4.225,-4.0715,-3.9243,-3.8691,-3.7464,-3.6792,-3.7043,-3.6551,-3.6347,-3.67,-3.7021,-3.749,-3.8191,-3.8123,0.0,0.0,0.0,-3.9869,-4.1247,-4.1887,-4.2938,-4.4403,-4.4164,-4.4606,-4.5547,-4.448,-4.4531,-4.5447,-4.4807,-4.4531,-4.4493,-4.3928,-4.3627,-4.3426,-4.2577,-4.2175,-4.2095,-4.2177,-4.1854,-4.1739,-4.4093,0.0,0.0,-4.4997,-4.5042,-4.4855,-4.3648,-4.329,-4.282,-4.0546,-3.9899,-3.9465,-3.7667,-3.682,-3.6556,-3.7048,-3.6807,-3.6405,-3.6405,-3.6405,-3.6267,-3.5683,-3.5596,-3.5257,-3.4261,-3.3583,-3.3156,-3.3124,-3.2164,-3.1486,-3.1486,-3.1022,-3.0532,-3.0118,-3.0018,0.0,-2.9967,-2.9867,-2.9101,-2.7482,-2.6776,-2.5473,-2.3459,-2.3321,-2.3321,-2.3384,-2.3916,-2.4205,-2.428,-2.4707,-2.4938,-2.5084,-2.4406,-2.4393,0.0,0.0,0.0,0.0,0.0,0.0,0.0,0.0,0.0,0.0,0.0,0.0,0.0,0.0,0.0,-3.4549,-3.8822,-4.2258,-4.3915,-4.3367,-4.2213,-4.0373,-3.8778,-3.7695,-3.7139,-3.7283,-3.7248,-3.6749,-3.6748,-3.6848,-3.7015,-3.6342,-3.6831,-3.858,-3.7933,-3.8523,-4.0502,-4.1988,-4.2925,-4.324,-4.4967,0.0,-4.6125,-4.546,-4.5284,-4.5434,-4.4405,-4.3953,-4.3915,-4.3363,-4.261,-4.1831,-4.207,-4.1882,-4.1417,-4.1003,-4.0501,-4.0198,-4.1294,-4.1928,-4.2342,-4.2912,-4.3384,-4.3618,-4.3364,-4.329,0.0,-4.0546,-3.9899,-3.9465,-3.7667,-3.682,-3.6556,-3.7048,-3.6807,-3.6405,-3.6405,-3.6405,-3.638,-3.6267,-3.6207,-3.5994,-3.5295,-3.4399,-3.3583,-3.3187,-3.2491,-3.2051,-3.2051,-3.1574,-3.1373,-3.1712,-3.1348,-3.1085,-3.1085,-3.0294,-2.9264,-2.8021,-2.6578,-2.5573,-2.5134,-2.4687,-2.4662,-2.5109,-2.5234,-2.5523,-2.6021,-2.5624,-2.5912,-2.6779,-2.5335,-2.4946,0.0,0.0,0.0,0.0,0.0,0.0,0.0,0.0,0.0,0.0,0.0,-2.5398,-2.8486,0.0,-3.5407,-3.8921,-4.1725,-4.3589,-4.4129,-4.3978,-4.3392,-4.234,-4.0514,-3.9442,-3.959,-3.9259,-3.874,-3.8041,-3.8189,-3.7816,-3.6749,-3.6269,-3.6324,-3.6993,-3.6704,-3.7945,-4.0766,-4.1925,-4.3475,-4.5392,-4.6251,-4.6728,-4.669,-4.5861,-4.5334,-4.5008,-4.4166,-4.3639,-4.3363,-4.3087,-4.2497,-4.1743,-4.1743,-4.1241,-4.0488,-4.0212,-3.9936,-3.984,-4.0843,-4.1208,-4.1434,-4.3004,-4.3252,-4.3075,-4.3647,-4.3559,-4.282,-4.0546,-3.9899,-3.9465,-3.7667,-3.682,-3.6556,-3.7048,-3.6807,-3.6405,-3.6405,-3.6405,-3.6405,-3.6405,-3.6405,-3.6194,-3.5596,-3.4818,-3.4123,-3.3571,-3.3006,-3.2541,-3.2252,-3.1976,-3.18,-3.18,-3.1549,-3.1286,-3.1022,-2.9993,-2.9114,-2.8549,-2.7469,-2.6728,-2.6452,-2.6189,-2.6176,-2.644,-2.644,-2.6716,-2.7281,-2.6992,-2.7143,-2.767,-2.6841,-2.6603,0.0,0.0,0.0,0.0,0.0,0.0,0.0,-2.1677,-2.3066,-2.5117,-2.6764,-2.9238,-3.384,-3.6419,-3.8986,-4.2638,-4.4006,-4.443,-4.3878,-4.3802,-4.3714,-4.3501,-4.205,-4.1369,-4.2006,-4.1226,-4.0404,-3.972,-4.0004,-3.9459,-3.7801,-3.7642,-3.727,-3.6556,-3.681,-3.8441,-4.1399,-4.215,-4.4226,-4.7595,-4.7345,-4.728,-4.7242,-4.615,-4.5334,-4.4756,-4.4091,-4.3539,-4.3124,-4.3024,-4.2703,-4.215,-4.1555,-4.0727,-3.9835,-3.9735,-3.9697,-3.9814,-4.0765,-4.0946,-4.1045,-4.2928,-4.2934,-4.2438,-4.3602,-4.3412,-4.245,-4.0703,-3.9968,-3.9379,-3.7929,-3.695,-3.6556,-3.7048,-3.6807,-3.6405,-3.6405,-3.6405,-3.6405,-3.6405,-3.6405,-3.6194,-3.5596,-3.5044,-3.4537,-3.3985,-3.3432,-3.2905,-3.2441,-3.2378,-3.2215,-3.1763,-3.1612,-3.1298,-3.067,-2.974,-2.9176,-2.9063,-2.8574,-2.8059,-2.762,-2.7494,-2.7494,-2.7607,-2.7607,-2.7871,-2.8436,-2.8323,-2.8323,-2.8436,-2.831,-2.826,-1.5618,-1.6589,-1.8326,-2.0246,-2.1178,-2.279,0.0,-2.7633,-2.7441,-2.9189,-3.1426,-3.3176,-3.3409,-3.7292,-4.0554,-4.1021,-4.3099,-4.443,-4.3878,-4.3802,-4.3438,-4.2514,-4.2599,-4.2569,-4.2126,-4.1969,-4.1808,-4.1525,-4.1226,-4.1117,-4.1221,-4.0911,-4.0635,-4.0524,-4.0568,-4.106,-4.1885,-4.3526,-4.5015,-4.6422,-4.7355,-4.782,-4.7782,-4.6702,-4.5912,-4.5334,-4.4267,-4.3765,-4.3664,-4.3187,-4.2703,-4.215,-4.1555,-4.0965,-4.0362,-3.9873,-3.9697,-3.9673,-3.9323,-3.982,-4.0606,-4.0378,-4.0608,-4.1153,-4.2267,-4.1852,-4.1075,-4.1311,-4.0244,-3.8978,-3.8779,-3.7574,-3.6556,-3.7048,-3.6807,-3.6405,-3.6405,-3.6405,-3.6405,-3.6405,-3.6405,-3.6194,-3.5596,-3.5044,-3.4537,-3.3985,-3.3432,-3.3099,-3.2993,-3.298,-3.2998,-3.2935,-3.2428,-3.1712,-3.0708,-3.0495,-3.0218,-2.9729,-2.9151,-2.8762,-2.8712,-2.8273,-2.8247,-2.87,-2.8712,-2.9026,-2.9603,-2.9089,-2.9101,-2.9591,-2.9076,-2.88,-1.9564,-2.0285,-2.1349,-2.2767,-2.4386,-2.6182,-2.834,-2.8984,-2.9751,-3.1805,-3.3461,-3.5035,-3.677,-3.9232,-4.1347,-4.2377,-4.3689,-4.4317,-4.3438,-4.3325,-4.2798,-4.1367,-4.1693,-4.2157,-4.259,-4.2643,-4.2443,-4.2032,-4.2082,-4.1845,-4.096,-4.1125,-4.1181,-4.1181,-4.1181,-4.2067,-4.3956,-4.4699,-4.6239,-4.8678,-4.8818,-4.8724,-4.8385,-4.7606,-4.6414,-4.4945,-4.4141,-4.3614,-4.3313,-4.3074,-4.2472,-4.1656,-4.1376,-4.0802,-4.0011,-3.9772,-3.9697,-3.9659,-3.9433,-3.9462,-3.9732,-4.0572,-4.1039,-4.1557,-4.3093,-4.2723,-4.1937,-4.2582,-4.1413,-3.9937,-3.9561,-3.8731,-3.783,-3.7303,-3.6807,-3.6405,-3.6405,-3.6405,-3.6405,-3.6405,-3.6405,-3.6329,-3.6056,-3.5567,-3.4969,-3.4462,-3.3633,-3.3124,-3.3124,-3.3124,-3.3124,-3.3124,-3.2554,-3.2026,-3.1587,-3.0972,-3.052,-3.0281,-2.9741,-2.9428,-2.9428,-2.9214,-2.9202,-2.9428,-2.9428,-2.9553,-2.9792,-2.9553,-2.9553,-2.9779,-2.9541,-2.9428,-2.1992,-2.29,-2.3935,-2.5039,-2.6992,-2.8769,-2.9258,-3.0389,-3.1885,-3.3678,-3.5253,-3.6982,-3.9153,-4.0616,-4.1898,-4.3156,-4.3815,-4.384,-4.2886,-4.2622,-4.1969,-4.0475,-4.0513,-4.1028,-4.1982,-4.2484,-4.2724,-4.2599,-4.2915,-4.2758,-4.1793,-4.2175,-4.2441,-4.258,-4.2592,-4.3714,-4.6045,-4.6278,-4.777,-5.0645,-5.0092,-4.9527,-4.9026,-4.8342,-4.7291,-4.5954,-4.5073,-4.4311,-4.3776,-4.3192,-4.2421,-4.1543,-4.1338,-4.0752,-3.9898,-3.9747,-3.9697,-3.9697,-3.9697,-3.9433,-3.936,-4.0665,-4.1015,-4.1253,-4.2837,-4.2516,-4.177,-4.2745,-4.1713,-4.0285,-4.0368,-3.9507,-3.8431,-3.7855,-3.7033,-3.6405,-3.6405,-3.6108,-3.5966,-3.631,-3.6108,-3.5916,-3.611,-3.5805,-3.5307,-3.4756,-3.3909,-3.3257,-3.3136,-3.3124,-3.3124,-3.3124,-3.2842,-3.2554,-3.224,-3.165,-3.1097,-3.0645,-3.0244,-2.9942,-2.9804,-2.9792,-2.9792,-2.9792,-2.9792,-2.9792,-2.9792,-2.9792,-2.9792,-2.9792,-2.9792,-2.9792,-2.122,-2.3105,-2.5468,-2.719,-2.8618,-2.9971,-3.173,-3.3273,-3.4456,-3.4899,-3.7462,-3.954,-3.9006,-4.0691,-4.2195,-4.2263,-4.2728,-4.2891,-4.2313,-4.1731,-4.0978,-3.9848,-3.9258,-3.917,-3.9735,-4.1295,-4.2635,-4.3683,-4.377,-4.4202,-4.5304,-4.5379,-4.5629,-4.6107,-4.612,-4.6694,-4.7833,-4.8397,-4.959,-5.1247,-5.067,-5.0105,-4.9554,-4.882,-4.8886,-4.9419,-4.7613,-4.6405,-4.5674,-4.3789,-4.269,-4.2125,-4.1543,-4.0937,-4.0425,-3.9885,-3.9697,-3.9697,-3.9697,-3.9685,-3.9672,-3.9736,-3.941,-3.917,-4.0357,-3.9928,-3.9354,-4.1096,-4.0293,-3.9354,-4.1156,-3.9474,-3.7546,-3.8746,-3.7689,-3.6405,-3.6405,-3.5379,-3.4836,-3.6156,-3.5367,-3.4667,-3.5422,-3.5508,-3.5307,-3.4756,-3.4236,-3.3684,-3.3187,-3.3124,-3.3124,-3.3124,-3.3533,-3.3407,-3.2303,-3.2704,-3.2315,-3.0721,-3.0595,-3.0357,-2.9817,-2.9792,-2.9792,-2.9792,-2.9792,-2.9792,-2.9792,-2.9792,-2.9792,-2.9792,-2.9792,-2.9792,-2.3389,-2.5459,-2.748,-2.8697,-3.0916,-3.3084,-3.4009,-3.538,-3.657,-3.6997,-3.7049,-3.7059,-3.7228,-3.8153,-3.8981,-3.9346,-4.0802,-4.1693,-4.1141,-4.1543,-4.1053,-3.8843,-3.9069,-3.9044,-3.8115,-3.9258,-4.0792,-4.2627,-4.2766,-4.335,-4.4832,-4.5284,-4.5748,-4.6288,-4.6313,-4.6253,-4.6133,-4.6327,-4.6622,-4.706,-4.7681,-4.8191,-4.8485,-4.8444,-4.8162,-4.7697,-4.7176,-4.633,-4.5191,-4.4155,-4.2872,-4.1593,-4.1363,-4.0724,-3.9948,-3.976,-3.9459,-3.9195,-3.9572,-3.9459,-3.9207,-3.9572,-3.9892,-4.0301,-4.1048,-4.0769,-4.0543,-4.231,-4.1528,-4.0409,-4.1394,-4.0636,-3.9401,-3.8543,-3.7625,-3.6857,-3.6493,-3.5367,-3.4532,-3.4981,-3.4727,-3.4484,-3.4751,-3.5503,-3.5893,-3.5307,-3.4487,-3.3709,-3.3156,-3.3124,-3.3262,-3.3583,-3.3796,-3.3897,-3.3884,-3.3382,-3.2842,-3.229,-3.1549,-3.0896,-3.0357,-3.0331,-3.0168,-2.9804,-2.9792,-2.9792,-2.9792,-2.9792,-2.9792,-2.9792,-2.9792,-2.9792,-2.5635,-2.7568,-2.9258,-3.043,-3.2735,-3.4826,-3.5071,-3.6447,-3.7653,-3.7268,-3.6506,-3.5795,-3.5565,-3.5604,-3.6031,-3.6973,-3.8492,-3.9647,-3.9885,-4.0538,-4.0365,-3.853,-3.8781,-3.8743,-3.7877,-3.8266,-3.932,-4.1194,-4.1643,-4.2497,-4.3953,-4.4581,-4.5133,-4.5686,-4.5912,-4.5612,-4.4666,-4.5224,-4.5326,-4.4903,-4.5999,-4.6835,-4.7468,-4.7925,-4.7956,-4.7578,-4.7208,-4.6308,-4.5057,-4.4124,-4.2694,-4.0987,-4.0987,-4.0488,-3.9697,-3.9697,-3.9346,-3.8969,-3.927,-3.9032,-3.8655,-3.922,-3.9726,-4.0242,-4.0763,-4.0685,-4.0663,-4.183,-4.1291,-4.0575,-4.1163,-4.0572,-3.9573,-3.863,-3.766,-3.6832,-3.648,-3.5367,-3.4532,-3.5017,-3.4727,-3.4532,-3.503,-3.5823,-3.6182,-3.5583,-3.4893,-3.4286,-3.3734,-3.3495,-3.3508,-3.3859,-3.4248,-3.4474,-3.4437,-3.396,-3.3495,-3.3106,-3.2202,-3.1361,-3.0645,-3.062,-3.0357,-2.9804,-2.9792,-2.9792,-2.9792,-2.9792,-2.9792,-2.9792,-2.9792,-2.9792,-2.7812,-2.9355,-3.0752,-3.2412,-3.4116,-3.5265,-3.5103,-3.6735,-3.7774,-3.5884,-3.5844,-3.5613,-3.3909,-3.3269,-3.3564,-3.5198,-3.6112,-3.7192,-3.8956,-3.9209,-3.9184,-3.9095,-3.8567,-3.8416,-3.8881,-3.8404,-3.853,-3.9572,-4.0676,-4.1794,-4.2924,-4.3501,-4.4053,-4.4606,-4.5158,-4.4824,-4.3595,-4.4866,-4.5235,-4.4651,-4.5346,-4.591,-4.6337,-4.7173,-4.8029,-4.8773,-4.7549,-4.6312,-4.5101,-4.3728,-4.2125,-4.0513,-4.0513,-4.0174,-3.9697,-3.9697,-3.9346,-3.8919,-3.8881,-3.8442,-3.8065,-3.8668,-3.8906,-3.8931,-3.9521,-3.9697,-3.9697,-3.9697,-3.9697,-3.9854,-4.0514,-3.9406,-3.8258,-3.8856,-3.7693,-3.648,-3.6417,-3.5367,-3.4787,-3.6061,-3.5271,-3.4836,-3.6156,-3.6405,-3.6194,-3.5621,-3.552,-3.5307,-3.4756,-3.4261,-3.3947,-3.3985,-3.4868,-3.5094,-3.411,-3.4449,-3.4274,-3.3275,-3.2591,-3.1775,-3.0708,-3.0683,-3.0407,-2.9804,-2.9817,-2.9829,-2.9829,-2.9804,-2.9804,-2.9829,-2.9804,-2.9792,-2.9219,-3.1123,-3.2705,-3.3154,-3.5281,-3.6963,-3.5772,-3.6869,-3.7357,-3.4873,-3.3134,-3.1574,-2.9892,-3.0809,-3.2548,-3.4747,-3.7697,-4.0474,-4.2738,-4.3319,-4.3041,-4.1841,-4.1457,-4.0666,-3.9032,-3.9107,-3.9207,-3.9094,-4.0111,-4.1392,-4.2898,-4.3501,-4.4053,-4.4606,-4.4769,-4.3795,-4.1734,-4.0224,-4.0138,-4.1325,-4.1488,-4.1949,-4.269,-4.4759,-4.5225,-4.4397,-4.5377,-4.5039,-4.383,-4.296,-4.1763,-4.0513,-4.0513,-4.0174,-3.9697,-3.9697,-3.9346,-3.8856,-3.8379,-3.7864,-3.7563,-3.8542,-3.858,-3.8404,-3.9396,-3.9697,-3.9697,-3.9697,-3.9697,-3.9662,-3.9436,-3.9348,-3.9007,-3.7924,-3.7665,-3.7362,-3.6581,-3.5367,-3.4483,-3.4824,-3.4629,-3.4836,-3.6156,-3.6405,-3.6367,-3.6169,-3.5805,-3.5307,-3.4756,-3.46,-3.4675,-3.5044,-3.5332,-3.5545,-3.5764,-3.5115,-3.46,-3.4324,-3.3395,-3.2353,-3.1235,-3.1587,-3.1173,-2.9817,-3.0193,-3.0407,-3.0407,-2.9993,-3.0005,-3.0394,-2.998,-2.9792,-3.0928,-3.25,-3.3711,-3.3711,-3.5694,-3.7025,-3.4759,-3.5443,-3.5579,-3.2077,-3.0429,-2.9116,-2.7438,-2.8909,-3.1143,-3.354,-3.6737,-3.9807,-4.2509,-4.3559,-4.3808,-4.3106,-4.2641,-4.1871,-4.0553,-4.0209,-3.9923,-3.9622,-4.0388,-4.1279,-4.2208,-4.3011,-4.3576,-4.389,-4.4141,-4.3167,-4.1019,-3.8843,-3.8122,-3.8912,-3.9244,-3.9574,-3.9841,-4.1536,-4.2199,-4.1936,-4.2879,-4.3026,-4.2592,-4.2224,-4.131,-4.0162,-4.0162,-3.9961,-3.9697,-3.9697,-3.9182,-3.8479,-3.8417,-3.7864,-3.7324,-3.8203,-3.8278,-3.8216,-3.9346,-3.9697,-3.9697,-3.9697,-3.9697,-3.9572,-3.9057,-3.9094,-3.8969,-3.7525,-3.7425,-3.7412,-3.6593,-3.5996,-3.5624,-3.5624,-3.5624,-3.5793,-3.6301,-3.6405,-3.6405,-3.6405,-3.6094,-3.5793,-3.5479,-3.5228,-3.5157,-3.547,-3.5768,-3.5931,-3.5994,-3.5441,-3.4931,-3.4693,-3.3909,-3.293,-3.18,-3.2051,-3.1675,-3.052,-3.0796,-3.0947,-3.0947,-3.0645,-3.0658,-3.0947,-3.0407,-3.0156,-3.2685,-3.3584,-3.4205,-3.4339,-3.5619,-3.6067,-3.3085,-3.3256,-3.2842,-2.8561,-2.769,-2.7242,-2.5822,-2.7292,-2.9623,-3.2479,-3.5077,-3.7848,-4.1201,-4.253,-4.3421,-4.4051,-4.3402,-4.2791,-4.2567,-4.1505,-4.0709,-4.0425,-4.0937,-4.125,-4.1175,-4.2208,-4.2785,-4.2861,-4.3219,-4.2624,-4.1047,-3.9205,-3.7965,-3.7282,-3.7897,-3.7857,-3.7328,-3.8492,-3.9477,-4.0252,-4.0694,-4.1051,-4.1369,-4.1369,-4.0693,-3.9697,-3.9697,-3.9697,-3.9697,-3.9697,-3.9069,-3.8291,-3.8718,-3.8228,-3.7487,-3.7965,-3.8115,-3.8316,-3.9371,-3.9697,-3.9697,-3.9697,-3.9697,-3.9572,-3.9057,-3.8931,-3.8743,-3.7563,-3.7349,-3.7262,-3.6744,-3.7008,-3.7299,-3.7299,-3.7299,-3.7149,-3.6707,-3.6568,-3.6518,-3.6518,-3.6455,-3.6405,-3.6405,-3.5943,-3.5608,-3.5608,-3.6081,-3.6169,-3.5646,-3.5545,-3.5295,-3.4818,-3.4311,-3.3508,-3.2378,-3.2403,-3.2102,-3.1399,-3.1461,-3.1499,-3.1499,-3.1424,-3.1436,-3.1486,-3.0884,-3.062,-3.3926,-3.4473,-3.4817,-3.5699,-3.5493,-3.4613,-3.273,-3.1448,-2.9654,-2.6079,-2.4665,-2.3968,-2.3861,-2.562,-2.8798,-3.3994,-3.6788,-4.0129,-4.543,-4.5914,-4.6079,-4.7272,-4.6306,-4.4934,-4.3378,-4.293,-4.1944,-4.0002,-4.0777,-4.1087,-4.0676,-4.1279,-4.1831,-4.2338,-4.1456,-4.1056,-4.1149,-3.9017,-3.7666,-3.7133,-3.6349,-3.5521,-3.4849,-3.7641,-3.8323,-3.7439,-4.008,-4.0769,-4.0032,-4.0032,-3.989,-3.9697,-3.9697,-3.9697,-3.9697,-3.9697,-3.9572,-3.9346,-3.9045,-3.8793,-3.8642,-3.8693,-3.8718,-3.8843,-3.9496,-3.9697,-3.9697,-3.9697,-3.9697,-3.9572,-3.9057,-3.9207,-3.927,-3.814,-3.8228,-3.8417,-3.7852,-3.7801,-3.7864,-3.7864,-3.7864,-3.7839,-3.7739,-3.7337,-3.7048,-3.7048,-3.6694,-3.6405,-3.6405,-3.6329,-3.6267,-3.6267,-3.6355,-3.6367,-3.6267,-3.5805,-3.5458,-3.5357,-3.4843,-3.4085,-3.2968,-3.337,-3.2905,-3.1411,-3.1838,-3.2077,-3.2077,-3.1612,-3.1625,-3.2051,-3.1072,-3.062,-3.5406,-3.6014,-3.6224,-3.7385,-3.6567,-3.4657,-3.1356,-2.9508,-2.7381,-2.3464,-2.2754,-2.2879,-2.3003,-2.5285,-2.8523,-3.2654,-3.485,-3.7912,-4.3429,-4.3958,-4.4635,-4.6932,-4.6601,-4.5708,-4.4397,-4.3615,-4.245,-4.0681,-4.0777,-4.0802,-4.0526,-4.0987,-4.1401,-4.1718,-4.149,-4.1136,-4.0762,-3.9958,-3.904,-3.7889,-3.7149,-3.6405,-3.5785,-3.71,-3.7572,-3.75,-3.9247,-4.0067,-4.0124,-4.0124,-4.0124,-4.0099,-3.981,-3.9697,-3.9697,-3.9697,-3.9509,-3.927,-3.9295,-3.9107,-3.8969,-3.9207,-3.9158,-3.8981,-3.9534,-3.9697,-3.9697,-3.9697,-3.9697,-3.9634,-3.9371,-3.9496,-3.9484,-3.8655,-3.8442,-3.8429,-3.8442,-3.8454,-3.8454,-3.8454,-3.8454,-3.8366,-3.8052,-3.755,-3.7274,-3.7563,-3.7149,-3.6832,-3.6832,-3.6832,-3.6732,-3.6443,-3.6405,-3.6405,-3.6405,-3.6119,-3.5843,-3.552,-3.5257,-3.4743,-3.3972,-3.4186,-3.3809,-3.2717,-3.2955,-3.2955,-3.2667,-3.2403,-3.2403,-3.2641,-3.1825,-3.1449,-3.6436,-3.7308,-3.7715,-3.8672,-3.7259,-3.449,-3.017,-2.7808,-2.5481,-2.1509,-2.1389,-2.2128,-2.2583,-2.493,-2.7797,-3.0954,-3.2512,-3.513,-4.0427,-4.1209,-4.2392,-4.5537,-4.5732,-4.5321,-4.4655,-4.3632,-4.2437,-4.1043,-4.0588,-4.0337,-4.0337,-4.0752,-4.0987,-4.11,-4.158,-4.1416,-4.059,-4.0758,-4.0129,-3.8769,-3.8119,-3.7551,-3.7072,-3.7096,-3.7549,-3.8295,-3.8945,-3.9775,-4.0676,-4.0727,-4.0793,-4.0896,-4.0632,-4.0364,-4.0121,-4.0121,-3.9651,-3.9107,-3.9546,-3.9408,-3.912,-3.9546,-3.9396,-3.9132,-3.9559,-3.9697,-3.9697,-3.9697,-3.9697,-3.9697,-3.9697,-3.9697,-3.9584,-3.9145,-3.8693,-3.8492,-3.8944,-3.9095,-3.9095,-3.9095,-3.9095,-3.8906,-3.8454,-3.7914,-3.7701,-3.8128,-3.7713,-3.7362,-3.7362,-3.7262,-3.7023,-3.6631,-3.648,-3.6405,-3.6405,-3.6405,-3.6182,-3.5696,-3.5671,-3.5433,-3.4868,-3.4856,-3.4587,-3.3909,-3.3897,-3.3633,-3.3124,-3.3124,-3.3124,-3.3111,-3.2478,-3.2215,-3.6164,-3.7641,-3.8765,-3.8779,-3.6121,-3.2829,-3.0285,-2.6899,-2.3615,-2.1194,-2.0367,-2.0565,-2.2273,-2.3411,-2.5664,-3.0623,-3.2062,-3.4457,-3.9753,-4.0534,-4.1573,-4.4253,-4.4086,-4.3533,-4.2878,-4.2592,-4.1748,-3.9976,-3.9798,-3.9772,-3.9772,-3.9823,-4.0074,-4.0576,-4.0639,-4.0821,-4.1197,-4.0262,-3.9462,-3.8877,-3.7802,-3.705,-3.6697,-3.8073,-3.8753,-3.8904,-3.9927,-4.068,-4.1232,-4.1438,-4.18,-4.2308,-4.292,-4.2461,-4.1406,-4.1406,-4.0667,-3.9622,-3.9672,-3.9659,-3.9622,-3.9672,-3.9659,-3.9634,-3.9685,-3.9697,-3.9697,-3.9697,-3.9697,-3.9697,-3.9697,-3.9697,-3.9685,-3.9634,-3.9572,-3.9546,-3.9597,-3.9622,-3.9622,-3.9622,-3.9622,-3.9597,-3.9546,-3.9082,-3.8781,-3.8831,-3.8304,-3.7939,-3.7939,-3.75,-3.7161,-3.7111,-3.6707,-3.6405,-3.6405,-3.6405,-3.6392,-3.6329,-3.6329,-3.6044,-3.5445,-3.542,-3.4931,-3.3922,-3.3897,-3.3633,-3.3124,-3.3124,-3.3124,-3.3111,-3.2478,-3.2215,-3.5877,-3.8008,-3.9429,-3.9752,-3.6688,-3.2879,-2.9911,-2.6013,-2.2447,-2.0539,-1.971,-1.9864,-2.1668,-2.2928,-2.4743,-2.7937,-2.8716,-3.0473,-3.4846,-3.5447,-3.6882,-4.0817,-4.17,-4.2103,-4.2454,-4.2411,-4.1787,-4.0304,-3.9885,-3.9697,-3.9697,-3.9697,-3.9798,-4.0011,-4.0337,-4.0626,-4.0852,-4.0693,-4.0342,-3.9869,-3.94,-3.8947,-3.8497,-3.9099,-3.9378,-3.9443,-4.0187,-4.0639,-4.0802,-4.0899,-4.1529,-4.2409,-4.2346,-4.2021,-4.1604,-4.1604,-4.0794,-3.9697,-3.9697,-3.9697,-3.9697,-3.9697,-3.9697,-3.9697,-3.9697,-3.9697,-3.9697,-3.9697,-3.9697,-3.9697,-3.9697,-3.9697,-3.9697,-3.9697,-3.9697,-3.9697,-3.9697,-3.9697,-3.9697,-3.9697,-3.9697,-3.9697,-3.9697,-3.9233,-3.8981,-3.932,-3.8881,-3.853,-3.853,-3.8341,-3.8065,-3.7713,-3.6885,-3.6543,-3.6822,-3.6606,-3.6556,-3.6835,-3.6593,-3.6304,-3.6044,-3.6031,-3.568,-3.4856,-3.4562,-3.4123,-3.3571,-3.3244,-3.3124,-3.3111,-3.2842,-3.2729,-3.4419,-3.7009,-3.8689,-3.9173,-3.6081,-3.2051,-2.8699,-2.477,-2.1393,-1.9886,-1.9259,-1.9484,-2.1056,-2.2636,-2.4247,-2.5922,-2.6762,-2.8393,-3.1814,-3.218,-3.3572,-3.7534,-3.8683,-3.9599,-4.0741,-4.1331,-4.117,-4.0088,-3.9672,-3.9383,-3.9207,-3.9358,-3.9534,-3.9685,-4.0074,-4.0275,-4.0275,-4.0664,-4.0664,-4.0275,-4.0275,-4.0074,-3.9697,-3.9697,-3.9785,-3.9948,-4.0174,-4.0463,-4.0739,-4.0793,-4.1684,-4.2935,-4.2787,-4.2509,-4.2168,-4.2168,-4.1119,-3.9697,-3.9697,-3.9697,-3.9697,-3.9697,-3.9929,-4.0173,-3.9788,-3.9697,-3.9697,-3.9697,-3.9697,-3.9697,-3.9697,-3.9697,-3.9697,-3.9697,-3.9697,-3.9697,-3.9697,-3.9697,-3.9697,-3.9697,-3.9697,-3.9697,-3.9697,-3.9371,-3.9245,-3.9634,-3.9371,-3.912,-3.912,-3.902,-3.8718,-3.8304,-3.7412,-3.7059,-3.74,-3.6923,-3.682,-3.7161,-3.6719,-3.6405,-3.6405,-3.6405,-3.6107,-3.5508,-3.5119,-3.4655,-3.4135,-3.3759,-3.3483,-3.3319,-3.3319,-3.3232,-3.1401,-3.4158,-3.6273,-3.6433,-3.3508,-2.9767,-2.6402,-2.3092,-2.0402,-1.9233,-1.9008,-1.9334,-2.049,-2.2364,-2.4104,-2.5313,-2.7229,-2.9505,-3.2123,-3.2273,-3.2845,-3.4892,-3.4923,-3.5437,-3.7109,-3.8768,-3.9522,-3.8982,-3.8932,-3.863,-3.8052,-3.8567,-3.9132,-3.9672,-3.9697,-3.9697,-3.9697,-3.971,-3.971,-3.9697,-3.9697,-3.9697,-3.9697,-3.9697,-3.9986,-4.0475,-3.9936,-4.0325,-4.1295,-4.15,-4.2664,-4.4346,-4.5068,-4.4595,-4.3504,-4.3504,-4.1887,-3.9697,-3.9697,-3.9697,-3.9697,-3.9697,-4.0554,-4.1369,-4.007,-3.9697,-3.9697,-3.9697,-3.9697,-3.9697,-3.9697,-3.9697,-3.9697,-3.9697,-3.9697,-3.9697,-3.9697,-3.9697,-3.9697,-3.9697,-3.9697,-3.9697,-3.9697,-3.9685,-3.9685,-3.9697,-3.9685,-3.9685,-3.9685,-3.9207,-3.8919,-3.8906,-3.8341,-3.799,-3.8002,-3.75,-3.7174,-3.7186,-3.6719,-3.6405,-3.6405,-3.6405,-3.6107,-3.5508,-3.5495,-3.5219,-3.4668,-3.4713,-3.4424,-3.3884,-3.3884,-3.3596,-2.701,-2.9102,-3.0495,-3.0683,-2.8386,-2.5611,-2.3766,-2.1091,-1.8995,-1.8995,-1.8707,-1.892,-2.0415,-2.1629,-2.3016,-2.4907,-2.675,-2.8564,-3.0395,-3.1563,-3.2972,-3.4992,-3.6924,-3.8329,-3.8843,-3.9044,-3.9057,-3.8881,-3.8504,-3.8203,-3.8015,-3.8178,-3.8542,-3.912,-3.9496,-3.9697,-3.9697,-3.9697,-3.9697,-3.9697,-3.9697,-3.9697,-3.9697,-3.9697,-3.9785,-3.9936,-3.9772,-3.9885,-4.0187,-4.0274,-4.1136,-4.2472,-4.2722,-4.2544,-4.2217,-4.2217,-4.1119,-3.9697,-3.9697,-3.9697,-3.9697,-3.9697,-4.0554,-4.1369,-4.007,-4.0313,-4.0844,-3.9929,-3.9697,-3.9697,-3.9697,-3.9697,-3.9697,-3.9697,-3.9697,-3.9697,-3.9697,-3.9697,-3.9697,-3.9697,-3.9697,-3.9697,-3.9697,-3.9697,-3.9697,-3.9697,-3.9697,-3.9697,-3.9697,-3.9534,-3.9433,-3.9433,-3.927,-3.9007,-3.863,-3.8078,-3.7751,-3.7751,-3.7224,-3.6807,-3.643,-3.6405,-3.6329,-3.6107,-3.5683,-3.542,-3.5245,-3.4856,-3.4625,-3.4449,-3.4073,-3.3809,-2.2614,-2.4585,-2.5741,-2.634,-2.4771,-2.2761,-2.1619,-1.956,-1.799,-1.8342,-1.8292,-1.8581,-1.9823,-2.0992,-2.2313,-2.3883,-2.5646,-2.7456,-2.9375,-3.1065,-3.2925,-3.5139,-3.7194,-3.8429,-3.8429,-3.8504,-3.8467,-3.8241,-3.7902,-3.76,-3.74,-3.7588,-3.7952,-3.853,-3.9094,-3.9484,-3.9697,-3.9697,-3.9697,-3.9697,-3.9697,-3.9697,-3.9697,-3.9697,-3.9697,-3.9697,-3.9697,-3.9697,0.0,-3.9697,-4.0453,-4.1604,-4.1604,-4.1604,-4.1604,-4.1604,-4.0794,-3.9659,-3.9459,-3.9521,-3.9659,-3.9446,-4.0045,-4.0844,-4.0503,-4.0655,-4.0693,-3.9929,-3.9697,-3.9697,-3.9697,-3.9697,-3.9697,-3.9697,-3.9697,-3.9697,-3.9697,-3.9697,-3.9697,-3.9697,-3.9697,-3.9697,-3.9697,-3.9697,-3.9697,-3.9697,-3.9697,-3.9697,-3.9697,-3.9697,-3.9697,-3.9697,-3.9697,-3.9546,-3.9207,-3.8655,-3.8241,-3.8015,-3.7487,-3.7123,-3.6985,-3.6631,-3.6505,-3.6719,-3.6132,-3.5855,-3.5855,-3.5303,-3.4994,-3.4969,-3.4462,-3.4098,0.0,-2.0457,-2.1766,-2.3066,-2.2216,-2.0799,-1.9811,-1.8405,0.0,-1.7398,-1.7815,-1.8392,-1.9008,-2.0552,-2.1969,-2.2696,-2.4353,-2.6454,-2.9187,-3.1162,-3.3202,-3.5455,-3.6309,-3.6625,-3.6417,-3.7324,-3.7739,-3.7224,-3.7149,-3.6958,-3.643,-3.6895,-3.7374,-3.7939,-3.8467,-3.9057,-3.9685,-3.9697,-3.9697,-3.9697,-3.9697,-3.9697,-3.9697,-3.9697,-3.9697,-3.9697,-3.9697,-3.9697,-3.9697,-3.9697,-4.0415,-4.1455,-4.1455,-4.1455,-4.1455,-4.1455,-4.0667,-3.9559,-3.9044,-3.9182,-3.9496,-3.9171,-3.9309,-3.9879,-4.1206,-4.0693,-3.9697,-3.9697,-3.9697,-3.9697,-3.9697,-3.9697,-3.9697,-3.9697,-3.9697,-3.9697,-3.9697,-3.9697,-3.9697,-3.9697,-3.9697,-3.9697,-3.9697,-3.9697,-3.9697,-3.9697,-3.9697,-3.9697,-3.9697,-3.9697,-3.9697,-3.9697,-3.9697,-3.9672,-3.9634,-3.9195,-3.868,-3.8103,-3.7588,-3.7513,-3.799,-3.6985,-3.6707,-3.7174,-3.6681,-3.6405,-3.6405,-3.5855,-3.5558,-3.5545,-3.4994,-3.4512,-1.3962,0.0,-1.6482,-1.7833,-1.758,-1.7045,0.0,-1.6964,-1.6848,-1.731,-1.7815,-1.8631,-2.005,-2.0662,-2.1824,-2.4462,-2.5918,-2.7759,-3.082,-3.4963,-3.7496,-3.6974,-3.8608,-3.8864,-3.6613,-3.6973,-3.7324,-3.7199,-3.6832,-3.6543,-3.6417,-3.6531,-3.6857,-3.7362,-3.7513,-3.8266,-3.9685,-3.9697,-3.9697,-3.9697,-3.9697,-3.9697,-3.9697,-3.9697,-3.9697,-3.9697,-3.9697,-3.9697,-3.9697,-3.9697,-3.989,-4.0173,-4.0173,-4.0173,-4.0173,-4.0173,-3.9715,-3.9095,-3.8957,-3.8668,-3.8641,-3.9936,-3.9809,-3.9373,-4.1089,-4.0693,-3.9697,-3.9697,-3.9697,-3.9697,-3.9697,-3.9697,-3.9697,-3.9697,-3.9697,-3.9697,-3.9697,-3.9697,-3.9697,-3.9697,-3.9697,-3.9697,-3.9697,-3.9697,-3.9697,-3.9697,-3.9697,-3.9697,-3.9697,-3.9697,-3.9697,-3.9697,-3.9697,-3.9521,-3.9094,-3.9333,-3.927,-3.8705,-3.8542,-3.8329,-3.8015,-3.7349,-3.7048,-3.7186,-3.6681,-3.6405,-3.6405,-3.6279,-3.6169,-3.6157,-3.5604,-3.5232,-1.252,-1.3785,-1.4978,-1.6115,-1.6291,-1.6394,-1.7117,-1.6864,-1.6588,-1.6923,-1.7639,-1.8555,-1.971,-2.0566,-2.1911,-2.4443,-2.5749,-2.7888,-3.2124,-3.5465,-3.7803,-3.8681,-3.8948,-3.8652,-3.7668,-3.7093,-3.6857,-3.6857,-3.6581,-3.6405,-3.6405,-3.6405,-3.6669,-3.7161,-3.7186,-3.7877,-3.9295,-3.932,-3.9446,-3.9697,-3.9697,-3.9697,-3.9697,-3.9697,-3.9697,-3.9697,-3.9697,-3.9697,-3.9697,-3.9697,-3.9697,-3.9697,-3.9697,-3.9697,-3.9659,-3.9408,-3.9283,-3.9145,-3.8416,-3.7889,-3.786,-3.9128,-3.9025,-3.8717,-3.9989,-3.9879,-3.9371,-3.9622,-3.9697,-3.9697,-3.9697,-3.9697,-3.9697,-3.9697,-3.9697,-3.9697,-3.9697,-3.9697,-3.9697,-3.9697,-3.9697,-3.9697,-3.9697,-3.9697,-3.9697,-3.9697,-3.9697,-3.9697,-3.9697,-3.9697,-3.9697,-3.9697,-3.9697,-3.9572,-3.927,-3.9521,-3.9459,-3.8957,-3.8919,-3.8843,-3.8781,-3.7751,-3.7061,-3.6857,-3.6556,-3.6405,-3.6405,-3.6405,-3.6405,-3.6405,-3.6056,-3.578,-1.2596,-1.4143,-1.5494,-1.6101,-1.6621,-1.7233,-1.8114,-1.7526,-1.6776,-1.6864,-1.7727,-1.8643,-1.9259,-2.0752,-2.2422,-2.4104,-2.5618,-2.8321,-3.3381,-3.5134,-3.6998,-3.9804,-3.8771,-3.8065,-3.8599,-3.7451,-3.6637,-3.6501,-3.6449,-3.6367,-3.6292,-3.6279,-3.6445,-3.6923,-3.6935,-3.7475,-3.8655,-3.8831,-3.9145,-3.9697,-3.9697,-3.9697,-3.9697,-3.9697,-3.9697,-3.9685,-3.9597,-3.9622,-3.9685,-3.9509,-3.9534,-3.9672,-3.9496,-3.9496,-3.9496,-3.8944,-3.8981,-3.9094,-3.7575,-3.7061,-3.7149,-3.7701,-3.7889,-3.799,-3.8567,-3.8856,-3.8969,-3.9433,-3.9634,-3.9697,-3.9697,-3.9697,-3.9697,-3.9697,-3.9697,-3.9697,-3.9697,-3.9697,-3.9697,-3.9697,-3.9697,-3.9697,-3.9697,-3.9697,-3.9697,-3.9697,-3.9697,-3.9697,-3.9697,-3.9697,-3.9697,-3.9697,-3.9697,-3.9697,-3.9697,-3.9697,-3.9496,-3.9032,-3.9045,-3.917,-3.9546,-3.8115,-3.7048,-3.6543,-3.6455,-3.6405,-3.6405,-3.6405,-3.6405,-3.6405,-3.6405,-3.6119,-1.2938,-1.49,-1.6327,-1.5774,-1.6516,-1.7657,-1.866,-1.8381,-1.8078,-1.8519,-1.9133,-1.9874,-2.0916,-2.2485,-2.4155,-2.5845,-2.8859,-3.204,-3.4926,-3.7866,-3.9479,-3.867,-4.0449,-4.0605,-3.7717,-3.7687,-3.7606,-3.7032,-3.6616,-3.6157,-3.5658,-3.5621,-3.5671,-3.5746,-3.5746,-3.6332,-3.7425,-3.8441,-3.9145,-3.9697,-3.9697,-3.9697,-3.9697,-3.9697,-3.9697,-3.9672,-3.9195,-3.927,-3.9622,-3.8668,-3.8831,-3.9597,-3.8642,-3.8567,-3.8931,-3.8354,-3.7902,-3.7462,-3.6782,-3.6531,-3.6619,-3.7136,-3.7312,-3.7412,-3.7965,-3.8479,-3.8944,-3.902,-3.9333,-3.9697,-3.9697,-3.9697,-3.9697,-3.9697,-3.9697,-3.9697,-3.9697,-3.9697,-3.9697,-3.9697,-3.9697,-3.9697,-3.9697,-3.9697,-3.9697,-3.9697,-3.9697,-3.9697,-3.9697,-3.9697,-3.9697,-3.9697,-3.9697,-3.9697,-3.9697,-3.9697,-3.9659,-3.9572,-3.9572,-3.9396,-3.9057,-3.8278,-3.7613,-3.7073,-3.6644,-3.6405,-3.6405,-3.6405,-3.6405,-3.6405,-3.6405,-3.6367,-1.2847,-1.4639,-1.628,-1.6732,-1.8126,-1.9625,-2.0554,-2.0376,-2.0049,-2.03,-2.079,-2.1405,-2.2192,-2.374,-2.5699,-2.8285,-3.061,-3.2806,-3.4724,-3.6318,-3.7578,-3.8307,-3.9082,-3.9253,-3.8571,-3.8184,-3.7868,-3.7556,-3.732,-3.6857,-3.6,-3.6493,-3.6713,-3.647,-3.6393,-3.6934,-3.8114,-3.8018,-3.8391,-3.9245,-3.8931,-3.8944,-3.9245,-3.8919,-3.8781,-3.8768,-3.8517,-3.8542,-3.8743,-3.8216,-3.8316,-3.873,-3.8203,-3.8165,-3.8366,-3.8103,-3.7475,-3.6795,-3.6832,-3.6656,-3.6455,-3.6707,-3.6782,-3.6883,-3.74,-3.7952,-3.8467,-3.8831,-3.927,-3.9697,-3.9697,-3.9697,-3.9697,-3.9697,-3.9697,-3.9697,-3.9697,-3.9697,-3.9697,-3.9697,-3.9697,-3.9697,-3.9697,-3.9697,-3.9697,-3.9697,-3.9697,-3.9697,-3.9697,-3.9697,-3.9697,-3.9697,-3.9697,-3.9697,-3.9697,-3.9697,-3.9697,-3.9697,-3.9697,-3.9446,-3.8944,-3.8617,-3.8065,-3.7199,-3.6935,-3.6707,-3.6405,-3.6707,-3.6694,-3.6417,-3.6719,-3.6694,-1.2993,-1.4521,-1.6204,-1.7629,-1.9281,-2.1005,-2.2683,-2.2447,-2.202,-2.2548,-2.3153,-2.3645,-2.3781,-2.5167,-2.7224,-3.0145,-3.1512,-3.2693,-3.417,-3.4701,-3.5828,-3.8159,-3.795,-3.8185,-3.9628,-3.888,-3.8227,-3.8088,-3.7965,-3.7366,-3.6194,-3.6893,-3.7277,-3.7113,-3.6755,-3.726,-3.8721,-3.7568,-3.7563,-3.8668,-3.8216,-3.8241,-3.8655,-3.8203,-3.8002,-3.8002,-3.7864,-3.7889,-3.799,-3.7726,-3.7776,-3.799,-3.7713,-3.7626,-3.7626,-3.7626,-3.7086,-3.6468,-3.6895,-3.6757,-3.6405,-3.6405,-3.6405,-3.6493,-3.6908,-3.7462,-3.8103,-3.8542,-3.917,-3.9697,-3.9697,-3.9697,-3.9697,-3.9697,-3.9697,-3.9697,-3.9697,-3.9697,-3.9697,-3.9697,-3.9697,-3.9697,-3.9697,-3.9697,-3.9697,-3.9697,-3.9697,-3.9697,-3.9697,-3.9697,-3.9697,-3.9697,-3.9697,-3.9697,-3.9697,-3.9697,-3.9697,-3.9697,-3.9697,-3.9509,-3.9082,-3.8994,-3.8391,-3.74,-3.7374,-3.7098,-3.6606,-3.7111,-3.7098,-3.6619,-3.6985,-3.6885,-1.3829,-1.5304,-1.6598,-1.7656,-1.8627,-2.0399,-2.4444,-2.4111,-2.3602,-2.5707,-2.686,-2.7167,-2.6074,-2.7209,-2.8785,-3.0349,-3.1512,-3.2591,-3.3771,-3.5353,-3.6775,-3.7896,-3.8975,-3.9809,-4.0278,-3.9814,-3.9204,-3.8603,-3.8126,-3.7232,-3.5656,-3.563,-3.5936,-3.6562,-3.5455,-3.5948,-3.8115,-3.7041,-3.6973,-3.8065,-3.8027,-3.8027,-3.8065,-3.8027,-3.8002,-3.7977,-3.7462,-3.7538,-3.7927,-3.6958,-3.7086,-3.7902,-3.6872,-3.6531,-3.6531,-3.6531,-3.648,-3.6417,-3.6455,-3.6443,-3.6405,-3.6405,-3.6405,-3.6417,-3.6455,-3.7161,-3.8015,-3.8052,-3.8856,-3.9697,-3.9697,-3.9697,-3.9697,-3.9697,-3.9697,-3.9697,-3.9697,-3.9697,-3.9697,-3.9697,-3.9697,-3.9697,-3.9697,-3.9697,-3.9697,-3.9697,-3.9697,-3.9697,-3.9697,-3.9697,-3.9697,-3.9697,-3.9697,-3.9697,-3.9697,-3.9697,-3.9697,-3.9697,-3.9697,-3.9672,-3.9634,-3.9145,-3.858,-3.7952,-3.7952,-3.7676,-3.7123,-3.7676,-3.7663,-3.7123,-3.7161,-3.6885,-1.3858,-1.5701,-1.7645,-1.8353,-1.9564,-2.1416,-2.4411,-2.5699,-2.6725,-2.854,-2.9797,-3.0392,-2.9766,-3.0412,-3.1249,-3.1798,-3.3421,-3.4812,-3.5327,-3.6535,-3.762,-3.8347,-3.8835,-3.9295,-3.9734,-3.961,-3.9202,-3.8546,-3.8302,-3.7663,-3.637,-3.6317,-3.65,-3.6933,-3.6809,-3.7386,-3.8643,-3.8175,-3.7836,-3.7577,-3.7178,-3.7161,-3.7475,-3.7149,-3.6985,-3.6973,-3.6807,-3.6832,-3.6948,-3.6581,-3.6656,-3.6948,-3.6568,-3.6405,-3.6405,-3.6405,-3.6405,-3.6405,-3.6405,-3.6405,-3.6405,-3.6405,-3.6405,-3.6405,-3.6405,-3.6945,-3.75,-3.75,-3.8304,-3.9258,-3.9597,-3.9697,-3.9697,-3.9697,-3.9697,-3.9697,-3.9697,-3.9697,-3.9697,-3.9697,-3.9697,-3.9697,-3.9697,-3.9697,-3.9697,-3.9697,-3.9697,-3.9697,-3.9697,-3.9697,-3.9697,-3.9697,-3.9697,-3.9697,-3.9697,-3.9697,-3.9697,-3.9697,-3.9697,-3.9697,-3.9697,-3.9496,-3.912,-3.8555,-3.8542,-3.8266,-3.7701,-3.8266,-3.8078,-3.7199,-3.7538,-3.7211,-1.4027,-1.5665,-1.7567,-1.8648,-2.0231,-2.2245,-2.5135,-2.6962,-2.8743,-3.0957,-3.1854,-3.2303,-3.2521,-3.2498,-3.2567,-3.2919,-3.4432,-3.5677,-3.596,-3.6633,-3.7322,-3.8011,-3.7911,-3.8138,-3.9002,-3.8901,-3.8586,-3.8123,-3.8078,-3.7627,-3.6561,-3.6697,-3.7087,-3.7686,-3.7936,-3.863,-3.9831,-3.9213,-3.8519,-3.7809,-3.6826,-3.6481,-3.6646,-3.6282,-3.6194,-3.6405,-3.6405,-3.6405,-3.6405,-3.6405,-3.6405,-3.6405,-3.6405,-3.6405,-3.6405,-3.6405,-3.6405,-3.6405,-3.6405,-3.6405,-3.6405,-3.6405,-3.6405,-3.6405,-3.6405,-3.6795,-3.7186,-3.7186,-3.7864,-3.873,-3.9283,-3.9559,-3.9697,-3.9697,-3.9697,-3.9697,-3.9697,-3.9697,-3.9697,-3.9697,-3.9697,-3.9697,-3.9697,-3.9697,-3.9697,-3.9697,-3.9697,-3.9697,-3.9697,-3.9697,-3.9697,-3.9697,-3.9697,-3.9697,-3.9697,-3.9697,-3.9697,-3.9697,-3.9697,-3.9697,-3.9697,-3.9697,-3.9433,-3.8932,-3.9095,-3.8856,-3.8278,-3.8856,-3.8555,-3.745,-3.7839,-3.7412,-1.4548,-1.5164,-1.6185,-1.8448,-2.03,-2.2661,-2.6912,-2.8018,-2.9187,-3.2947,-3.2981,-3.2727,-3.3973,-3.3085,-3.2478,-3.3453,-3.4076,-3.4609,-3.5206,-3.5303,-3.5673,-3.6687,-3.628,-3.6561,-3.8232,-3.7793,-3.7404,-3.7404,-3.7404,-3.6961,-3.5942,-3.6467,-3.7388,-3.876,-3.8331,-3.9242,-4.1558,-3.9831,-3.8946,-3.889,-3.715,-3.6048,-3.5495,-3.5495,-3.5843,-3.6405,-3.6405,-3.6405,-3.6405,-3.6405,-3.6405,-3.6405,-3.6405,-3.6405,-3.6405,-3.6405,-3.6405,-3.6405,-3.6405,-3.6405,-3.6405,-3.6405,-3.6405,-3.6405,-3.6405,-3.6782,-3.7174,-3.7174,-3.7575,-3.8128,-3.8705,-3.927,-3.9685,-3.9697,-3.9697,-3.9697,-3.9697,-3.9697,-3.9697,-3.9697,-3.9697,-3.9697,-3.9697,-3.9697,-3.9697,-3.9697,-3.9697,-3.9697,-3.9697,-3.9697,-3.9697,-3.9697,-3.9697,-3.9697,-3.9697,-3.9697,-3.9697,-3.9697,-3.9697,-3.9697,-3.9697,-3.9697,-3.9433,-3.8944,-3.9421,-3.9421,-3.8881,-3.9421,-3.9107,-3.7953,-3.7953,-3.7412,-1.5241,-1.6883,-1.8921,-2.0385,-2.2309,-2.4633,-2.7762,-2.8885,-3.0253,-3.3709,-3.4643,-3.4797,-3.4721,-3.4956,-3.4871,-3.3962,-3.4952,-3.5828,-3.573,-3.6324,-3.6875,-3.7207,-3.7044,-3.7154,-3.7639,-3.7524,-3.7225,-3.6791,-3.6761,-3.666,-3.6325,-3.5799,-3.6057,-3.733,-3.8167,-3.9164,-4.0302,-4.1172,-4.1177,-4.0422,-3.8977,-3.7684,-3.6606,-3.5839,-3.5843,-3.6392,-3.5956,-3.6006,-3.6405,-3.6405,-3.6405,-3.6405,-3.6405,-3.6405,-3.6405,-3.6405,-3.6405,-3.6405,-3.6405,-3.6405,-3.6405,-3.6405,-3.6405,-3.6405,-3.6405,-3.6518,-3.6656,-3.6656,-3.6998,-3.7462,-3.7638,-3.8391,-3.922,-3.9597,-3.9697,-3.9697,-3.9697,-3.9697,-3.9697,-3.9697,-3.9697,-3.9697,-3.9697,-3.9697,-3.9697,-3.9697,-3.9697,-3.9697,-3.9697,-3.9697,-3.9697,-3.9697,-3.9697,-3.9697,-3.9697,-3.9697,-3.9697,-3.9697,-3.9697,-3.9697,-3.9697,-3.9697,-3.9622,-3.9459,-3.9609,-3.9107,-3.7895,-3.8052,-3.7099,-3.5074,-3.6021,-3.5935,-1.5811,-1.7629,-1.9924,-2.1694,-2.3653,-2.5807,-2.8531,-3.0276,-3.2002,-3.4252,-3.4977,-3.5135,-3.4966,-3.535,-3.555,-3.5009,-3.5811,-3.641,-3.6166,-3.664,-3.7045,-3.7045,-3.6806,-3.6761,-3.7015,-3.6806,-3.6492,-3.6133,-3.6088,-3.6088,-3.6088,-3.576,-3.5834,-3.6468,-3.8154,-3.9182,-3.9497,-4.1343,-4.1961,-4.131,-4.0178,-3.912,-3.8159,-3.6319,-3.582,-3.6358,-3.5764,-3.5617,-3.573,-3.5943,-3.5906,-3.5705,-3.5705,-3.5843,-3.6031,-3.6031,-3.6169,-3.6405,-3.6405,-3.6405,-3.6405,-3.6405,-3.6405,-3.6405,-3.6405,-3.6405,-3.6405,-3.6405,-3.6644,-3.6958,-3.7123,-3.7852,-3.8668,-3.9233,-3.9534,-3.9697,-3.9697,-3.9697,-3.9697,-3.9697,-3.9697,-3.9697,-3.9697,-3.9697,-3.9697,-3.9697,-3.9697,-3.9697,-3.9697,-3.9697,-3.9697,-3.9697,-3.9697,-3.9697,-3.9697,-3.9697,-3.9697,-3.9697,-3.9697,-3.9697,-3.9697,-3.9697,-3.9697,-3.9697,-3.9697,-3.8961,-3.7518,-3.7518,-3.6325,-3.409,-3.548,-3.5619,-1.6335,-1.775,-1.9747,-2.2556,-2.4644,-2.6666,-2.9277,-3.1703,-3.3604,-3.4211,-3.4151,-3.4172,-3.4747,-3.471,-3.4961,-3.6207,-3.6402,-3.6402,-3.6402,-3.6402,-3.6402,-3.6402,-3.5863,-3.5744,-3.6342,-3.5863,-3.5474,-3.5415,-3.5415,-3.5415,-3.5415,-3.5917,-3.6094,-3.5905,-3.7929,-3.9003,-3.8924,-4.0682,-4.1635,-4.1705,-4.086,-4.0259,-3.9798,-3.6917,-3.5798,-3.6048,-3.5613,-3.5107,-3.4688,-3.5194,-3.5132,-3.468,-3.468,-3.4981,-3.542,-3.542,-3.578,-3.6267,-3.6317,-3.6329,-3.6342,-3.6392,-3.6405,-3.6405,-3.6405,-3.6405,-3.6405,-3.6405,-3.6405,-3.6518,-3.6973,-3.7525,-3.8078,-3.8655,-3.9258,-3.9697,-3.9697,-3.9697,-3.9697,-3.9697,-3.9697,-3.9697,-3.9697,-3.9697,-3.9697,-3.9697,-3.9697,-3.9697,-3.9697,-3.9697,-3.9697,-3.9697,-3.9697,-3.9697,-3.9697,-3.9697,-3.9697,-3.9697,-3.9697,-3.9697,-3.9697,-3.9697,-3.9697,-3.9697,-3.9697,-3.8908,-3.7305,-3.7364,-3.627,-3.4041,-3.5835,-3.6007,-1.6966,-1.8326,-2.0413,-2.3622,-2.6691,-2.9164,-3.0206,-3.0855,-3.1305,-3.146,-3.2424,-3.3342,-3.3688,-3.4369,-3.5078,-3.5645,-3.5714,-3.5714,-3.5714,-3.5714,-3.5714,-3.5714,-3.5594,-3.5564,-3.5699,-3.5594,-3.528,-3.4741,-3.4728,-3.4728,-3.4728,-3.4156,-3.4259,-3.5171,-3.5889,-3.6893,-3.8182,-3.9793,-4.1021,-4.1847,-4.1173,-4.0518,-3.9833,-3.7558,-3.5763,-3.4438,-3.474,-3.4587,-3.4123,-3.4675,-3.4781,-3.468,-3.468,-3.4756,-3.4856,-3.4856,-3.4931,-3.514,-3.5567,-3.5671,-3.5793,-3.6267,-3.6405,-3.6405,-3.6405,-3.6405,-3.6405,-3.6405,-3.6405,-3.643,-3.6556,-3.6996,-3.75,-3.8065,-3.8969,-3.9697,-3.9697,-3.9697,-3.9697,-3.9697,-3.9697,-3.9697,-3.9697,-3.9697,-3.9697,-3.9697,-3.9697,-3.9697,-3.9697,-3.9697,-3.9697,-3.9697,-3.9697,-3.9697,-3.9697,-3.9697,-3.9697,-3.9697,-3.9697,-3.9697,-3.9697,-3.9697,-3.9697,-3.9697,-3.9697,-3.8425,-3.5781,-3.652,-3.4897,-3.1166,-3.4453,-3.5275,-1.7194,-1.8548,-2.0677,-2.4293,-2.7105,-2.9126,-2.964,-3.0177,-3.0585,-3.083,-3.2104,-3.3152,-3.3042,-3.4239,-3.5303,-3.5484,-3.5235,-3.513,-3.5459,-3.522,-3.513,-3.5474,-3.522,-3.5011,-3.5011,-3.4726,-3.4397,-3.4038,-3.4008,-3.4174,-3.4488,-3.3609,-3.3316,-3.3832,-3.432,-3.4774,-3.5221,-3.7653,-3.9329,-4.0291,-4.0826,-4.0407,-3.9062,-3.7008,-3.5251,-3.3832,-3.418,-3.401,-3.3545,-3.4098,-3.4173,-3.3935,-3.3935,-3.4098,-3.4324,-3.4324,-3.45,-3.4718,-3.5006,-3.5282,-3.5545,-3.5881,-3.6144,-3.6405,-3.6405,-3.6405,-3.6405,-3.6405,-3.6405,-3.6405,-3.6405,-3.682,-3.7324,-3.7877,-3.8668,-3.9371,-3.9634,-3.9697,-3.9697,-3.9697,-3.9697,-3.9697,-3.9697,-3.9697,-3.9697,-3.9697,-3.9697,-3.9697,-3.9697,-3.9697,-3.9697,-3.9697,-3.9697,-3.9697,-3.9697,-3.9697,-3.9697,-3.9697,-3.9697,-3.9697,-3.9697,-3.9697,-3.9697,-3.9697,-3.9697,-3.8582,-3.6379,-3.6862,-3.5534,-3.27,-3.5379,-3.6097,-1.7202,-1.8706,-2.0941,-2.4443,-2.6578,-2.7959,-2.8511,-2.9462,-3.0336,-3.0784,-3.2131,-3.3201,-3.2903,-3.4071,-3.513,-3.5292,-3.4756,-3.4502,-3.5085,-3.4666,-3.4517,-3.51,-3.4666,-3.4339,-3.4339,-3.3814,-3.344,-3.3335,-3.332,-3.3559,-3.4144,-3.3129,-3.2503,-3.2427,-3.2573,-3.242,-3.1923,-3.4839,-3.6817,-3.7826,-3.956,-3.9558,-3.7944,-3.5883,-3.4504,-3.371,-3.3611,-3.3345,-3.2955,-3.3319,-3.3206,-3.2847,-3.2893,-3.3206,-3.3621,-3.3721,-3.4048,-3.4449,-3.455,-3.4893,-3.537,-3.547,-3.5918,-3.6405,-3.6405,-3.6405,-3.6405,-3.6405,-3.6405,-3.6405,-3.6405,-3.6744,-3.7211,-3.7852,-3.8366,-3.8894,-3.9546,-3.9697,-3.9697,-3.9697,-3.9697,-3.9697,-3.9697,-3.9697,-3.9697,-3.9697,-3.9697,-3.9697,-3.9697,-3.9697,-3.9697,-3.9697,-3.9697,-3.9697,-3.9697,-3.9697,-3.9697,-3.9697,-3.9697,-3.9697,-3.9697,-3.9697,-3.9697,-3.9697,-3.9697,-3.8961,-3.7518,-3.7647,-3.689,-3.5343,-3.6997,-3.7419,-1.71,-1.9309,-2.1744,-2.3715,-2.5481,-2.6851,-2.7369,-2.855,-2.9561,-2.964,-3.1275,-3.2938,-3.3685,-3.3609,-3.3707,-3.4511,-3.4053,-3.3649,-3.3754,-3.3679,-3.3664,-3.3754,-3.3679,-3.3619,-3.3619,-3.3544,-3.326,-3.2691,-3.2647,-3.2677,-3.2766,-3.1165,-3.0693,-3.1709,-2.9871,-2.946,-3.0698,-3.1747,-3.3218,-3.5035,-3.6519,-3.7078,-3.6755,-3.4624,-3.3666,-3.3658,-3.2813,-3.2403,-3.2303,-3.1888,-3.1687,-3.1662,-3.2139,-3.2378,-3.2503,-3.3006,-3.3232,-3.337,-3.3847,-3.4374,-3.4868,-3.5345,-3.5918,-3.6405,-3.6405,-3.6405,-3.6405,-3.6405,-3.6405,-3.6405,-3.6405,-3.6468,-3.6782,-3.7764,-3.8065,-3.8417,-3.9471,-3.9697,-3.9697,-3.9697,-3.9697,-3.9697,-3.9697,-3.9697,-3.9697,-3.9697,-3.9697,-3.9697,-3.9697,-3.9697,-3.9697,-3.9697,-3.9697,-3.9697,-3.9697,-3.9697,-3.9697,-3.9697,-3.9697,-3.9697,-3.9697,-3.9697,-3.9697,-3.9697,-3.9697,-3.8961,-3.7518,-3.8325,-3.7533,-3.5343,-3.7678,-3.8261,-1.7077,-1.8719,-2.0439,-2.1823,-2.318,-2.4443,-2.5636,-2.7112,-2.8419,-2.9031,-3.0975,-3.2623,-3.2904,-3.3165,-3.3465,-3.3856,-3.338,-3.308,-3.344,-3.2856,-3.2512,-3.2901,-3.2287,-3.1824,-3.1824,-3.1824,-3.1554,-3.0911,-3.1195,-3.139,-3.139,-3.0012,-2.9646,-3.0559,-2.8422,-2.7609,-2.829,-2.8624,-3.0404,-3.3622,-3.4431,-3.5171,-3.5761,-3.378,-3.3124,-3.3475,-3.2267,-3.175,-3.1738,-3.1486,-3.1386,-3.1411,-3.165,-3.1938,-3.224,-3.2503,-3.2805,-3.3106,-3.3357,-3.3796,-3.4349,-3.4856,-3.5454,-3.5968,-3.6317,-3.6405,-3.6405,-3.6405,-3.6405,-3.6405,-3.6405,-3.6405,-3.6681,-3.7739,-3.8002,-3.8316,-3.9446,-3.9697,-3.9697,-3.9697,-3.9697,-3.9697,-3.9697,-3.9697,-3.9697,-3.9697,-3.9697,-3.9697,-3.9697,-3.9697,-3.9697,-3.9697,-3.9697,-3.9697,-3.9697,-3.9697,-3.9697,-3.9697,-3.9697,-3.9697,-3.9697,-3.9697,-3.9697,-3.9697,-3.9697,-3.9362,-3.8739,-3.9177,-3.879,-3.7808,-3.8842,-3.9125,-1.6903,-1.7877,-1.8844,-1.9824,-2.0865,-2.2099,-2.3786,-2.5425,-2.6908,-2.8049,-3.0027,-3.1441,-3.1185,-3.2308,-3.3185,-3.3021,-3.2437,-3.2123,-3.2452,-3.1659,-3.1197,-3.1704,-3.0881,-3.0268,-3.0268,-3.0268,-3.0073,-2.9636,-3.0013,-3.0268,-3.0268,-2.9254,-2.8959,-2.954,-2.7518,-2.6341,-2.6174,-2.6302,-2.8153,-3.1692,-3.2285,-3.3181,-3.427,-3.2709,-3.23,-3.2799,-3.1692,-3.1198,-3.1185,-3.1047,-3.0984,-3.0997,-3.1135,-3.1524,-3.2001,-3.2001,-3.2453,-3.3056,-3.2905,-3.3319,-3.3985,-3.455,-3.5044,-3.5596,-3.6194,-3.6405,-3.6405,-3.6405,-3.6405,-3.6405,-3.6405,-3.6405,-3.6681,-3.7739,-3.8002,-3.8316,-3.9446,-3.9697,-3.9697,-3.9697,-3.9697,-3.9697,-3.9697,-3.9697,-3.9697,-3.9697,-3.9697,-3.9697,-3.9697,-3.9697,-3.9697,-3.9697,-3.9697,-3.9697,-3.9697,-3.9697,-3.9697,-3.9697,-3.9697,-3.9697,-3.9697,-3.9697,-3.9697,-3.9697,-3.9697,-3.9697,-3.9697,-3.9697,-3.9697,-3.9697,-3.9697,-3.9697,-1.6362,-1.7011,-1.7624,-1.8191,-1.9145,-2.0382,-2.2122,-2.3622,-2.4969,-2.6099,-2.7647,-2.8753,-2.8638,-3.0749,-3.2333,-3.1705,-3.1032,-3.0417,-2.9891,-2.9756,-2.9726,-2.9756,-2.9696,-2.9651,-2.9651,-2.9651,-2.9636,-2.9606,-2.9636,-2.9651,-2.9651,-2.8822,-2.8488,-2.8834,-2.6971,-2.5661,-2.5099,-2.5464,-2.6578,-2.8354,-2.9665,-3.0862,-3.1944,-3.0949,-3.0814,-3.1296,-3.084,-3.0658,-3.062,-3.0093,-2.988,-2.993,-3.0457,-3.0972,-3.1436,-3.1436,-3.2127,-3.3006,-3.2453,-3.298,-3.3985,-3.455,-3.5044,-3.5596,-3.6194,-3.6405,-3.6405,-3.6405,-3.6405,-3.6405,-3.6405,-3.6405,-3.6681,-3.7739,-3.8002,-3.8316,-3.9446,-3.9697,-3.9697,-3.9697,-3.9697,-3.9697,-3.9697,-3.9697,-3.9697,-3.9697,-3.9697,-3.9697,-3.9697,-3.9697,-3.9697,-3.9697,-3.9697,-3.9697,-3.9697,-3.9697,-3.9697,-3.9697,-3.9697,-3.9697,-3.9697,-3.9697,-3.9697,-3.9697,-3.9697,-3.9697,-3.9697,-3.9697,-3.9697,-3.9697,-3.9697,-3.9697,-1.5456,-1.6096,-1.6785,-1.6635,-1.7426,-1.8514,-1.9481,-2.0988,-2.2533,-2.3699,-2.5374,-2.6737,-2.7178,-2.9104,-3.0552,-3.0313,-3.0073,-2.9834,-2.9636,-2.8858,-2.8319,-2.8319,-2.7944,-2.7664,-2.7664,-2.8442,-2.8771,-2.8349,-2.8697,-2.8757,-2.8349,-2.7902,-2.7711,-2.7823,-2.5957,-2.4338,-2.3028,-2.3735,-2.5075,-2.7037,-2.7729,-2.8831,-3.0304,-2.9945,-2.9751,-2.9742,-2.9984,-3.0093,-3.0068,-2.988,-2.9792,-2.9817,-3.0005,-3.0419,-3.0896,-3.0896,-3.1587,-3.2491,-3.2277,-3.2717,-3.3458,-3.401,-3.4324,-3.4663,-3.5567,-3.583,-3.5906,-3.6304,-3.6405,-3.6405,-3.6405,-3.6405,-3.6681,-3.7739,-3.8567,-3.9207,-3.9609,-3.9697,-3.9697,-3.9697,-3.9697,-3.9697,-3.9697,-3.9697,-3.9697,-3.9697,-3.9697,-3.9697,-3.9697,-3.9697,-3.9697,-3.9697,-3.9697,-3.9697,-3.9697,-3.9697,-3.9697,-3.9697,-3.9697,-3.9697,-3.9697,-3.9697,-3.9697,-3.9697,-3.9697,-3.9697,-3.9697,-3.9697,-3.9697,-3.9697,-3.9697,-3.9697,-1.5422,-1.5914,-1.64,-1.607,-1.6396,-1.7065,-1.8025,-1.9168,-2.0365,-2.1537,-2.3262,-2.4663,-2.4929,-2.6627,-2.8099,-2.8506,-2.8603,-2.8502,-2.8278,-2.7495,-2.6941,-2.6941,-2.6527,-2.6258,-2.6258,-2.7066,-2.741,-2.6971,-2.7335,-2.75,-2.7285,-2.6913,-2.6814,-2.6949,-2.5561,-2.4156,-2.275,-2.3185,-2.4062,-2.5376,-2.5928,-2.7012,-2.8495,-2.8814,-2.8959,-2.8925,-2.9541,-2.9792,-2.9792,-2.9792,-2.9792,-2.9792,-2.9792,-3.0131,-3.0595,-3.0407,-3.1135,-3.219,-3.2001,-3.2441,-3.3212,-3.3721,-3.3897,-3.4073,-3.4944,-3.5357,-3.5571,-3.5994,-3.6267,-3.6405,-3.6405,-3.6543,-3.6872,-3.7789,-3.873,-3.9471,-3.9647,-3.9697,-3.9697,-3.9697,-3.9697,-3.9697,-3.9697,-3.9697,-3.9697,-3.9697,-3.9697,-3.9697,-3.9697,-3.9697,-3.9697,-3.9697,-3.9697,-3.9697,-3.9697,-3.9697,-3.9697,-3.9697,-3.9697,-3.9697,-3.9697,-3.9697,-3.9697,-3.9697,-3.9697,-3.9697,-3.9697,-3.9697,-3.9697,-3.9697,-3.9697,-3.9697,0.0,0.0,0.0,-1.645,-1.6082,-1.6143,-1.7845,-1.8256,-1.859,-1.9714,-2.1361,-2.2441,-2.1849,-2.3289,-2.4966,-2.6236,-2.6512,-2.6333,-2.5689,-2.5576,-2.557,-2.5555,-2.557,-2.557,-2.5555,-2.5585,-2.5615,-2.5615,-2.5615,-2.5884,-2.6527,-2.5959,-2.5791,-2.622,-2.5812,-2.52,-2.4384,-2.3873,-2.3511,-2.3344,-2.4329,-2.5398,-2.6537,-2.7607,-2.8361,-2.89,-2.9528,-2.9792,-2.9792,-2.9792,-2.9792,-2.9792,-2.9792,-3.0118,-3.052,-2.9993,-3.0809,-3.2102,-3.1562,-3.2102,-3.3144,-3.3671,-3.3847,-3.396,-3.4525,-3.5019,-3.5458,-3.5495,-3.5931,-3.6392,-3.6405,-3.682,-3.7312,-3.7852,-3.8429,-3.9045,-3.9546,-3.9672,-3.9672,-3.9697,-3.9697,-3.9697,-3.9697,-3.9697,-3.9697,-3.9697,-3.9697,-3.9697,-3.9697,-3.9697,-3.9697,-3.9697,-3.9697,-3.9697,-3.9697,-3.9697,-3.9697,-3.9697,-3.9697,-3.9697,-3.9697,-3.9697,-3.9697,-3.9697,-3.9697,-3.9697,-3.9697,-3.9697,-3.9697,-3.9697,-3.9645,-3.9633,-1.5331,0.0,0.0,0.0,0.0,0.0,-1.6306,-1.7016,-1.7785,-1.8598,-1.9748,-2.0584,-2.057,-2.0953,-2.155,-2.2352,-2.44,-2.5809,-2.563,-2.5173,-2.4694,-2.4208,-2.4575,-2.4679,-2.4208,-2.5031,-2.5615,-2.5615,-2.5615,-2.5689,-2.5869,-2.5704,-2.5416,-2.5009,-2.5337,-2.4915,-2.3615,-2.3949,-2.419,-2.4394,-2.4678,-2.5398,-2.6537,-2.7607,-2.8185,-2.8386,-2.9365,-2.9792,-2.9792,-2.9792,-2.9792,-2.9792,-2.9792,-2.988,-2.9993,-2.9842,-3.057,-3.1537,-3.1009,-3.1549,-3.2478,-3.2629,-3.2679,-3.2855,-3.3834,-3.4236,-3.4525,-3.527,-3.5608,-3.5868,-3.6304,-3.682,-3.7224,-3.7374,-3.7839,-3.8404,-3.8981,-3.9094,-3.922,-3.9622,-3.9697,-3.9697,-3.9697,-3.9697,-3.9697,-3.9697,-3.9697,-3.9697,-3.9697,-3.9697,-3.9697,-3.9697,-3.9697,-3.9697,-3.9697,-3.9697,-3.9697,-3.9697,-3.9697,-3.9697,-3.9697,-3.9697,-3.9697,-3.9697,-3.9697,-3.9697,-3.9697,-3.9697,-3.9697,-3.9697,-3.8635,-3.753,0.0,0.0,0.0,-1.5718,0.0,0.0,-1.5693,-1.6192,-1.6729,-1.7063,-1.7943,-1.8632,-1.8528,-1.8889,-1.9342,-1.974,-2.1787,-2.3444,-2.3917,-2.364,-2.3266,-2.2847,-2.3161,-2.3355,-2.3236,-2.3924,-2.4492,-2.4747,-2.4777,-2.4777,-2.4777,-2.53,-2.5277,-2.4566,-2.5467,-2.5389,-2.4245,-2.4569,-2.471,-2.4571,-2.4722,-2.5159,-2.5858,-2.7155,-2.7896,-2.816,-2.9051,-2.9566,-2.9792,-2.9792,-2.9792,-2.9792,-2.9792,-2.9792,-2.9792,-2.9792,-3.0331,-3.1022,-3.0721,-3.1173,-3.1901,-3.2139,-3.2215,-3.2378,-3.3282,-3.3721,-3.4035,-3.4675,-3.5144,-3.5621,-3.6267,-3.6644,-3.6945,-3.7123,-3.7425,-3.7814,-3.8391,-3.8693,-3.9032,-3.9584,-3.9697,-3.9697,-3.9697,-3.9697,-3.9697,-3.9697,-3.9697,-3.9697,-3.9697,-3.9697,-3.9697,-3.9697,-3.9697,-3.9697,-3.9697,-3.9697,-3.9697,-3.9697,-3.9697,-3.9697,-3.9697,-3.9697,-3.9697,-3.9697,-3.9697,-3.9697,-3.9697,-3.9697,-3.9362,-3.8739,-3.7263,-3.6108,0.0,0.0,0.0,0.0,-1.6107,0.0,-1.5693,-1.5731,-1.5713,-1.5541,-1.6337,-1.691,-1.6368,-1.7167,-1.7955,-1.8147,-1.9084,-2.0229,-2.1436,-2.1655,-2.1665,-2.1605,-2.165,-2.1889,-2.2433,-2.2553,-2.2838,-2.3445,-2.3565,-2.3595,-2.3595,-2.4732,-2.5098,-2.4515,-2.5794,-2.611,-2.5274,-2.5351,-2.502,-2.4265,-2.462,-2.4825,-2.4926,-2.6553,-2.7557,-2.8047,-2.8624,-2.9176,-2.9704,-2.9767,-2.9792,-2.9792,-2.9792,-2.9792,-2.9792,-2.9792,-3.0143,-3.0608,-3.0545,-3.0871,-3.1386,-3.1876,-3.2077,-3.2227,-3.2805,-3.337,-3.3822,-3.3884,-3.4738,-3.5683,-3.6157,-3.6367,-3.6531,-3.6973,-3.7098,-3.7249,-3.7801,-3.8366,-3.8944,-3.9496,-3.9647,-3.9697,-3.9697,-3.9697,-3.9697,-3.9697,-3.9697,-3.9697,-3.9697,-3.9697,-3.9697,-3.9697,-3.9697,-3.9697,-3.9697,-3.9697,-3.9697,-3.9697,-3.9697,-3.9697,-3.9697,-3.9697,-3.9697,-3.9697,-3.9697,-3.9697,-3.9697,-3.9697,-3.8856,-3.724,-3.589,-3.5123,0.0,0.0,0.0,-1.65,-1.6107,0.0,-1.5693,-1.5948,-1.6046,-1.5583,-1.6268,-1.6779,-1.6241,-1.6409,-1.681,-1.7256,-1.7611,-1.859,-2.0746,-2.144,-2.15,-2.0957,-2.138,-2.1545,-2.1141,-2.1575,-2.2179,-2.2838,-2.3325,-2.3595,-2.3595,-2.3849,-2.3924,-2.3804,-2.5106,-2.515,-2.383,-2.4872,-2.4951,-2.4075,-2.457,-2.5046,-2.5485,-2.6716,-2.7379,-2.7494,-2.8499,-2.895,-2.9101,-2.9603,-2.9792,-2.9792,-2.9792,-2.9792,-2.9792,-2.9792,-3.0143,-3.0557,-3.0105,-3.0319,-3.0783,-3.0896,-3.121,-3.165,-3.2215,-3.278,-3.3332,-3.3771,-3.5014,-3.6119,-3.5793,-3.6031,-3.643,-3.6543,-3.6568,-3.6719,-3.7224,-3.7776,-3.8341,-3.8919,-3.9383,-3.9697,-3.9697,-3.9697,-3.9697,-3.9697,-3.9697,-3.9697,-3.9697,-3.9697,-3.9697,-3.9697,-3.9697,-3.9697,-3.9697,-3.9697,-3.9697,-3.9697,-3.9697,-3.9697,-3.9697,-3.9697,-3.9697,-3.9697,-3.9697,-3.9697,-3.9697,-3.9697,-3.8307,-3.5727,-3.5453,-3.4035,-1.65,-1.65,-1.65,-1.65,-1.6287,0.0,0.0,-1.5653,-1.5657,-1.586,-1.5779,-1.578,-1.6056,-1.6142,-1.6227,-1.6286,-1.6639,-1.752,-1.9272,-1.9971,-2.0277,-2.021,-2.0498,-2.0692,-2.0703,-2.1006,-2.1485,-2.2164,-2.2793,-2.3152,-2.3152,-2.343,-2.3595,-2.3595,-2.4911,-2.5072,-2.3955,-2.4911,-2.4986,-2.4142,-2.433,-2.4695,-2.5234,-2.6063,-2.6753,-2.7331,-2.816,-2.8637,-2.8938,-2.9553,-2.9792,-2.9792,-2.9792,-2.9792,-2.9792,-2.9792,-2.9967,-3.0168,-2.9892,-2.998,-3.0256,-3.052,-3.0972,-3.1499,-3.2051,-3.2616,-3.3257,-3.4073,-3.4901,-3.5604,-3.5881,-3.6157,-3.6405,-3.6405,-3.6405,-3.648,-3.6757,-3.7211,-3.7764,-3.8329,-3.8894,-3.9371,-3.9647,-3.9697,-3.9697,-3.9697,-3.9697,-3.9697,-3.9697,-3.9697,-3.9697,-3.9697,-3.9697,-3.9697,-3.9697,-3.9697,-3.9697,-3.9697,-3.9697,-3.9697,-3.9697,-3.9697,-3.9697,-3.9697,-3.9697,-3.9697,-3.9697,-3.9697,-3.8582,-3.6379,-3.4902,-3.3417,-1.65,-1.65,-1.65,-1.65,-1.65,-1.635,0.0,0.0,0.0,-1.6001,-1.5421,-1.5096,-1.6076,-1.6278,-1.6177,-1.5829,-1.6345,-1.7051,-1.7765,-1.8356,-1.895,-1.9624,-1.9588,-1.9765,-2.0453,-2.0613,-2.0912,-2.147,-2.2134,-2.2568,-2.2688,-2.3167,-2.3475,-2.3595,-2.4911,-2.5254,-2.4507,-2.5098,-2.5035,-2.4305,-2.4114,-2.4293,-2.4813,-2.536,-2.6151,-2.719,-2.7708,-2.826,-2.8775,-2.939,-2.9691,-2.9792,-2.9792,-2.9792,-2.9792,-2.9792,-2.9792,-2.9792,-2.9792,-2.9792,-2.9867,-3.0319,-3.0884,-3.1512,-3.2177,-3.278,-3.3395,-3.4186,-3.4638,-3.5064,-3.5843,-3.6254,-3.6405,-3.6405,-3.6405,-3.6405,-3.6405,-3.6845,-3.7349,-3.7902,-3.8254,-3.8714,-3.9545,-3.9697,-3.9697,-3.9697,-3.9697,-3.9697,-3.9697,-3.9697,-3.9697,-3.9697,-3.9697,-3.9697,-3.9697,-3.9697,-3.9697,-3.9697,-3.9697,-3.9697,-3.9697,-3.9697,-3.9581,-3.9297,-3.9297,-3.9141,-3.8868,-3.9141,-3.8635,-3.7465,-3.5046,-3.362,-1.65,-1.65,-1.65,-1.65,-1.65,-1.635,-1.5819,0.0,-1.6042,-1.567,0.0,-1.6099,-1.6704,0.0,0.0,-1.6768,-1.7399,-1.7701,-1.7125,-1.7591,-1.8437,-1.9579,-1.9166,-1.9076,-1.9753,-2.0363,-2.0733,-2.0808,-2.144,-2.2054,-2.2658,-2.2763,-2.3062,-2.358,-2.4911,-2.5254,-2.4507,-2.5098,-2.5035,-2.4305,-2.4114,-2.4293,-2.4813,-2.536,-2.595,-2.6612,-2.7165,-2.7695,-2.8247,-2.8762,-2.9327,-2.9792,-2.9792,-2.9792,-2.9792,-2.9792,-2.9792,-2.9792,-2.9792,-2.9792,-2.9804,-2.9867,-3.057,-3.1587,-3.2654,-3.337,-3.3734,-3.337,-3.4324,-3.532,-3.5002,-3.5629,-3.6405,-3.6405,-3.6405,-3.6405,-3.6405,-3.6845,-3.7349,-3.7902,-3.7447,-3.756,-3.9378,-3.9697,-3.9697,-3.9697,-3.9697,-3.9697,-3.9697,-3.9697,-3.9697,-3.9697,-3.9697,-3.9697,-3.9697,-3.9697,-3.9697,-3.9697,-3.9697,-3.9697,-3.9697,-3.9697,-3.9077,-3.7796,-3.7743,-3.7091,-3.5793,-3.7091,-3.769,-3.7465,-3.7133,-3.5595,-1.65,-1.65,-1.65,-1.65,-1.65,-1.6437,-1.622,-1.6063,-1.6057,-1.6454,0.0,0.0,0.0,0.0,0.0,0.0,-1.6912,-1.7079,-1.7437,-1.7116,-1.7408,-1.8934,-1.8867,-1.8957,-1.9633,-1.9944,-2.0124,-2.0124,-2.0737,-2.1246,-2.1515,-2.2283,-2.2987,-2.358,-2.4911,-2.5254,-2.4507,-2.5098,-2.483,-2.3721,-2.3573,-2.3791,-2.4356,-2.4895,-2.5435,-2.6025,-2.7231,-2.7896,-2.8172,-2.9063,-2.9578,-2.9792,-2.9792,-2.9792,-2.9792,-2.9792,-2.9792,-2.9792,-2.9792,-2.9993,-3.0369,-3.0997,-3.1499,-3.2014,-3.283,-3.3244,-3.3432,-3.3533,-3.406,-3.4675,-3.5044,-3.5495,-3.5968,-3.6329,-3.6405,-3.6405,-3.6405,-3.5948,-3.6064,-3.7679,-3.7077,-3.7031,-3.9315,-3.8961,-3.8687,-3.9581,-3.9697,-3.9697,-3.9697,-3.9697,-3.9362,-3.8518,-3.9193,-3.9362,-3.8518,-3.9193,-3.9697,-3.9697,-3.9697,-3.9697,-3.9697,-3.9697,-3.9413,-3.8804,-3.7967,-3.7198,-3.6595,-3.7198,-3.7518,-3.7518,-3.7518,-3.6865,-1.6303,-1.6259,-1.6259,-1.6259,-1.6259,-1.6293,-1.6457,-1.6208,-1.6144,-1.6923,-1.6373,0.0,0.0,0.0,0.0,0.0,0.0,-1.6824,-1.7487,-1.6826,-1.693,-1.8758,-1.8972,-1.9166,-1.9648,-1.9708,-1.9708,-1.9708,-2.0154,-2.0494,-2.0688,-2.1629,-2.2437,-2.3074,-2.4202,-2.4626,-2.4297,-2.4661,-2.4448,-2.3603,-2.3249,-2.3484,-2.4243,-2.4612,-2.5197,-2.5912,-2.7281,-2.7959,-2.8185,-2.9151,-2.9641,-2.9792,-2.9792,-2.9792,-2.9792,-2.9792,-2.9792,-2.9792,-2.9792,-3.0156,-3.0796,-3.1863,-3.2215,-3.2328,-3.2905,-3.3124,-3.3156,-3.3558,-3.3884,-3.4311,-3.5069,-3.5495,-3.5868,-3.6317,-3.6405,-3.6405,-3.6405,-3.5367,-3.5052,-3.7343,-3.6156,-3.582,-3.8924,-3.8693,-3.8465,-3.953,-3.9697,-3.9697,-3.9697,-3.9697,-3.9129,-3.769,-3.8465,-3.853,-3.7026,-3.8243,-3.9245,-3.9697,-3.9697,-3.9697,-3.9697,-3.9697,-3.953,-3.9077,-3.8019,-3.7079,-3.6314,-3.6703,-3.6703,-3.6314,-3.753,-3.7914,-1.5798,-1.5632,-1.5632,-1.5632,-1.5632,-1.5776,-1.638,-1.6488,-1.6475,-1.6509,-1.6484,-1.6651,-1.7224,0.0,0.0,0.0,0.0,0.0,0.0,-1.6711,-1.7412,-1.942,-1.9678,-1.9678,-1.9708,-1.9708,-1.9708,-1.9708,-1.9723,-2.0022,-2.0658,-2.0741,-2.1075,-2.1737,-2.2437,-2.3094,-2.3721,-2.3564,-2.3782,-2.4352,-2.3499,-2.3684,-2.4763,-2.4775,-2.541,-2.6499,-2.709,-2.7607,-2.8147,-2.8687,-2.9289,-2.9792,-2.9792,-2.9792,-2.9792,-2.9792,-2.9792,-2.9792,-2.9792,-3.0156,-3.0796,-3.1863,-3.2215,-3.2328,-3.2905,-3.3124,-3.3124,-3.3106,-3.3872,-3.4655,-3.4738,-3.5542,-3.6392,-3.6405,-3.6405,-3.6405,-3.6405,-3.5367,-3.4944,-3.6844,-3.4251,-3.3275,-3.8097,-3.9346,-3.9645,-3.9685,-3.9697,-3.9697,-3.9697,-3.9697,-3.9129,-3.769,-3.7518,-3.6984,-3.5508,-3.6703,-3.819,-3.9633,-3.9697,-3.9697,-3.9697,-3.9697,-3.9025,-3.7571,-3.7518,-3.6097,-3.3237,-3.4681,-3.4626,-3.335,-3.7648,-3.8856,-1.5163,-1.5298,-1.561,-1.561,-1.5908,-1.6238,-1.6445,-1.65,-1.65,-1.65,-1.65,-1.6659,-1.7188,0.0,0.0,0.0,0.0,0.0,0.0,-1.8132,-1.8805,-1.9133,-1.9479,-1.9708,-1.9708,-1.9708,-1.9708,-1.9708,-1.9708,-1.9813,-2.0019,-2.0458,-2.1004,-2.1679,-2.2362,-2.2797,-2.3041,-2.3272,-2.3294,-2.3085,-2.3509,-2.3904,-2.4305,-2.5008,-2.5536,-2.5963,-2.7268,-2.7934,-2.8185,-2.9114,-2.9616,-2.9792,-2.9792,-2.9792,-2.9792,-2.9792,-2.9792,-2.9892,-3.0595,-3.0972,-3.1311,-3.2416,-3.278,-3.2817,-3.3061,-3.3124,-3.3124,-3.3124,-3.3608,-3.4261,-3.4625,-3.5265,-3.5918,-3.6329,-3.6405,-3.6405,-3.6405,-3.4605,-3.3852,-3.6661,-3.502,-3.4102,-3.6972,-3.7891,-3.8243,-3.8243,-3.9077,-3.9362,-3.836,-3.9077,-3.8752,-3.6337,-3.7808,-3.7979,-3.5508,-3.7542,-3.9193,-3.9697,-3.9697,-3.9697,-3.9697,-3.9697,-3.9465,-3.8973,-3.8019,-3.7026,-3.5988,-3.5508,-3.5013,-3.457,-3.612,-3.6499,-1.4606,-1.4664,-1.5016,-1.5231,-1.5577,-1.5976,-1.6402,-1.65,-1.65,-1.65,-1.65,-1.6616,-1.6951,0.0,0.0,0.0,0.0,0.0,0.0,-1.8852,-1.9423,-1.8646,-1.9075,-1.9424,-1.9424,-1.9424,-1.9479,-1.969,-1.9708,-1.9708,-1.9708,-1.9931,-2.0359,-2.1009,-2.1254,-2.1587,-2.2013,-2.2498,-2.2633,-2.2416,-2.3505,-2.4104,-2.4318,-2.5197,-2.5711,-2.6021,-2.7469,-2.8109,-2.8197,-2.9327,-2.9792,-2.9792,-2.9792,-2.9792,-2.9792,-2.9792,-2.9792,-2.9942,-3.1022,-3.1386,-3.1574,-3.2747,-3.3124,-3.3124,-3.3124,-3.3124,-3.3124,-3.3124,-3.3608,-3.4274,-3.4625,-3.5278,-3.5931,-3.6329,-3.6405,-3.6405,-3.6405,-3.4382,-3.3403,-3.6354,-3.5031,-3.426,-3.6756,-3.6896,-3.6703,-3.6703,-3.7542,-3.782,-3.6823,-3.7542,-3.7382,-3.5508,-3.6996,-3.7595,-3.6217,-3.7808,-3.9129,-3.9697,-3.9697,-3.9697,-3.9697,-3.9697,-3.9873,-4.0275,-3.8936,-3.7922,-3.7282,-3.5952,-3.4748,-3.3754,-3.3754,-3.3754]},{"header":{"parameterUnit":"m.s-1","parameterCategory":1,"la1":30.6,"la2":29.2853,"lo1":-89.7004,"lo2":-87.6739,"dy":0.0162,"dx":0.0183,"nx":112,"ny":82,"refTime":"2023-09-02T12:00:00:Z","depth":0,"parameterNumber":3,"parameterNumberName":"V-component_of_WINDS"},"data":[0.0,0.0,0.0,0.0,0.0,0.0,0.0,0.0,0.0,0.0,0.0,0.0,0.0,0.0,0.0,0.0,0.0,0.0,0.0,0.0,0.0,0.0,0.0,0.0,0.0,0.0,0.0,0.0,0.0,0.0,0.0,0.0,0.0,0.0,0.0,0.0,0.0,0.0,0.0,0.0,0.0,0.0,0.0,0.0,0.0,0.0,0.0,0.0,0.0,0.0,0.0,0.0,0.0,0.0,0.0,0.0,0.0,0.0,0.0,0.0,0.0,0.0,0.0,0.0,0.0,0.0,0.0,0.0,0.0,0.0,0.0,0.0,0.0,0.0,0.0,0.0,0.0,0.0,0.0,0.0,0.0,0.0,0.0,0.0,0.0,0.0,0.0,0.0,0.0,0.0,2.8304,3.0176,3.2841,3.347,3.0881,2.9714,2.7671,2.427,0.0,0.0,0.0,0.0,0.0,0.0,0.0,0.0,0.0,0.0,0.0,0.0,0.0,0.0,0.0,0.0,0.0,0.0,0.0,0.0,0.0,0.0,0.0,0.0,0.0,0.0,0.0,0.0,0.0,0.0,0.0,0.0,0.0,0.0,0.0,0.0,0.0,0.0,0.0,0.0,0.0,0.0,0.0,0.0,0.0,0.0,0.0,0.0,0.0,0.0,0.0,0.0,0.0,0.0,0.0,0.0,0.0,0.0,0.0,0.0,0.0,0.0,0.0,0.0,0.0,0.0,0.0,0.0,0.0,0.0,0.0,0.0,0.0,0.0,0.0,0.0,0.0,0.0,0.0,0.0,0.0,0.0,0.0,0.0,0.0,0.0,0.0,0.0,0.0,0.0,0.0,0.0,0.0,0.0,0.0,0.0,0.0,0.0,0.0,0.0,0.0,0.0,0.0,0.0,2.9172,3.332,3.4204,3.3634,3.1525,2.8712,2.6388,2.4835,0.0,0.0,0.0,0.0,0.0,0.0,0.0,0.0,0.0,0.0,0.0,0.0,0.0,0.0,0.0,0.0,0.0,0.0,0.0,0.0,0.0,0.0,0.0,0.0,0.0,0.0,0.0,0.0,0.0,0.0,0.0,0.0,0.0,0.0,0.0,0.0,0.0,0.0,0.0,0.0,0.0,0.0,0.0,0.0,0.0,0.0,0.0,0.0,0.0,0.0,0.0,0.0,0.0,0.0,0.0,0.0,0.0,0.0,0.0,0.0,0.0,0.0,0.0,0.0,0.0,0.0,0.0,0.0,0.0,0.0,0.0,0.0,0.0,0.0,0.0,0.0,0.0,0.0,0.0,0.0,0.0,0.0,0.0,0.0,0.0,0.0,0.0,0.0,0.0,0.0,0.0,0.0,0.0,0.0,0.0,0.0,0.0,0.0,0.0,0.0,0.0,0.0,0.0,2.8547,3.0176,3.4084,3.4503,3.3529,3.1152,2.8278,2.6123,2.4962,2.3276,0.0,0.0,0.0,0.0,0.0,0.0,0.0,0.0,0.0,0.0,0.0,0.0,0.0,0.0,0.0,0.0,0.0,0.0,0.0,0.0,0.0,0.0,0.0,0.0,0.0,0.0,0.0,0.0,0.0,0.0,0.0,0.0,0.0,0.0,0.0,0.0,0.0,0.0,0.0,0.0,0.0,0.0,0.0,0.0,0.0,0.0,0.0,0.0,0.0,0.0,0.0,0.0,0.0,0.0,0.0,0.0,0.0,0.0,0.0,0.0,0.0,0.0,0.0,0.0,0.0,0.0,0.0,0.0,0.0,0.0,0.0,0.0,0.0,0.0,0.0,0.0,0.0,0.0,0.0,0.0,0.0,0.0,0.0,0.0,0.0,0.0,0.0,0.0,0.0,0.0,0.0,0.0,0.0,0.0,0.0,0.0,0.0,0.0,0.0,0.0,0.0,0.0,3.0597,3.1389,3.4204,3.4234,3.3066,3.0702,2.7814,2.5788,2.4946,2.2456,0.0,0.0,0.0,0.0,0.0,0.0,0.0,0.0,0.0,0.0,0.0,0.0,0.0,0.0,0.0,0.0,0.0,0.0,0.0,0.0,0.0,0.0,0.0,0.0,0.0,0.0,0.0,0.0,0.0,0.0,0.0,0.0,0.0,0.0,0.0,0.0,0.0,0.0,0.0,0.0,0.0,0.0,0.0,0.0,0.0,0.0,0.0,0.0,0.0,0.0,0.0,0.0,0.0,0.0,0.0,0.0,0.0,0.0,0.0,0.0,0.0,0.0,0.0,0.0,0.0,0.0,0.0,0.0,0.0,0.0,0.0,0.0,0.0,0.0,0.0,0.0,0.0,0.0,0.0,0.0,0.0,0.0,0.0,0.0,0.0,0.0,0.0,0.0,0.0,0.0,0.0,0.0,0.0,0.0,0.0,0.0,0.0,0.0,0.0,0.0,0.0,0.0,3.1225,3.2856,3.4354,3.338,3.2063,3.0627,2.6951,2.4778,2.4883,2.2456,0.0,0.0,0.0,0.0,0.0,0.0,0.0,0.0,0.0,0.0,0.0,0.0,0.0,0.0,0.0,0.0,0.0,0.0,0.0,0.0,0.0,0.0,0.0,0.0,0.0,0.0,0.0,0.0,0.0,0.0,0.0,0.0,0.0,0.0,0.0,0.0,0.0,0.0,0.0,0.0,0.0,0.0,0.0,0.0,0.0,0.0,0.0,0.0,0.0,0.0,0.0,0.0,0.0,0.0,0.0,0.0,0.0,0.0,0.0,0.0,0.0,0.0,0.0,0.0,0.0,0.0,0.0,0.0,0.0,0.0,0.0,0.0,0.0,0.0,0.0,0.0,0.0,0.0,0.0,0.0,0.0,0.0,0.0,0.0,0.0,0.0,0.0,0.0,0.0,0.0,0.0,0.0,0.0,0.0,0.0,0.0,0.0,0.0,0.0,0.0,0.0,0.0,3.0941,3.2378,3.3724,3.3051,3.1809,3.0073,2.6652,2.4883,2.5543,0.0,0.0,0.0,0.0,0.0,0.0,0.0,0.0,0.0,0.0,0.0,0.0,0.0,0.0,0.0,0.0,0.0,0.0,0.0,0.0,0.0,0.0,0.0,0.0,0.0,0.0,0.0,0.0,0.0,0.0,0.0,0.0,0.0,0.0,0.0,0.0,0.0,0.0,0.0,0.0,0.0,0.0,0.0,0.0,0.0,0.0,0.0,0.0,0.0,0.0,0.0,0.0,0.0,0.0,0.0,0.0,0.0,0.0,0.0,0.0,0.0,0.0,0.0,0.0,0.0,0.0,0.0,0.0,0.0,0.0,0.0,0.0,0.0,0.0,0.0,0.0,0.0,0.0,0.0,0.0,0.0,0.0,0.0,0.0,0.0,0.0,0.0,0.0,0.0,0.0,0.0,0.0,0.0,0.0,0.0,0.0,0.0,0.0,0.0,0.0,0.0,0.0,2.9262,3.1091,3.2587,3.3694,3.3036,3.1794,3.0028,2.6623,2.4898,2.5607,0.0,0.0,0.0,0.0,0.0,0.0,0.0,0.0,0.0,0.0,0.0,0.0,0.0,0.0,0.0,0.0,0.0,0.0,0.0,0.0,0.0,0.0,0.0,0.0,0.0,0.0,0.0,0.0,0.0,0.0,0.0,0.0,0.0,0.0,0.0,0.0,0.0,0.0,0.0,0.0,0.0,0.0,0.0,0.0,0.0,0.0,0.0,0.0,0.0,0.0,0.0,0.0,0.0,0.0,0.0,0.0,0.0,0.0,0.0,0.0,0.0,0.0,0.0,0.0,0.0,0.0,0.0,0.0,0.0,0.0,0.0,0.0,0.0,0.0,0.0,0.0,0.0,0.0,0.0,0.0,0.0,0.0,0.0,0.0,0.0,0.0,0.0,0.0,0.0,0.0,0.0,0.0,0.0,0.0,0.0,0.0,0.0,0.0,0.0,0.0,0.0,0.0,2.9442,3.1869,3.3754,3.4444,3.3305,3.1973,3.0612,2.6862,2.4687,0.0,0.0,0.0,0.0,0.0,0.0,0.0,0.0,0.0,0.0,0.0,0.0,0.0,0.0,0.0,0.0,0.0,0.0,0.0,0.0,0.0,0.0,0.0,0.0,0.0,0.0,0.0,0.0,0.0,0.0,0.0,0.0,0.0,0.0,0.0,0.0,0.0,0.0,0.0,0.0,0.0,0.0,0.0,0.0,0.0,0.0,0.0,0.0,0.0,0.0,0.0,0.0,0.0,0.0,0.0,0.0,0.0,0.0,0.0,0.0,0.0,0.0,0.0,0.0,0.0,0.0,0.0,0.0,0.0,0.0,0.0,0.0,0.0,0.0,0.0,0.0,0.0,0.0,0.0,0.0,0.0,0.0,0.0,0.0,0.0,0.0,0.0,0.0,0.0,0.0,0.0,0.0,0.0,0.0,0.0,0.0,0.0,0.0,0.0,0.0,0.0,0.0,0.0,2.9442,3.1869,3.3754,3.4444,3.3305,3.1973,3.0612,2.6862,2.5148,2.6444,0.0,0.0,0.0,0.0,0.0,0.0,0.0,0.0,0.0,0.0,0.0,0.0,0.0,0.0,0.0,0.0,0.0,0.0,0.0,0.0,0.0,0.0,0.0,0.0,0.0,0.0,0.0,0.0,0.0,0.0,0.0,0.0,0.0,0.0,0.0,0.0,0.0,0.0,0.0,0.0,0.0,0.0,0.0,0.0,0.0,0.0,0.0,0.0,0.0,0.0,0.0,0.0,0.0,0.0,0.0,0.0,0.0,0.0,0.0,0.0,0.0,0.0,0.0,0.0,0.0,0.0,0.0,0.0,0.0,0.0,0.0,0.0,0.0,0.0,0.0,0.0,0.0,0.0,0.0,0.0,0.0,0.0,0.0,0.0,0.0,0.0,0.0,0.0,0.0,0.0,0.0,0.0,0.0,0.0,0.0,0.0,0.0,0.0,0.0,0.0,0.0,0.0,2.9771,3.2018,3.3858,3.4786,3.3694,3.2362,3.1002,2.7265,2.5303,2.5984,0.0,0.0,0.0,0.0,0.0,0.0,0.0,0.0,0.0,0.0,0.0,0.0,0.0,0.0,0.0,0.0,0.0,0.0,0.0,0.0,0.0,0.0,0.0,0.0,0.0,0.0,0.0,0.0,0.0,0.0,0.0,0.0,0.0,0.0,0.0,0.0,0.0,0.0,0.0,0.0,0.0,0.0,0.0,0.0,0.0,0.0,0.0,0.0,0.0,0.0,0.0,0.0,0.0,0.0,0.0,0.0,0.0,0.0,0.0,0.0,0.0,0.0,0.0,0.0,0.0,0.0,0.0,0.0,0.0,0.0,0.0,0.0,0.0,0.0,0.0,0.0,0.0,0.0,0.0,0.0,0.0,0.0,0.0,0.0,0.0,0.0,0.0,0.0,0.0,0.0,0.0,0.0,0.0,0.0,0.0,0.0,0.0,0.0,0.0,0.0,0.0,0.0,3.0253,3.2258,3.4008,3.537,3.4292,3.2961,3.1615,2.7923,2.5327,2.4461,0.0,0.0,0.0,0.0,0.0,0.0,0.0,0.0,0.0,0.0,0.0,0.0,0.0,0.0,0.0,0.0,0.0,0.0,0.0,0.0,0.0,0.0,0.0,0.0,0.0,0.0,0.0,0.0,0.0,0.0,0.0,0.0,0.0,0.0,0.0,0.0,0.0,0.0,0.0,0.0,0.0,0.0,0.0,0.0,0.0,0.0,0.0,0.0,0.0,0.0,0.0,0.0,0.0,0.0,0.0,0.0,0.0,0.0,0.0,0.0,3.282,3.2123,0.0,0.0,0.0,0.0,0.0,0.0,0.0,0.0,0.0,0.0,0.0,0.0,0.0,0.0,0.0,0.0,0.0,0.0,0.0,0.0,0.0,0.0,0.0,0.0,0.0,0.0,0.0,0.0,0.0,0.0,0.0,0.0,0.0,0.0,0.0,0.0,0.0,0.0,0.0,0.0,3.0328,3.2258,3.4008,3.537,3.4292,3.2961,3.1615,2.8368,2.6029,2.5213,2.274,0.0,0.0,0.0,0.0,0.0,0.0,0.0,0.0,0.0,0.0,0.0,0.0,0.0,0.0,0.0,0.0,0.0,0.0,0.0,0.0,0.0,0.0,0.0,0.0,0.0,0.0,0.0,0.0,0.0,0.0,0.0,0.0,0.0,0.0,0.0,0.0,0.0,0.0,0.0,0.0,0.0,0.0,0.0,0.0,0.0,0.0,0.0,0.0,0.0,0.0,0.0,0.0,0.0,0.0,0.0,0.0,0.0,0.0,0.0,3.5533,3.4864,0.0,0.0,0.0,0.0,0.0,0.0,0.0,0.0,0.0,0.0,0.0,0.0,0.0,0.0,0.0,0.0,0.0,0.0,0.0,0.0,0.0,0.0,0.0,0.0,0.0,0.0,0.0,0.0,0.0,0.0,0.0,0.0,0.0,0.0,0.0,0.0,0.0,0.0,0.0,0.0,3.0763,3.2467,3.4008,3.537,3.4292,3.3095,3.2064,2.8966,2.6642,2.556,2.3269,0.0,0.0,0.0,0.0,0.0,0.0,0.0,0.0,0.0,0.0,0.0,0.0,0.0,0.0,0.0,0.0,0.0,0.0,0.0,0.0,0.0,0.0,0.0,0.0,0.0,0.0,0.0,0.0,0.0,0.0,0.0,0.0,0.0,0.0,0.0,0.0,0.0,0.0,0.0,0.0,0.0,0.0,0.0,0.0,0.0,0.0,0.0,0.0,0.0,0.0,0.0,0.0,0.0,4.0541,4.1035,4.0245,4.0288,4.0002,3.939,3.9301,3.8433,3.7002,3.628,0.0,0.0,0.0,0.0,0.0,0.0,0.0,0.0,0.0,0.0,0.0,0.0,0.0,0.0,0.0,0.0,0.0,0.0,0.0,0.0,0.0,0.0,3.4719,3.4879,3.5575,3.5162,3.1368,0.0,0.0,0.0,0.0,0.0,0.0,0.0,0.0,0.0,0.0,0.0,3.1286,3.2781,3.4143,3.537,3.4397,3.335,3.2587,2.9789,2.745,2.5869,2.4044,2.2733,0.0,0.0,0.0,0.0,0.0,0.0,0.0,0.0,0.0,0.0,0.0,0.0,0.0,0.0,0.0,0.0,0.0,0.0,0.0,0.0,0.0,0.0,0.0,0.0,0.0,0.0,0.0,0.0,0.0,0.0,0.0,0.0,2.8096,2.8663,0.0,0.0,0.0,0.0,0.0,0.0,0.0,0.0,0.0,0.0,0.0,0.0,0.0,3.9123,4.1238,4.4164,4.4953,4.3693,4.6874,4.6953,4.4323,4.4674,4.4743,4.4659,4.5235,0.0,3.8048,3.7427,0.0,0.0,0.0,0.0,0.0,0.0,0.0,0.0,0.0,0.0,0.0,0.0,0.0,0.0,0.0,0.0,0.0,0.0,0.0,0.0,0.0,0.0,3.9283,3.7458,3.7982,3.8277,3.6047,3.3849,3.1694,2.9565,2.8327,2.7388,0.0,0.0,0.0,0.0,0.0,0.0,3.1391,3.3185,3.4668,3.5429,3.4816,3.3844,3.2617,3.1046,2.9071,2.6617,2.5151,2.4036,2.337,2.3289,0.0,0.0,0.0,0.0,0.0,0.0,0.0,0.0,0.0,0.0,0.0,0.0,0.0,0.0,0.0,0.0,0.0,0.0,0.0,0.0,0.0,0.0,0.0,0.0,0.0,0.0,0.0,0.0,0.0,2.9042,3.0125,2.9062,3.0871,3.1523,0.0,0.0,0.0,0.0,0.0,0.0,0.0,0.0,0.0,4.0691,4.2068,4.334,4.4524,4.7289,4.7964,4.6585,4.8524,4.8381,4.6372,4.691,4.716,4.7194,4.821,4.7076,4.4327,4.2357,4.0685,3.9057,0.0,0.0,0.0,0.0,3.552,3.5463,3.7392,3.7242,3.6277,3.688,0.0,0.0,0.0,0.0,0.0,0.0,0.0,3.6153,3.6586,3.8857,4.1052,4.0823,4.1489,4.1833,4.0606,3.8257,3.537,3.1898,3.1332,3.0827,2.9094,2.874,0.0,0.0,0.0,3.1436,3.2497,3.3709,3.4773,3.5429,3.4891,3.4279,3.3664,3.2063,3.0404,2.8891,2.6871,2.5435,2.4762,2.3936,2.3502,0.0,0.0,0.0,0.0,0.0,0.0,0.0,0.0,0.0,0.0,0.0,0.0,0.0,0.0,0.0,0.0,0.0,0.0,0.0,0.0,0.0,0.0,0.0,0.0,0.0,0.0,0.0,0.0,3.1135,3.2109,2.9772,3.3086,3.4325,0.0,0.0,0.0,0.0,0.0,0.0,4.0612,4.1523,4.2832,4.4665,4.5763,4.6645,4.7347,4.9493,4.9935,4.8701,4.9457,4.9157,4.7966,4.8354,4.8716,4.909,5.0016,5.0316,4.9809,4.6702,4.4419,4.2524,3.9751,3.8975,3.9343,3.886,3.8185,3.7868,4.0304,3.9563,3.7653,3.8283,3.7863,3.6716,3.4368,0.0,0.0,0.0,0.0,3.6333,3.8575,4.0516,4.2177,4.3344,4.4107,4.4347,4.3469,4.1496,3.8706,3.4577,3.4023,3.3544,3.139,3.0881,0.0,3.0776,3.1466,3.2363,3.3365,3.4218,3.4936,3.5444,3.504,3.4698,3.4518,3.2976,3.1645,3.0821,2.8457,2.6811,2.6138,2.4822,2.4029,2.3864,0.0,0.0,0.0,0.0,0.0,0.0,0.0,0.0,0.0,0.0,0.0,0.0,0.0,0.0,0.0,0.0,0.0,0.0,0.0,0.0,0.0,0.0,0.0,0.0,0.0,0.0,0.0,0.0,0.0,3.1392,3.7187,0.0,0.0,0.0,0.0,3.8773,4.2709,4.5246,4.5365,4.6485,4.7802,4.9316,4.8453,4.8685,5.0163,5.1271,5.1284,5.0301,5.0966,5.0721,4.965,4.9398,4.9898,5.1079,5.1139,5.1498,5.1798,4.852,4.6723,4.5795,4.3174,4.2171,4.1995,4.0118,3.9825,4.0053,3.8422,3.7785,3.7798,3.846,3.7551,3.5905,3.4496,3.3637,0.0,0.0,3.5727,3.7343,4.0434,4.2222,4.3364,4.4107,4.4766,4.4885,4.3574,4.2252,4.0472,3.7704,3.5205,3.3305,3.2542,0.0,3.1451,3.1451,3.2572,3.3425,3.3484,3.4637,3.5474,3.5504,3.5474,3.519,3.4563,3.3814,3.2841,3.1525,2.9582,2.8188,2.7525,2.6213,2.5187,2.456,2.4545,0.0,0.0,0.0,0.0,0.0,0.0,0.0,0.0,0.0,0.0,0.0,0.0,0.0,0.0,0.0,0.0,0.0,0.0,0.0,0.0,0.0,0.0,0.0,0.0,0.0,0.0,0.0,0.0,3.8386,4.2283,0.0,4.0815,4.3437,4.5365,4.5415,4.8731,5.0605,5.0357,5.1204,5.1083,4.9796,5.0069,5.0168,5.0034,5.1069,5.1293,5.0667,5.0902,5.0456,4.9501,5.0185,5.078,5.1289,5.2591,5.3025,5.274,5.1573,5.0197,4.8626,4.6875,4.6214,4.6055,4.4934,4.3647,4.2449,4.2582,4.1263,3.9459,3.8883,3.7483,3.5893,3.5415,3.5089,3.5239,3.6883,3.827,3.9729,4.204,4.3614,4.4661,4.4885,4.4811,4.4541,4.4062,4.294,4.1647,4.0232,3.8167,3.6312,3.525,3.4532,3.4052,3.4052,3.4113,3.4292,3.4726,3.5205,3.5504,3.5504,3.5504,3.54,3.516,3.4128,3.311,3.2183,2.9924,2.8293,2.763,2.5899,2.4844,2.4605,2.4171,2.4036,0.0,0.0,0.0,0.0,0.0,0.0,0.0,0.0,0.0,0.0,0.0,0.0,0.0,0.0,0.0,0.0,0.0,0.0,0.0,0.0,0.0,0.0,0.0,0.0,0.0,3.9682,4.2746,4.3037,4.7056,4.8815,4.6261,4.8984,5.1014,5.1251,5.3805,5.4972,5.4063,5.4164,5.3086,5.0587,5.0648,5.0372,4.9641,5.0673,5.0908,5.0299,5.0861,5.073,4.9972,5.105,5.1798,5.2306,5.3638,5.4087,5.3817,5.3369,5.2411,5.1079,4.9538,4.894,4.879,4.7481,4.5674,4.3786,4.3338,4.1812,3.9813,3.8601,3.7226,3.6011,3.5854,3.5787,3.6189,3.8218,3.954,4.0864,4.3064,4.4317,4.496,4.496,4.4631,4.4257,4.3992,4.3135,4.2201,4.1542,4.0127,3.8661,3.7345,3.6582,3.6148,3.6148,3.54,3.507,3.5744,3.5639,3.5504,3.5504,3.5504,3.5504,3.5504,3.4472,3.344,3.2572,3.0253,2.8558,2.763,2.6093,2.5158,2.4933,2.4507,2.4365,2.4605,0.0,0.0,0.0,0.0,0.0,0.0,0.0,0.0,0.0,0.0,0.0,0.0,0.0,0.0,0.0,0.0,0.0,0.0,0.0,0.0,0.0,0.0,0.0,3.9093,4.2845,4.5415,4.4946,5.1303,5.4059,4.9729,5.394,5.6647,5.5953,5.7915,5.8295,5.643,5.5377,5.3941,5.2014,5.0302,4.9344,4.9374,5.0332,5.0332,4.9404,5.1067,5.1635,5.1304,5.1962,5.298,5.4206,5.4206,5.4566,5.5029,5.3698,5.3144,5.2935,5.1005,5.0226,4.9923,4.743,4.5671,4.4015,4.0255,3.8969,3.8755,3.7612,3.6847,3.6307,3.5696,3.552,3.6047,3.8388,3.9472,4.0615,4.3507,4.4302,4.4302,4.4287,4.4287,4.4107,4.3424,4.2836,4.2231,4.1572,4.0905,4.0023,3.8661,3.7883,3.7434,3.7434,3.6357,0.0,3.6402,3.5908,3.5519,3.5534,3.5534,3.5534,3.5534,3.4891,3.3903,3.2557,3.0642,2.8978,2.7615,2.6926,2.6258,2.5615,2.563,2.5307,2.4664,0.0,0.0,0.0,0.0,0.0,0.0,0.0,0.0,0.0,0.0,0.0,0.0,0.0,0.0,0.0,0.0,0.0,0.0,0.0,0.0,0.0,3.8762,4.0881,4.2158,4.6304,4.978,5.1247,5.4435,5.6444,5.6275,5.8575,5.9979,5.9793,6.1332,6.1222,5.8797,5.7896,5.6237,5.3483,5.1971,5.1027,5.0676,5.0969,5.121,5.1394,5.2354,5.2775,5.2665,5.3339,5.3862,5.4206,5.4206,5.4027,5.3668,5.2815,5.2187,5.1708,5.1154,5.0945,5.0734,4.9085,4.7082,4.4747,4.1852,4.0337,3.9436,3.8195,3.7149,3.6392,3.6182,3.6132,3.662,3.8983,4.0108,4.1021,4.3064,4.3958,4.4197,4.3678,4.3559,4.3514,4.3334,4.3155,4.288,4.2261,4.1991,4.1287,3.9454,3.8571,3.8123,3.8123,3.703,3.6282,3.6462,3.5908,3.5684,3.6163,3.6222,3.6222,3.6222,3.5177,3.3709,3.1884,2.9953,2.8263,2.6941,2.6228,2.5794,2.5615,2.6078,2.6228,0.0,0.0,0.0,0.0,0.0,0.0,0.0,0.0,0.0,0.0,0.0,0.0,0.0,0.0,0.0,0.0,0.0,0.0,0.0,0.0,0.0,0.0,4.2258,4.4369,4.6111,4.8936,5.162,5.3876,5.5875,5.7503,5.8696,6.061,6.189,6.2212,6.3311,6.2818,6.0208,5.9631,5.7955,5.4813,5.4234,5.3432,5.2352,5.264,5.2755,5.2621,5.271,5.3069,5.3608,5.3443,5.3683,5.4192,5.3907,5.3548,5.3129,5.2471,5.1977,5.1573,0.0,0.0,0.0,0.0,4.6938,4.5024,4.2509,4.1155,4.0303,3.8572,3.7575,3.7008,3.6556,3.6405,3.6896,3.9241,4.0134,4.0937,4.3168,4.3783,4.3828,4.3723,4.3484,4.329,4.329,4.329,4.3135,4.253,4.2396,0.0,4.0127,3.9275,3.8826,3.8826,3.7704,3.6881,3.6881,3.6312,3.5953,3.6073,3.6073,3.6073,3.6073,3.5355,0.0,0.0,0.0,2.8981,2.7106,2.6632,0.0,0.0,0.0,2.744,2.744,2.8124,0.0,0.0,2.7794,2.7974,0.0,0.0,0.0,0.0,0.0,0.0,0.0,0.0,0.0,0.0,0.0,0.0,0.0,0.0,0.0,0.0,4.5908,4.8327,5.024,5.0843,5.1841,5.3994,5.5937,5.7475,5.8426,6.0682,6.2482,6.3406,6.4123,6.3487,6.1119,6.0862,0.0,0.0,0.0,5.6153,5.4366,5.4836,5.4589,5.3507,5.2867,5.3159,5.4281,5.301,5.3069,5.4162,5.3399,5.3069,5.3025,5.2351,5.1992,5.1753,5.0629,5.0151,4.9835,4.7464,4.6179,4.5252,4.2766,0.0,0.0,3.8858,3.7962,3.7638,3.6707,3.6405,3.6896,3.9241,3.9899,4.0601,4.3522,4.3783,4.3469,4.4152,4.3768,4.329,4.329,4.329,4.3125,4.262,4.2515,4.2111,4.0831,4.0023,3.9514,3.9388,3.8332,3.7524,3.7524,3.6971,3.6387,3.5893,3.5774,0.0,3.5714,3.5594,3.4681,3.2751,3.1839,3.0357,2.8019,2.7854,2.7854,2.7929,2.8502,2.8846,2.8936,2.9445,2.9786,2.9894,2.9086,2.9071,0.0,0.0,0.0,0.0,0.0,0.0,0.0,0.0,0.0,0.0,0.0,0.0,0.0,0.0,0.0,4.7227,4.8806,5.0361,5.2336,5.2259,5.2245,5.3093,5.4364,5.6017,5.8296,5.9521,6.1082,6.3333,6.3649,6.3501,6.2996,6.1851,6.0695,5.9692,5.8691,5.779,5.7045,5.6228,5.5689,5.5469,5.4915,0.0,5.497,5.4177,5.3967,5.4147,5.292,5.2381,5.2336,5.1678,5.078,4.9853,5.0137,4.9912,4.9359,4.8328,4.7525,4.6652,4.4574,4.2946,4.1428,3.9408,3.7796,3.6681,3.6468,3.6405,0.0,3.9241,3.9899,4.0601,4.3522,4.3783,4.3469,4.4152,4.3768,4.329,4.329,4.329,4.326,4.3125,4.315,4.2895,4.2156,4.0995,4.0023,3.9463,3.8721,3.8197,3.8197,3.7629,3.7389,3.7793,3.736,3.7045,3.7045,3.6103,3.4876,3.3395,3.1674,3.0477,2.9953,2.9487,2.9457,2.9924,3.0073,3.0417,3.0943,3.0537,3.0881,3.1913,3.0193,2.9729,0.0,0.0,0.0,0.0,0.0,0.0,0.0,0.0,0.0,0.0,0.0,4.2797,4.4286,0.0,4.8511,5.0267,5.1183,5.1947,5.2591,5.2411,5.2289,5.2519,5.3279,5.4537,5.6541,5.7931,5.9797,6.2382,6.2933,6.3248,6.3491,6.2821,6.1975,6.0962,6.0635,5.9705,5.822,5.7971,5.7432,5.6557,5.5983,5.5688,5.5643,5.4655,5.4027,5.3638,5.2636,5.2007,5.1678,5.1349,5.0646,4.9748,4.9748,4.9149,4.8252,4.7923,4.7593,4.7061,4.546,4.4093,4.2719,4.0542,3.8859,3.7527,3.695,3.6631,3.6896,3.9241,3.9899,4.0601,4.3522,4.3783,4.3469,4.4152,4.3768,4.329,4.329,4.329,4.329,4.329,4.329,4.3135,4.2515,4.1587,4.0666,4.0008,3.9334,3.8781,3.8437,3.8108,3.7898,3.7898,3.7599,3.7285,3.6971,3.5744,3.4696,3.4023,3.2736,3.1854,3.1524,3.121,3.1195,3.1509,3.1509,3.1839,3.2512,3.2168,3.2347,3.2976,3.1988,3.1704,0.0,0.0,0.0,0.0,0.0,0.0,0.0,3.8608,3.9952,4.3504,4.5778,4.7596,4.9238,5.1057,5.2327,5.2303,5.2795,5.295,5.2291,5.2202,5.2097,5.1843,5.2276,5.3189,5.4868,5.6354,5.8378,6.1164,6.1748,6.2237,6.2756,6.2647,6.2027,6.0839,6.1415,6.0778,5.885,5.9228,5.8823,5.7609,5.6801,5.6346,5.6301,5.4999,5.4027,5.3339,5.2546,5.1887,5.1394,5.1274,5.0779,5.0121,4.9523,4.8536,4.7474,4.7354,4.7309,4.7134,4.5975,4.5078,4.4112,4.2002,4.0388,3.9058,3.7903,3.7406,3.7557,3.9135,3.9968,4.0956,4.3346,4.3647,4.3469,4.4152,4.3768,4.329,4.329,4.329,4.329,4.329,4.329,4.3135,4.2515,4.1856,4.116,4.0502,3.9843,3.9215,3.8661,3.8586,3.8392,3.7853,3.7674,3.73,3.6552,3.5522,3.4848,3.4713,3.4053,3.344,3.2916,3.2766,3.2766,3.2901,3.2901,3.3215,3.3888,3.3754,3.3754,3.3888,3.3739,3.3679,3.1932,3.2911,3.474,3.8077,3.8305,3.9773,0.0,4.7983,4.753,5.0557,5.1661,5.1951,5.1569,5.2161,5.2732,5.2742,5.2986,5.295,5.2291,5.2202,5.1768,5.0554,5.0993,5.2334,5.4776,5.5191,5.6629,5.9858,5.9566,5.9547,6.0258,5.9665,5.9262,5.9101,5.9166,5.9325,5.9679,5.8687,5.8665,5.9552,5.7831,5.6989,5.6944,5.5658,5.4715,5.4027,5.2755,5.2157,5.2037,5.1468,5.0779,5.0121,4.9523,4.882,4.8102,4.7519,4.7309,4.7176,4.645,4.5506,4.441,4.3585,4.205,4.0353,3.9243,3.9543,4.0014,3.8692,4.0244,4.2352,4.2693,4.3034,4.3469,4.4152,4.3768,4.329,4.329,4.329,4.329,4.329,4.329,4.3135,4.2515,4.1856,4.116,4.0502,3.9843,3.9358,3.932,3.9305,3.9239,3.9164,3.8646,3.7793,3.6596,3.6342,3.6013,3.5429,3.4741,3.4354,3.4294,3.3694,3.3664,3.4279,3.4294,3.4592,3.528,3.4666,3.4681,3.5265,3.4651,3.4399,3.5938,3.6879,3.812,4.055,4.2775,4.5348,4.9086,5.0202,5.0887,5.2413,5.3549,5.382,5.2149,5.2777,5.328,5.2565,5.2881,5.2815,5.1768,5.1633,5.1005,4.9299,4.9688,5.0801,5.2594,5.2777,5.396,5.6804,5.7131,5.7595,5.8633,5.8732,5.8812,5.8812,5.8812,5.8976,5.9268,5.8783,5.905,5.9978,5.8828,5.8067,5.7663,5.6735,5.5314,5.3563,5.2606,5.1977,5.1618,5.1334,5.0616,4.9643,4.9419,4.8626,4.7683,4.7399,4.7309,4.7264,4.6995,4.6306,4.5505,4.4863,4.3152,4.1196,4.0361,3.9927,3.9623,3.919,4.0255,4.1719,4.2797,4.2921,4.3043,4.4065,4.3768,4.329,4.329,4.329,4.329,4.329,4.329,4.32,4.297,4.2387,4.1767,4.107,4.0083,3.9388,3.9388,3.9388,3.9388,3.9388,3.8796,3.8167,3.7644,3.6911,3.6372,3.6088,3.5444,3.507,3.507,3.4816,3.4801,3.507,3.507,3.522,3.5504,3.522,3.522,3.5489,3.5205,3.507,3.8091,3.9665,4.1457,4.3369,4.6752,4.983,5.0676,5.1848,5.2935,5.3506,5.4027,5.381,5.1958,5.2339,5.2673,5.1775,5.2217,5.2247,5.1109,5.0795,5.0017,4.8237,4.8282,4.8895,5.0032,5.0631,5.1828,5.4036,5.4682,5.5472,5.6738,5.7257,5.7619,5.7807,5.7823,5.801,5.8408,5.8572,5.9255,6.0356,5.9697,5.9024,5.8297,5.6727,5.4643,5.2285,5.1965,5.1539,5.0917,5.1133,5.0556,4.9508,4.9374,4.8566,4.7549,4.7369,4.7309,4.7309,4.7309,4.6995,4.6494,4.6064,4.4565,4.2812,4.2096,4.1418,4.0868,4.0475,4.126,4.2359,4.2819,4.2926,4.3058,4.3643,4.3552,4.329,4.329,4.3512,4.363,4.3369,4.3512,4.357,4.3129,4.2671,4.2171,4.1512,4.0412,3.9634,3.9403,3.9388,3.9388,3.9388,3.914,3.8796,3.8422,3.7719,3.706,3.6522,3.6043,3.5684,3.5519,3.5504,3.5504,3.5504,3.5504,3.5504,3.5504,3.5504,3.5504,3.5504,3.5504,3.5504,3.6846,4.002,4.4001,4.6976,4.9444,5.1911,5.4819,5.4698,5.4216,5.5045,5.3501,5.1763,5.1064,5.0587,5.0287,5.0255,5.0808,5.1003,5.0315,4.9733,4.8835,4.7489,4.6785,4.6681,4.7354,4.9104,5.081,5.2174,5.2279,5.2912,5.4231,5.4321,5.462,5.5315,5.533,5.5894,5.7131,5.7805,5.9099,6.1074,6.0386,5.9712,5.8925,5.4939,5.1967,5.007,5.0725,5.0753,5.0283,5.0932,5.0764,5.0091,4.9508,4.8895,4.8177,4.7534,4.7309,4.7309,4.7309,4.7294,4.7279,4.7251,4.6759,4.5964,4.4821,4.5229,4.5472,4.2556,4.3876,4.5472,4.2525,4.2984,4.3961,4.2749,4.2881,4.329,4.329,4.4082,4.4488,4.3472,4.4066,4.4272,4.2685,4.241,4.2171,4.1512,4.0801,4.0142,3.9463,3.9388,3.9388,3.9388,3.9963,3.9813,3.8497,3.8975,3.8512,3.6611,3.6462,3.6178,3.5534,3.5504,3.5504,3.5504,3.5504,3.5504,3.5504,3.5504,3.5504,3.5504,3.5504,3.5504,4.051,4.4096,4.7597,4.9579,5.1581,5.3462,5.4957,5.4481,5.3334,5.1988,5.0068,4.8078,4.6179,4.6079,4.6456,4.689,4.8626,4.9688,4.903,4.9508,4.8925,4.6292,4.6561,4.6531,4.5424,4.6683,4.8506,5.0689,5.0853,5.1663,5.3428,5.3967,5.4521,5.5164,5.5194,5.6234,5.8388,5.8633,6.0213,6.302,6.1443,5.9644,5.7655,5.4515,5.2215,5.0592,4.9174,4.8928,4.9534,4.9363,4.9427,4.9568,4.9404,4.864,4.7608,4.7384,4.7025,4.6711,4.716,4.7025,4.6726,4.716,4.6297,4.5055,4.5091,4.508,4.4732,4.3338,4.3953,4.4879,4.4293,4.425,4.4339,4.4339,4.415,4.3828,4.3394,4.4066,4.4699,4.4373,4.4548,4.4637,4.4082,4.3454,4.2776,4.2171,4.11,4.0172,3.9514,3.9388,3.9553,4.0023,4.0277,4.0397,4.0382,3.9783,3.914,3.8482,3.7599,3.6821,3.6178,3.6148,3.5953,3.5519,3.5504,3.5504,3.5504,3.5504,3.5504,3.5504,3.5504,3.5504,4.4401,4.775,5.0676,5.2706,5.3814,5.4535,5.5051,5.3655,5.1587,4.9344,4.7148,4.5,4.2668,4.2432,4.294,4.4062,4.5873,4.7249,4.7534,4.8312,4.7998,4.5918,4.6217,4.6172,4.514,4.5603,4.686,4.8985,4.9628,5.0646,5.2381,5.3129,5.3788,5.4446,5.4715,5.5951,5.8341,5.907,6.0975,6.3979,6.174,5.9277,5.657,5.3931,5.1314,4.884,4.7725,4.7432,4.7793,4.7942,4.8363,4.8955,4.8955,4.8252,4.7309,4.7309,4.689,4.6339,4.68,4.6516,4.6067,4.6741,4.6105,4.5186,4.5872,4.5785,4.536,4.4955,4.516,4.536,4.5118,4.4863,4.4631,4.4341,4.4095,4.3798,4.3379,4.4066,4.4699,4.432,4.4548,4.4699,4.4335,4.3747,4.312,4.25,4.1677,4.0861,4.0202,3.9918,3.9933,4.0352,4.0816,4.1085,4.104,4.0472,3.9918,3.9454,3.8377,3.7375,3.6522,3.6492,3.6178,3.5519,3.5504,3.5504,3.5504,3.5504,3.5504,3.5504,3.5504,3.5504,4.8173,5.0845,5.3264,5.6139,5.5946,5.5089,5.51,5.2221,4.9006,4.7083,4.466,4.2348,4.0412,3.9649,3.9911,4.1855,4.2847,4.4031,4.5915,4.6213,4.6286,4.6284,4.5759,4.558,4.6234,4.5768,4.5918,4.716,4.8476,4.9808,5.1154,5.1843,5.2501,5.3159,5.3817,5.5107,5.7071,5.9269,6.1552,6.3917,6.1422,5.8762,5.5962,5.3319,4.9627,4.5382,4.6523,4.6413,4.5496,4.679,4.7719,4.8282,4.8282,4.7878,4.7309,4.7309,4.689,4.6279,4.6234,4.5813,4.5364,4.6082,4.6264,4.6396,4.71,4.7309,4.7309,4.7309,4.7309,4.687,4.4995,4.4934,4.4894,4.2965,4.2981,4.3379,4.3305,4.4066,4.4526,4.3551,4.4143,4.4488,4.3472,4.329,4.3135,4.2545,4.2425,4.2171,4.1512,4.0831,4.0457,4.0502,4.1647,4.1916,4.0651,4.1055,4.0846,3.9568,3.8841,3.7868,3.6596,3.6567,3.6237,3.5519,3.5534,3.5549,3.5549,3.5519,3.5519,3.5549,3.5519,3.5504,5.0608,5.3907,5.6647,5.7425,5.6189,5.4414,5.2909,4.9374,4.5621,4.2682,4.0016,3.7629,3.5624,3.6716,3.8109,3.8676,4.1775,4.4266,4.4743,4.535,4.5855,4.6165,4.6143,4.6167,4.6311,4.6606,4.6726,4.6591,4.7803,4.9329,5.1124,5.1843,5.2501,5.3159,5.3354,5.5058,5.8374,6.1792,6.3309,6.3032,6.2386,6.061,5.7824,5.4782,5.1911,4.9199,4.6785,4.6133,4.6695,4.6677,4.7309,4.8282,4.8282,4.7878,4.7309,4.7309,4.689,4.6204,4.5738,4.5125,4.4766,4.5933,4.5978,4.5768,4.695,4.7309,4.7309,4.7309,4.7309,4.7058,4.6071,4.6275,4.6282,4.4306,4.4296,4.4526,4.3499,4.4066,4.4737,4.4472,4.4624,4.4488,4.3472,4.329,4.3245,4.3105,4.2671,4.2171,4.1512,4.1235,4.1324,4.1856,4.2201,4.2455,4.2527,4.1848,4.1235,4.0905,3.9798,3.8556,3.7225,3.7644,3.715,3.5534,3.5983,3.6237,3.6237,3.5744,3.5759,3.6222,3.5729,3.5504,5.3568,5.6292,5.8389,5.8389,5.6298,5.3495,5.0574,4.661,4.2402,3.8227,3.5707,3.3642,3.1633,3.2604,3.4061,3.519,3.8375,4.1221,4.2509,4.3559,4.4385,4.4931,4.5827,4.6401,4.6344,4.7183,4.7578,4.7219,4.8132,4.9194,5.0301,5.1259,5.1932,5.2306,5.2606,5.4757,5.8854,6.1563,6.3133,6.3498,6.2349,6.0793,5.8928,5.6005,5.2933,4.9867,4.7832,4.6749,4.6379,4.608,4.6693,4.7863,4.7863,4.7623,4.7309,4.7309,4.6696,4.5858,4.5783,4.5125,4.4481,4.5529,4.5618,4.5544,4.689,4.7309,4.7309,4.7309,4.7309,4.716,4.6444,4.6591,4.6441,4.4721,4.4601,4.4586,4.3514,4.3959,4.4586,4.4586,4.4586,4.43,4.3453,4.329,4.329,4.329,4.3015,4.2656,4.2282,4.1983,4.1991,4.2366,4.2626,4.2821,4.2895,4.2237,4.1722,4.1437,4.0412,3.9245,3.7898,3.8197,3.7749,3.6372,3.6701,3.6881,3.6881,3.6522,3.6537,3.6881,3.6237,3.5938,5.6613,5.8169,5.9096,5.8882,5.6045,5.2234,4.8027,4.3733,3.914,3.4038,3.1854,3.0322,2.8366,2.8572,2.9818,3.2126,3.447,3.7112,4.0136,4.1431,4.2392,4.3479,4.4945,4.6089,4.6454,4.7536,4.8194,4.8177,4.8895,4.9269,4.9179,5.0301,5.099,5.1079,5.185,5.419,5.8214,5.9798,6.165,6.3768,6.1692,6.0291,5.9448,5.6799,5.335,4.9486,4.9148,4.7748,4.5644,4.5644,4.6299,4.7309,4.7309,4.7309,4.7309,4.7309,4.6561,4.5633,4.6142,4.5559,4.4676,4.5244,4.5424,4.5663,4.692,4.7309,4.7309,4.7309,4.7309,4.716,4.6444,4.6396,4.607,4.4766,4.4511,4.4407,4.3693,4.4007,4.4451,4.4451,4.4451,4.4272,4.3648,4.3484,4.3424,4.3424,4.3349,4.329,4.329,4.2836,4.253,4.253,4.3,4.3105,4.2575,4.2455,4.2156,4.1587,4.0891,3.9933,3.8586,3.8616,3.8257,3.7419,3.7494,3.7539,3.7539,3.7449,3.7464,3.7524,3.6806,3.6492,5.8761,5.9708,5.9553,5.8114,5.4524,5.001,4.5049,4.0071,3.534,3.1149,2.92,2.7817,2.6269,2.7837,2.9887,3.1562,3.4006,3.6691,3.9492,3.9649,4.0678,4.3698,4.356,4.4253,4.6823,4.7366,4.7514,4.7461,4.8596,4.9075,4.8476,4.9194,4.9853,5.0345,5.2001,5.3505,5.4856,5.8118,5.9696,5.9569,6.0644,6.0454,5.9014,5.6735,5.4352,5.1887,5.0051,4.8372,4.6975,4.6975,4.7121,4.7309,4.7309,4.7309,4.7309,4.7309,4.716,4.689,4.6429,4.613,4.595,4.6112,4.6142,4.6292,4.707,4.7309,4.7309,4.7309,4.7309,4.716,4.6444,4.6726,4.68,4.5454,4.5559,4.5783,4.511,4.505,4.5125,4.5125,4.5125,4.5095,4.4975,4.4496,4.4152,4.4152,4.3633,4.329,4.329,4.32,4.3125,4.3125,4.323,4.3245,4.3125,4.2671,4.2351,4.2231,4.1617,4.0621,3.929,3.9768,3.9215,3.7434,3.7943,3.8227,3.8227,3.7674,3.7689,3.8197,3.703,3.6492,5.8635,5.9203,5.8823,5.7021,5.2957,4.7921,4.2278,3.7347,3.2632,2.7964,2.6466,2.5577,2.424,2.5674,2.7484,2.8763,3.0495,3.2957,3.6603,3.6885,3.787,4.1068,4.2145,4.3566,4.6075,4.6976,4.7666,4.8268,4.8596,4.8626,4.8297,4.8955,4.9449,4.9718,5.0895,5.2181,5.3483,5.5633,5.6803,5.7109,5.7617,5.7282,5.6171,5.4746,5.3041,5.1143,5.046,4.9258,4.7818,4.7818,4.7818,4.7788,4.7444,4.7309,4.7309,4.7309,4.7085,4.68,4.683,4.6606,4.6339,4.6726,4.6563,4.6456,4.7115,4.7309,4.7309,4.7309,4.7309,4.7234,4.692,4.707,4.7055,4.6067,4.5813,4.5798,4.5813,4.5828,4.5828,4.5828,4.5828,4.5723,4.5349,4.4751,4.4421,4.4766,4.4272,4.3798,4.3798,4.3798,4.3678,4.3334,4.329,4.329,4.329,4.3045,4.2716,4.2425,4.2111,4.1497,4.0487,4.0741,4.0292,3.899,3.9275,3.9275,3.8931,3.8616,3.8616,3.8901,3.7928,3.7479,5.7747,5.8002,5.7388,5.5229,5.0932,4.5665,3.9676,3.4881,3.03,2.5576,2.4443,2.4043,2.3182,2.3865,2.5083,2.6671,2.7463,2.9478,3.3922,3.4963,3.6286,3.8978,4.1358,4.3575,4.5442,4.6586,4.7651,4.8805,4.8371,4.8072,4.8072,4.8566,4.8955,4.909,4.9553,5.0578,5.2187,5.3117,5.3984,5.473,5.4566,5.4129,5.3439,5.2612,5.1446,5.0133,5.0298,4.967,4.8476,4.7896,4.7763,4.7778,4.6845,4.6638,4.6873,4.6873,4.6734,4.6606,4.713,4.6965,4.6621,4.713,4.695,4.6636,4.7145,4.7309,4.7309,4.7309,4.7309,4.7309,4.7309,4.7309,4.7174,4.6651,4.6112,4.5873,4.6411,4.6488,4.6488,4.6488,4.6488,4.6367,4.5828,4.5185,4.493,4.5439,4.4945,4.4526,4.4526,4.4407,4.4122,4.3559,4.3379,4.329,4.329,4.329,4.312,4.2635,4.2605,4.2321,4.1647,4.1632,4.122,4.0412,4.0397,4.0083,3.9388,3.9388,3.9388,3.9373,3.8706,3.8392,5.6902,5.6735,5.5234,5.2287,4.7934,4.288,3.7149,3.2271,2.8143,2.5202,2.4112,2.3814,2.4254,2.3875,2.4568,2.7695,2.7748,2.8913,3.3357,3.5862,3.8094,4.0373,4.2295,4.4107,4.5981,4.6379,4.6774,4.7431,4.7429,4.7399,4.7399,4.7459,4.7758,4.8356,4.8431,4.8865,4.9644,5.1302,5.1895,5.1359,5.2997,5.3407,5.2653,5.157,5.0963,5.07,4.9196,4.8804,4.903,4.6632,4.6018,4.6374,4.4542,4.4549,4.5584,4.5584,4.627,4.7219,4.7279,4.7264,4.7219,4.7279,4.7264,4.7234,4.7294,4.7309,4.7309,4.7309,4.7309,4.7309,4.7309,4.7309,4.7294,4.7234,4.716,4.713,4.7189,4.7219,4.7219,4.7219,4.7219,4.7189,4.713,4.6576,4.6115,4.6175,4.5648,4.5214,4.5214,4.4691,4.4287,4.4227,4.3648,4.329,4.329,4.329,4.3275,4.32,4.32,4.2955,4.2336,4.2306,4.1722,4.0427,4.0397,4.0083,3.9388,3.9388,3.9388,3.9373,3.8706,3.8392,5.3568,5.3905,5.2801,5.0087,4.5611,4.0603,3.5964,3.1001,2.6752,2.4477,2.349,2.3258,2.3907,2.3691,2.3947,2.5655,2.5018,2.5911,3.0559,3.2057,3.4393,3.8988,4.08,4.2938,4.6027,4.6385,4.6818,4.782,4.7534,4.7309,4.7309,4.7309,4.7429,4.7683,4.8072,4.8416,4.8686,4.9806,5.0041,4.9344,5.0092,5.0074,4.9385,4.8935,4.8736,4.8708,4.8427,4.8431,4.8626,4.757,4.6837,4.6281,4.5114,4.4964,4.5403,4.5403,4.6211,4.7309,4.7309,4.7309,4.7309,4.7309,4.7309,4.7309,4.7309,4.7309,4.7309,4.7309,4.7309,4.7309,4.7309,4.7309,4.7309,4.7309,4.7309,4.7309,4.7309,4.7309,4.7309,4.7309,4.7309,4.7309,4.7309,4.6756,4.6456,4.686,4.6337,4.5918,4.5918,4.5693,4.5364,4.4945,4.3958,4.3454,4.3883,4.3529,4.3469,4.3898,4.3514,4.317,4.2955,4.294,4.2521,4.1632,4.119,4.0666,4.0008,3.9619,3.9388,3.9373,3.914,3.9005,4.9384,5.0243,4.9855,4.7415,4.3,3.8197,3.4203,2.952,2.5495,2.3699,2.3002,2.2965,2.38,2.3646,2.3672,2.4438,2.3573,2.4196,2.8209,2.9812,3.2349,3.7208,3.9536,4.2095,4.5447,4.6308,4.6946,4.7669,4.7279,4.6935,4.6726,4.6905,4.7115,4.7294,4.7758,4.7997,4.7997,4.8461,4.8461,4.7997,4.7997,4.7758,4.7309,4.7309,4.7414,4.7608,4.7878,4.8222,4.8551,4.7763,4.6805,4.5741,4.4696,4.4503,4.4826,4.4826,4.5869,4.7309,4.7309,4.7309,4.7309,4.7309,4.7062,4.6829,4.7207,4.7309,4.7309,4.7309,4.7309,4.7309,4.7309,4.7309,4.7309,4.7309,4.7309,4.7309,4.7309,4.7309,4.7309,4.7309,4.7309,4.7309,4.7309,4.692,4.677,4.7234,4.692,4.6621,4.6621,4.6399,4.6142,4.5648,4.4586,4.4067,4.4571,4.4003,4.3783,4.4287,4.3663,4.329,4.329,4.329,4.303,4.241,4.1946,4.1392,4.0681,4.0232,3.9903,3.9709,3.9709,3.9604,4.4535,4.5743,4.6116,4.3903,3.9933,3.5474,3.1465,2.746,2.4261,2.2972,2.2703,2.3092,2.4365,2.393,2.379,2.4984,2.4517,2.4757,2.7014,3.0626,3.3716,3.5429,3.9042,4.2139,4.4127,4.61,4.6997,4.6354,4.6294,4.6037,4.5349,4.5963,4.6636,4.7279,4.7309,4.7309,4.7309,4.7324,4.7324,4.7309,4.7309,4.7309,4.7309,4.7309,4.7653,4.8237,4.7593,4.8057,4.9104,4.6497,4.5057,4.4346,4.2396,4.2412,4.3504,4.3504,4.5115,4.7309,4.7309,4.7309,4.7309,4.7309,4.6447,4.5644,4.6916,4.7309,4.7309,4.7309,4.7309,4.7309,4.7309,4.7309,4.7309,4.7309,4.7309,4.7309,4.7309,4.7309,4.7309,4.7309,4.7309,4.7309,4.7309,4.7294,4.7294,4.7309,4.7294,4.7294,4.7294,4.6726,4.6279,4.6264,4.5693,4.5274,4.5289,4.4691,4.4302,4.4317,4.3663,4.329,4.329,4.329,4.303,4.241,4.2396,4.2066,4.1407,4.1369,4.1025,4.0382,4.0382,4.0038,3.8574,3.9062,3.8509,3.6974,3.3829,3.0522,2.8323,2.5136,2.2637,2.2688,2.2343,2.2547,2.4276,2.3969,2.4201,2.6419,2.5551,2.5662,2.8718,3.1358,3.4219,3.7525,4.2383,4.5678,4.6292,4.6531,4.6546,4.6337,4.5888,4.5529,4.5304,4.5499,4.5933,4.6621,4.707,4.7309,4.7309,4.7309,4.7309,4.7309,4.7309,4.7309,4.7309,4.7309,4.7414,4.7593,4.7399,4.7534,4.7893,4.7051,4.6089,4.505,4.4434,4.4442,4.478,4.478,4.5869,4.7309,4.7309,4.7309,4.7309,4.7309,4.6447,4.5644,4.6916,4.6682,4.6166,4.7062,4.7309,4.7309,4.7309,4.7309,4.7309,4.7309,4.7309,4.7309,4.7309,4.7309,4.7309,4.7309,4.7309,4.7309,4.7309,4.7309,4.7309,4.7309,4.7309,4.7309,4.7309,4.7115,4.6995,4.6995,4.68,4.6486,4.6037,4.5379,4.499,4.499,4.4362,4.3768,4.3319,4.329,4.32,4.303,4.262,4.2306,4.2096,4.1632,4.1265,4.1055,4.0606,4.0292,3.3136,3.3994,3.3622,3.2528,2.985,2.7126,2.5764,2.331,2.144,2.1859,2.1799,2.2143,2.3625,2.3674,2.4138,2.6064,2.5646,2.5942,2.8429,3.0862,3.402,3.8347,4.2976,4.5798,4.5798,4.5888,4.5843,4.5574,4.517,4.4811,4.4571,4.4796,4.5229,4.5918,4.6591,4.7055,4.7309,4.7309,4.7309,4.7309,4.7309,4.7309,4.7309,4.7309,4.7309,4.7309,4.7309,4.7309,0.0,4.7309,4.6535,4.5403,4.5403,4.5403,4.5403,4.5403,4.6211,4.7264,4.7025,4.71,4.7264,4.701,4.6578,4.6166,4.6491,4.6358,4.6299,4.7062,4.7309,4.7309,4.7309,4.7309,4.7309,4.7309,4.7309,4.7309,4.7309,4.7309,4.7309,4.7309,4.7309,4.7309,4.7309,4.7309,4.7309,4.7309,4.7309,4.7309,4.7309,4.7309,4.7309,4.7309,4.7309,4.713,4.6726,4.6067,4.5574,4.5304,4.4676,4.4242,4.4077,4.3559,4.3409,4.3663,4.306,4.2731,4.2731,4.2073,4.1796,4.1767,4.107,4.0636,0.0,3.0045,3.0656,2.979,2.7373,2.4897,2.361,2.1934,0.0,2.0688,2.1231,2.1919,2.2703,2.3229,2.387,2.4768,2.5328,2.5997,2.6921,2.9896,3.364,3.8188,4.1494,4.3359,4.3305,4.4481,4.4975,4.4362,4.4272,4.3947,4.3319,4.3873,4.4541,4.5214,4.5843,4.6546,4.7294,4.7309,4.7309,4.7309,4.7309,4.7309,4.7309,4.7309,4.7309,4.7309,4.7309,4.7309,4.7309,4.7309,4.6594,4.5539,4.5539,4.5539,4.5539,4.5539,4.627,4.7145,4.6531,4.6696,4.707,4.6373,4.664,4.7003,4.5764,4.6299,4.7309,4.7309,4.7309,4.7309,4.7309,4.7309,4.7309,4.7309,4.7309,4.7309,4.7309,4.7309,4.7309,4.7309,4.7309,4.7309,4.7309,4.7309,4.7309,4.7309,4.7309,4.7309,4.7309,4.7309,4.7309,4.7309,4.7309,4.7279,4.7234,4.6711,4.6097,4.5409,4.4796,4.4706,4.5274,4.4077,4.3648,4.4302,4.3618,4.329,4.329,4.2731,4.247,4.2455,4.1796,4.113,2.3941,0.0,2.4551,2.3612,2.2451,2.1381,0.0,2.0262,2.0079,2.0583,2.1231,2.2203,2.3842,2.4246,2.5384,2.8578,2.8596,2.8745,3.022,3.3324,3.6607,3.9736,4.2505,4.3928,4.3344,4.4062,4.4481,4.4332,4.3798,4.3454,4.3305,4.3439,4.3828,4.4526,4.4706,4.5603,4.7294,4.7309,4.7309,4.7309,4.7309,4.7309,4.7309,4.7309,4.7309,4.7309,4.7309,4.7309,4.7309,4.7309,4.7121,4.6829,4.6829,4.6829,4.6829,4.6829,4.6706,4.6488,4.6324,4.6082,4.5645,4.504,4.5594,4.6407,4.5634,4.6299,4.7309,4.7309,4.7309,4.7309,4.7309,4.7309,4.7309,4.7309,4.7309,4.7309,4.7309,4.7309,4.7309,4.7309,4.7309,4.7309,4.7309,4.7309,4.7309,4.7309,4.7309,4.7309,4.7309,4.7309,4.7309,4.7309,4.7309,4.71,4.6591,4.6875,4.68,4.6127,4.5933,4.5678,4.5304,4.4511,4.4152,4.4317,4.3618,4.329,4.329,4.314,4.3105,4.309,4.2432,4.2081,2.247,2.2774,2.3063,2.2283,2.1717,2.1221,2.0719,2.0142,1.9813,2.0168,2.1021,2.2113,2.349,2.4455,2.6054,2.9131,2.9686,3.0368,3.2124,3.4549,3.6907,3.8935,4.1312,4.2834,4.2952,4.3526,4.3828,4.3828,4.3499,4.329,4.329,4.329,4.3604,4.4287,4.4317,4.514,4.683,4.686,4.701,4.7309,4.7309,4.7309,4.7309,4.7309,4.7309,4.7309,4.7309,4.7309,4.7309,4.7309,4.7309,4.7309,4.7309,4.7309,4.7264,4.6965,4.6815,4.6651,4.5681,4.5155,4.4821,4.4814,4.5291,4.5836,4.58,4.6282,4.692,4.7219,4.7309,4.7309,4.7309,4.7309,4.7309,4.7309,4.7309,4.7309,4.7309,4.7309,4.7309,4.7309,4.7309,4.7309,4.7309,4.7309,4.7309,4.7309,4.7309,4.7309,4.7309,4.7309,4.7309,4.7309,4.7309,4.716,4.68,4.71,4.7025,4.6324,4.6279,4.6292,4.6217,4.499,4.4167,4.3828,4.3469,4.329,4.329,4.329,4.329,4.329,4.297,4.2641,2.2607,2.3539,2.438,2.3155,2.293,2.2817,2.2023,2.0887,2.0037,2.0142,2.1126,2.2218,2.3002,2.4732,2.6722,2.8727,3.0261,3.1871,3.3821,3.5134,3.6278,3.7444,3.9368,4.0909,4.1665,4.2518,4.2991,4.2927,4.315,4.3245,4.3155,4.314,4.3434,4.4003,4.4018,4.4661,4.5965,4.6175,4.6651,4.7309,4.7309,4.7309,4.7309,4.7309,4.7309,4.7294,4.7189,4.7219,4.7294,4.7085,4.7115,4.7279,4.707,4.707,4.707,4.6411,4.6456,4.6591,4.4781,4.4167,4.4272,4.493,4.5155,4.5274,4.5963,4.6204,4.6441,4.6995,4.7234,4.7309,4.7309,4.7309,4.7309,4.7309,4.7309,4.7309,4.7309,4.7309,4.7309,4.7309,4.7309,4.7309,4.7309,4.7309,4.7309,4.7309,4.7309,4.7309,4.7309,4.7309,4.7309,4.7309,4.7309,4.7309,4.7309,4.7309,4.707,4.6516,4.6429,4.6681,4.713,4.5424,4.4152,4.3454,4.3349,4.329,4.329,4.329,4.329,4.329,4.329,4.3045,2.3221,2.5678,2.724,2.3167,2.3533,2.4471,2.2889,2.1954,2.1545,2.2119,2.2802,2.3684,2.4926,2.6797,2.8786,3.0733,3.2908,3.5119,3.7453,3.7373,3.722,3.7753,3.8637,3.8871,3.8048,4.0326,4.1674,4.1218,4.2495,4.309,4.259,4.2545,4.2605,4.2695,4.2695,4.3299,4.4601,4.5711,4.6651,4.7309,4.7309,4.7309,4.7309,4.7309,4.7309,4.7279,4.6711,4.68,4.7219,4.6082,4.6277,4.7189,4.6052,4.5963,4.6396,4.5708,4.517,4.4646,4.3738,4.3439,4.3544,4.4257,4.4466,4.4586,4.5244,4.5858,4.6309,4.6399,4.6875,4.7309,4.7309,4.7309,4.7309,4.7309,4.7309,4.7309,4.7309,4.7309,4.7309,4.7309,4.7309,4.7309,4.7309,4.7309,4.7309,4.7309,4.7309,4.7309,4.7309,4.7309,4.7309,4.7309,4.7309,4.7309,4.7309,4.7309,4.7264,4.716,4.716,4.695,4.6444,4.5618,4.4825,4.4182,4.3574,4.329,4.329,4.329,4.329,4.329,4.329,4.3245,2.2824,2.4789,2.6308,2.412,2.5886,2.7577,2.5326,2.4283,2.3894,2.4193,2.4777,2.551,2.6507,2.8293,3.0627,3.3709,3.5681,3.7162,3.8144,3.7938,3.7414,3.6751,3.7495,3.7741,3.6843,3.8602,3.9644,3.9403,4.0108,4.0665,4.0959,4.0441,4.0506,4.1404,4.1498,4.2115,4.3365,4.4611,4.5753,4.677,4.6396,4.6411,4.677,4.6381,4.6217,4.6202,4.5903,4.5933,4.6172,4.5544,4.5663,4.6157,4.5529,4.5484,4.5723,4.5409,4.4661,4.3753,4.3798,4.3589,4.3349,4.3648,4.3738,4.3858,4.4571,4.5229,4.5843,4.6175,4.68,4.7309,4.7309,4.7309,4.7309,4.7309,4.7309,4.7309,4.7309,4.7309,4.7309,4.7309,4.7309,4.7309,4.7309,4.7309,4.7309,4.7309,4.7309,4.7309,4.7309,4.7309,4.7309,4.7309,4.7309,4.7309,4.7309,4.7309,4.7309,4.7309,4.7309,4.701,4.6309,4.6022,4.5364,4.4332,4.4018,4.3648,4.329,4.3648,4.3633,4.3305,4.3663,4.3633,2.2448,2.3812,2.5131,2.4659,2.7031,2.9111,2.7824,2.6752,2.6243,2.6871,2.7229,2.7502,2.7721,2.9337,3.1946,3.5845,3.7554,3.8448,3.8537,3.8455,3.7838,3.637,3.6728,3.6794,3.5995,3.7057,3.773,3.7593,3.7965,3.861,3.9499,3.8793,3.894,4.0325,4.0731,4.1381,4.2349,4.3504,4.4766,4.6082,4.5544,4.5574,4.6067,4.5529,4.5289,4.5289,4.5125,4.5155,4.5274,4.496,4.502,4.5274,4.4945,4.484,4.484,4.484,4.4197,4.3364,4.3873,4.3708,4.329,4.329,4.329,4.3394,4.3888,4.4646,4.5409,4.5933,4.6681,4.7309,4.7309,4.7309,4.7309,4.7309,4.7309,4.7309,4.7309,4.7309,4.7309,4.7309,4.7309,4.7309,4.7309,4.7309,4.7309,4.7309,4.7309,4.7309,4.7309,4.7309,4.7309,4.7309,4.7309,4.7309,4.7309,4.7309,4.7309,4.7309,4.7309,4.7085,4.6576,4.6369,4.5753,4.4571,4.4541,4.4212,4.3529,4.4227,4.4212,4.3544,4.4077,4.3958,2.2678,2.4315,2.562,2.3915,2.4775,2.6765,2.9587,2.8798,2.8128,3.0569,3.0426,2.9518,2.8454,2.9824,3.2322,3.5929,3.7554,3.8841,4.0069,3.9784,3.9093,3.8062,3.6986,3.5765,3.4249,3.5613,3.6399,3.5841,3.7303,3.8387,3.8827,3.8798,3.9046,3.9639,4.0787,4.1445,4.1686,4.2799,4.4062,4.5364,4.5319,4.5319,4.5364,4.5319,4.5289,4.5259,4.4646,4.4736,4.52,4.3947,4.4197,4.517,4.3943,4.3439,4.3439,4.3439,4.3379,4.3305,4.3349,4.3334,4.329,4.329,4.329,4.3305,4.3349,4.4287,4.5304,4.5349,4.6307,4.7309,4.7309,4.7309,4.7309,4.7309,4.7309,4.7309,4.7309,4.7309,4.7309,4.7309,4.7309,4.7309,4.7309,4.7309,4.7309,4.7309,4.7309,4.7309,4.7309,4.7309,4.7309,4.7309,4.7309,4.7309,4.7309,4.7309,4.7309,4.7309,4.7309,4.7279,4.7234,4.6651,4.5978,4.5229,4.5229,4.49,4.4242,4.49,4.4885,4.4242,4.4287,4.3958,2.2017,2.3169,2.4286,2.4027,2.4817,2.6387,2.9285,3.0627,3.1499,3.233,3.2804,3.2521,3.069,3.1287,3.3002,3.5862,3.6794,3.7825,3.9755,3.9264,3.8199,3.671,3.6135,3.5227,3.3563,3.3979,3.4153,3.3508,3.4111,3.4815,3.5663,3.5689,3.642,3.7996,3.8873,3.9483,3.9929,4.0404,4.12,4.238,4.353,4.4287,4.4661,4.4272,4.4077,4.4062,4.3768,4.3798,4.4032,4.3499,4.3589,4.4032,4.3484,4.329,4.329,4.329,4.329,4.329,4.329,4.329,4.329,4.329,4.329,4.329,4.329,4.3932,4.4691,4.4691,4.5648,4.6785,4.7189,4.7309,4.7309,4.7309,4.7309,4.7309,4.7309,4.7309,4.7309,4.7309,4.7309,4.7309,4.7309,4.7309,4.7309,4.7309,4.7309,4.7309,4.7309,4.7309,4.7309,4.7309,4.7309,4.7309,4.7309,4.7309,4.7309,4.7309,4.7309,4.7309,4.7309,4.707,4.6621,4.5948,4.5933,4.5603,4.493,4.5603,4.5379,4.4332,4.4736,4.4347,2.1445,2.1861,2.2586,2.355,2.4707,2.6335,2.9106,3.1708,3.3654,3.423,3.4309,3.367,3.1749,3.152,3.2425,3.4917,3.5578,3.6384,3.8143,3.777,3.6756,3.5214,3.4891,3.4264,3.2945,3.2641,3.2378,3.1989,3.1951,3.2421,3.3502,3.3701,3.466,3.6552,3.7524,3.8211,3.8632,3.8872,3.9369,4.0104,4.1533,4.2713,4.3673,4.324,4.3135,4.329,4.329,4.329,4.329,4.329,4.329,4.329,4.329,4.329,4.329,4.329,4.329,4.329,4.329,4.329,4.329,4.329,4.329,4.329,4.329,4.3753,4.4317,4.4317,4.5125,4.6157,4.6815,4.7145,4.7309,4.7309,4.7309,4.7309,4.7309,4.7309,4.7309,4.7309,4.7309,4.7309,4.7309,4.7309,4.7309,4.7309,4.7309,4.7309,4.7309,4.7309,4.7309,4.7309,4.7309,4.7309,4.7309,4.7309,4.7309,4.7309,4.7309,4.7309,4.7309,4.7309,4.6995,4.6294,4.6488,4.6307,4.5618,4.6307,4.5948,4.4631,4.5095,4.4586,2.1118,2.0681,2.0716,2.233,2.4193,2.6416,2.9434,3.1879,3.4174,3.6512,3.4831,3.2514,3.1267,3.0184,3.0352,3.2946,3.3928,3.4609,3.5283,3.538,3.4979,3.3913,3.3318,3.2776,3.2223,3.1712,3.1386,3.1386,3.1386,3.1847,3.2935,3.3489,3.4335,3.5439,3.7177,3.8061,3.8081,3.8632,3.8946,3.8975,3.9491,4.0656,4.2396,4.2396,4.2716,4.329,4.329,4.329,4.329,4.329,4.329,4.329,4.329,4.329,4.329,4.329,4.329,4.329,4.329,4.329,4.329,4.329,4.329,4.329,4.329,4.3738,4.4302,4.4302,4.4781,4.5439,4.6127,4.68,4.7294,4.7309,4.7309,4.7309,4.7309,4.7309,4.7309,4.7309,4.7309,4.7309,4.7309,4.7309,4.7309,4.7309,4.7309,4.7309,4.7309,4.7309,4.7309,4.7309,4.7309,4.7309,4.7309,4.7309,4.7309,4.7309,4.7309,4.7309,4.7309,4.7309,4.6995,4.6309,4.698,4.698,4.6337,4.698,4.6606,4.5331,4.5331,4.4586,2.1516,2.2151,2.2953,2.4402,2.6587,2.8842,3.043,3.2937,3.5421,3.7192,3.5099,3.2733,3.1955,3.0995,3.0649,3.1739,3.1818,3.2189,3.3538,3.3067,3.2481,3.213,3.199,3.1803,3.1653,3.1486,3.1235,3.0871,3.0846,3.0966,3.1299,3.2163,3.3185,3.4282,3.5592,3.6441,3.685,3.5398,3.5091,3.5841,3.5172,3.7113,4.1284,4.2054,4.2716,4.3275,4.2851,4.291,4.329,4.329,4.329,4.329,4.329,4.329,4.329,4.329,4.329,4.329,4.329,4.329,4.329,4.329,4.329,4.329,4.329,4.3424,4.3589,4.3589,4.4092,4.4646,4.4855,4.5753,4.6741,4.7189,4.7309,4.7309,4.7309,4.7309,4.7309,4.7309,4.7309,4.7309,4.7309,4.7309,4.7309,4.7309,4.7309,4.7309,4.7309,4.7309,4.7309,4.7309,4.7309,4.7309,4.7309,4.7309,4.7309,4.7309,4.7309,4.7309,4.7309,4.7309,4.7219,4.7025,4.7204,4.7546,4.807,4.8269,4.8022,4.7399,4.6732,4.5686,2.1465,2.2463,2.3744,2.5854,2.8188,3.0485,3.239,3.4523,3.6412,3.7543,3.5593,3.3342,3.2323,3.0933,3.0162,3.0906,3.0788,3.096,3.1927,3.1502,3.1085,3.1085,3.0884,3.0846,3.106,3.0884,3.062,3.0319,3.0281,3.0281,3.0281,3.1086,3.2124,3.3344,3.4129,3.4972,3.5877,3.3703,3.2931,3.3527,3.2535,3.4157,3.8076,4.0072,4.1297,4.1917,4.2246,4.2447,4.2581,4.2836,4.2791,4.2551,4.2551,4.2716,4.294,4.294,4.3105,4.329,4.329,4.329,4.329,4.329,4.329,4.329,4.329,4.329,4.329,4.329,4.3574,4.3947,4.4242,4.511,4.6082,4.6756,4.7115,4.7309,4.7309,4.7309,4.7309,4.7309,4.7309,4.7309,4.7309,4.7309,4.7309,4.7309,4.7309,4.7309,4.7309,4.7309,4.7309,4.7309,4.7309,4.7309,4.7309,4.7309,4.7309,4.7309,4.7309,4.7309,4.7309,4.7309,4.7309,4.7309,4.7309,4.7792,4.8784,4.8784,4.8756,4.8685,4.773,4.6524,2.1193,2.2067,2.3586,2.6941,2.937,3.1779,3.4891,3.631,3.7076,3.7581,3.6145,3.4246,3.2473,3.0507,2.9466,3.0382,3.0545,3.0545,3.0545,3.0545,3.0545,3.0545,3.0093,2.9993,3.0495,3.0093,2.9767,2.9716,2.9716,2.9716,2.9716,3.0272,3.1238,3.2686,3.3116,3.3905,3.5201,3.3091,3.1948,3.1857,3.1,3.1524,3.3395,3.6998,3.9067,3.9948,4.1605,4.1931,4.1339,4.2036,4.1961,4.1422,4.1422,4.1782,4.2306,4.2306,4.2641,4.3125,4.3185,4.32,4.3215,4.3275,4.329,4.329,4.329,4.329,4.329,4.329,4.329,4.3424,4.4062,4.4721,4.5379,4.6067,4.6785,4.7309,4.7309,4.7309,4.7309,4.7309,4.7309,4.7309,4.7309,4.7309,4.7309,4.7309,4.7309,4.7309,4.7309,4.7309,4.7309,4.7309,4.7309,4.7309,4.7309,4.7309,4.7309,4.7309,4.7309,4.7309,4.7309,4.7309,4.7309,4.7309,4.7309,4.7834,4.8948,4.8804,4.9016,4.9646,4.8318,4.7137,2.1667,2.2732,2.4328,2.8214,3.1809,3.4756,3.5998,3.6447,3.6654,3.6753,3.6168,3.5135,3.3542,3.219,3.1034,3.0109,2.9967,2.9967,2.9967,2.9967,2.9967,2.9967,2.9867,2.9842,2.9955,2.9867,2.9603,2.9151,2.9076,2.9076,2.9076,2.9954,3.0983,3.2158,3.3909,3.4781,3.4682,3.2513,3.0982,3.0125,2.8231,2.7977,2.9341,3.487,3.8435,4.0322,4.1219,4.122,4.0666,4.1324,4.1542,4.1422,4.1422,4.1512,4.1632,4.1632,4.1722,4.1878,4.2387,4.2605,4.2656,4.3125,4.329,4.329,4.329,4.329,4.329,4.329,4.329,4.3319,4.3469,4.3992,4.4691,4.5364,4.6441,4.7309,4.7309,4.7309,4.7309,4.7309,4.7309,4.7309,4.7309,4.7309,4.7309,4.7309,4.7309,4.7309,4.7309,4.7309,4.7309,4.7309,4.7309,4.7309,4.7309,4.7309,4.7309,4.7309,4.7309,4.7309,4.7309,4.7309,4.7309,4.7309,4.7309,4.8198,5.0048,4.8684,4.9263,5.1613,4.8525,4.7347,2.1186,2.2551,2.4642,2.8951,3.2302,3.4711,3.5402,3.5177,3.4953,3.5232,3.5035,3.448,3.3331,3.1929,3.0689,2.9907,2.9566,2.9478,2.9754,2.9553,2.9478,2.9767,2.9553,2.9377,2.9377,2.9139,2.8863,2.8561,2.8536,2.8612,2.8875,2.9865,3.1,3.2246,3.3653,3.4472,3.4687,3.2301,3.0589,2.9475,2.7279,2.7063,2.8839,3.3911,3.7147,3.8834,4.0286,4.0531,3.9978,4.0636,4.0726,4.0442,4.0442,4.0636,4.0905,4.0905,4.1115,4.1467,4.1811,4.2141,4.2455,4.2761,4.3075,4.329,4.329,4.329,4.329,4.329,4.329,4.329,4.329,4.3783,4.4481,4.514,4.6082,4.692,4.7234,4.7309,4.7309,4.7309,4.7309,4.7309,4.7309,4.7309,4.7309,4.7309,4.7309,4.7309,4.7309,4.7309,4.7309,4.7309,4.7309,4.7309,4.7309,4.7309,4.7309,4.7309,4.7309,4.7309,4.7309,4.7309,4.7309,4.7309,4.7309,4.8072,4.9615,4.8696,4.936,5.1328,4.8918,4.7902,2.0546,2.2293,2.4956,2.9131,3.1674,3.332,3.3978,3.3522,3.3105,3.3595,3.3564,3.3201,3.2475,3.1016,2.9872,2.9679,2.9164,2.895,2.944,2.9089,2.8963,2.9453,2.9089,2.875,2.875,2.8373,2.8059,2.7971,2.7959,2.816,2.8587,2.9699,3.098,3.2427,3.3437,3.4314,3.5068,3.2774,3.0962,2.9753,2.7508,2.7442,2.9379,3.3316,3.5808,3.7112,3.918,3.9738,3.9275,3.9709,3.9574,3.9059,3.92,3.9574,4.0068,4.0187,4.0576,4.1055,4.1175,4.1677,4.2246,4.2366,4.2806,4.329,4.329,4.329,4.329,4.329,4.329,4.329,4.329,4.3693,4.4347,4.511,4.5723,4.6352,4.713,4.7309,4.7309,4.7309,4.7309,4.7309,4.7309,4.7309,4.7309,4.7309,4.7309,4.7309,4.7309,4.7309,4.7309,4.7309,4.7309,4.7309,4.7309,4.7309,4.7309,4.7309,4.7309,4.7309,4.7309,4.7309,4.7309,4.7309,4.7309,4.7792,4.8784,4.8512,4.9066,5.0358,4.8985,4.8219,2.0606,2.296,2.5914,2.8263,3.03,3.1929,3.2617,3.2555,3.2331,3.2418,3.2599,3.2439,3.1549,3.0797,3.0019,2.9151,2.8574,2.8235,2.8323,2.826,2.8247,2.8323,2.826,2.821,2.821,2.8147,2.7908,2.7431,2.7394,2.7419,2.7494,2.9125,3.0626,3.1848,3.4667,3.6058,3.5863,3.4646,3.3073,3.1201,2.8918,2.8004,2.8394,3.2146,3.5015,3.7054,3.8166,3.8616,3.8497,3.8003,3.7764,3.7734,3.8302,3.8586,3.8736,3.9334,3.9604,3.9768,4.0337,4.0965,4.1647,4.2216,4.2806,4.329,4.329,4.329,4.329,4.329,4.329,4.329,4.329,4.3364,4.3738,4.5005,4.5364,4.5783,4.704,4.7309,4.7309,4.7309,4.7309,4.7309,4.7309,4.7309,4.7309,4.7309,4.7309,4.7309,4.7309,4.7309,4.7309,4.7309,4.7309,4.7309,4.7309,4.7309,4.7309,4.7309,4.7309,4.7309,4.7309,4.7309,4.7309,4.7309,4.7309,4.7792,4.8784,4.7327,4.7932,5.0358,4.7794,4.7353,2.0625,2.2308,2.4358,2.595,2.7564,2.9131,3.0552,3.0045,2.9493,3.026,2.9977,2.9763,3.0151,2.96,2.8963,2.8535,2.8009,2.7758,2.8059,2.757,2.7341,2.7607,2.7092,2.6703,2.6703,2.6703,2.6477,2.5937,2.6176,2.6339,2.6339,2.8356,2.9905,3.076,3.3798,3.5337,3.5171,3.457,3.2963,3.0406,2.87,2.8228,2.8959,3.1847,3.3854,3.5198,3.7037,3.7838,3.7823,3.7524,3.7404,3.7434,3.7719,3.8063,3.8422,3.8736,3.9095,3.9454,3.9753,4.0277,4.0935,4.1632,4.2252,4.2865,4.3185,4.329,4.329,4.329,4.329,4.329,4.329,4.329,4.3618,4.4975,4.5289,4.5663,4.701,4.7309,4.7309,4.7309,4.7309,4.7309,4.7309,4.7309,4.7309,4.7309,4.7309,4.7309,4.7309,4.7309,4.7309,4.7309,4.7309,4.7309,4.7309,4.7309,4.7309,4.7309,4.7309,4.7309,4.7309,4.7309,4.7309,4.7309,4.7309,4.7538,4.7946,4.7209,4.7477,4.861,4.7434,4.7252,2.0414,2.1306,2.2458,2.3573,2.4866,2.6279,2.7973,2.7325,2.6732,2.8049,2.7334,2.6913,2.8326,2.8209,2.7846,2.7708,2.7218,2.6954,2.7231,2.6565,2.6235,2.6603,2.5912,2.5398,2.5398,2.5398,2.5234,2.4813,2.5184,2.5398,2.5398,2.728,2.877,2.9734,3.2362,3.4096,3.4813,3.42,3.2745,3.0471,2.8943,2.8843,3.012,3.2003,3.3157,3.3816,3.6138,3.718,3.7165,3.7,3.6926,3.6941,3.7105,3.7569,3.8138,3.8138,3.8676,3.9394,3.9215,3.9709,4.0502,4.1175,4.1856,4.2515,4.3135,4.329,4.329,4.329,4.329,4.329,4.329,4.329,4.3618,4.4975,4.5289,4.5663,4.701,4.7309,4.7309,4.7309,4.7309,4.7309,4.7309,4.7309,4.7309,4.7309,4.7309,4.7309,4.7309,4.7309,4.7309,4.7309,4.7309,4.7309,4.7309,4.7309,4.7309,4.7309,4.7309,4.7309,4.7309,4.7309,4.7309,4.7309,4.7309,4.7309,4.7309,4.7309,4.7309,4.7309,4.7309,4.7309,1.9848,2.0273,2.0957,2.168,2.2817,2.3971,2.4786,2.473,2.4915,2.6271,2.5278,2.4557,2.5842,2.6788,2.719,2.6663,2.6097,2.5523,2.5026,2.4913,2.4888,2.4913,2.4863,2.4825,2.4825,2.4825,2.4813,2.4788,2.4813,2.4825,2.4825,2.5725,2.7153,2.9087,3.0822,3.2992,3.5596,3.41,3.3189,3.2907,3.0652,3.0261,3.1528,3.2613,3.3408,3.4079,3.5792,3.6537,3.6492,3.5863,3.5609,3.5669,3.6297,3.6911,3.7464,3.7464,3.8287,3.9334,3.8676,3.9305,4.0502,4.1175,4.1856,4.2515,4.3135,4.329,4.329,4.329,4.329,4.329,4.329,4.329,4.3618,4.4975,4.5289,4.5663,4.701,4.7309,4.7309,4.7309,4.7309,4.7309,4.7309,4.7309,4.7309,4.7309,4.7309,4.7309,4.7309,4.7309,4.7309,4.7309,4.7309,4.7309,4.7309,4.7309,4.7309,4.7309,4.7309,4.7309,4.7309,4.7309,4.7309,4.7309,4.7309,4.7309,4.7309,4.7309,4.7309,4.7309,4.7309,4.7309,1.965,1.9788,2.0004,1.9824,2.0767,2.1918,2.2609,2.2409,2.2435,2.3699,2.3765,2.3603,2.3573,2.4747,2.5636,2.5435,2.5234,2.5034,2.4813,2.4161,2.371,2.371,2.3396,2.3213,2.3213,2.3866,2.4142,2.3735,2.4079,2.413,2.3735,2.4849,2.5841,2.6577,2.8955,3.1151,3.304,3.2076,3.1665,3.1797,3.0195,3.0315,3.1933,3.2323,3.3187,3.4366,3.5419,3.5863,3.5833,3.5609,3.5504,3.5534,3.5759,3.6252,3.6821,3.6821,3.7644,3.8721,3.8467,3.899,3.9873,4.0531,4.0905,4.1309,4.2387,4.2701,4.2791,4.317,4.329,4.329,4.329,4.329,4.3618,4.4975,4.5963,4.6726,4.7204,4.7309,4.7309,4.7309,4.7309,4.7309,4.7309,4.7309,4.7309,4.7309,4.7309,4.7309,4.7309,4.7309,4.7309,4.7309,4.7309,4.7309,4.7309,4.7309,4.7309,4.7309,4.7309,4.7309,4.7309,4.7309,4.7309,4.7309,4.7309,4.7309,4.7309,4.7309,4.7309,4.7309,4.7309,4.7309,1.9651,1.9609,1.9588,1.9151,1.954,2.0203,2.0873,2.0421,2.0321,2.1964,2.2415,2.255,2.2693,2.3402,2.3999,2.3972,2.3948,2.3916,2.3728,2.302,2.2556,2.2556,2.2259,2.2033,2.2033,2.2711,2.3,2.2581,2.2937,2.3075,2.2844,2.355,2.4249,2.4911,2.7652,2.9697,3.0885,3.0216,3.025,3.092,2.9892,3.0265,3.1926,3.2426,3.3313,3.4548,3.5205,3.5504,3.5504,3.5504,3.5504,3.5504,3.5504,3.5908,3.6462,3.6237,3.7105,3.8362,3.8138,3.8661,3.9493,4.0187,4.0397,4.0606,4.1737,4.2231,4.2485,4.2895,4.3125,4.329,4.329,4.3454,4.3943,4.5035,4.6157,4.704,4.7249,4.7309,4.7309,4.7309,4.7309,4.7309,4.7309,4.7309,4.7309,4.7309,4.7309,4.7309,4.7309,4.7309,4.7309,4.7309,4.7309,4.7309,4.7309,4.7309,4.7309,4.7309,4.7309,4.7309,4.7309,4.7309,4.7309,4.7309,4.7309,4.7309,4.7309,4.7309,4.7309,4.7309,4.7309,4.7309,0.0,0.0,0.0,1.9648,1.9166,1.8859,1.9517,1.8781,1.8671,2.1141,2.1175,2.1296,2.3074,2.2836,2.2332,2.221,2.2246,2.2096,2.1556,2.1509,2.1455,2.1443,2.1455,2.1455,2.1443,2.1468,2.1493,2.1493,2.1493,2.1719,2.2259,2.1782,2.237,2.429,2.6905,2.8609,2.9384,2.8767,2.9164,3.0561,2.991,3.0268,3.1555,3.2901,3.3874,3.4518,3.519,3.5504,3.5504,3.5504,3.5504,3.5504,3.5504,3.5893,3.6372,3.5744,3.6716,3.8257,3.7614,3.8257,3.9499,4.0127,4.0337,4.0472,4.1145,4.1826,4.2351,4.2396,4.2821,4.3275,4.329,4.3783,4.4466,4.511,4.5798,4.6429,4.713,4.7279,4.7279,4.7309,4.7309,4.7309,4.7309,4.7309,4.7309,4.7309,4.7309,4.7309,4.7309,4.7309,4.7309,4.7309,4.7309,4.7309,4.7309,4.7309,4.7309,4.7309,4.7309,4.7309,4.7309,4.7309,4.7309,4.7309,4.7309,4.7309,4.7309,4.7309,4.7309,4.7309,4.7352,4.7337,1.9623,0.0,0.0,0.0,0.0,0.0,1.8924,1.8128,1.7902,1.9857,2.0272,2.0405,2.0751,2.1415,2.1456,2.0126,2.0932,2.1656,2.1506,2.1169,2.0767,2.0313,2.0666,2.0754,2.0313,2.1004,2.1493,2.1493,2.1493,2.1556,2.1707,2.1568,2.1997,2.3068,2.4202,2.5409,2.6751,2.6951,2.8012,2.9856,2.9672,3.0268,3.1555,3.2901,3.3589,3.3829,3.4996,3.5504,3.5504,3.5504,3.5504,3.5504,3.5504,3.5609,3.5744,3.5564,3.6432,3.7584,3.6956,3.7599,3.8706,3.8886,3.8945,3.9155,4.0322,4.0801,4.1145,4.2126,4.253,4.2746,4.317,4.3783,4.4362,4.4541,4.5095,4.5768,4.6456,4.6591,4.6741,4.7219,4.7309,4.7309,4.7309,4.7309,4.7309,4.7309,4.7309,4.7309,4.7309,4.7309,4.7309,4.7309,4.7309,4.7309,4.7309,4.7309,4.7309,4.7309,4.7309,4.7309,4.7309,4.7309,4.7309,4.7309,4.7309,4.7309,4.7309,4.7309,4.7309,4.7309,4.803,4.88,0.0,0.0,0.0,1.8732,0.0,0.0,1.8702,1.7826,1.7323,1.8378,1.8784,1.896,1.9061,1.9689,1.9986,1.9398,1.9703,2.0067,2.0113,1.9836,1.9522,1.9171,1.9434,1.9597,1.9497,2.0075,2.0552,2.0765,2.079,2.079,2.079,2.123,2.1589,2.1782,2.2532,2.3521,2.4725,2.5609,2.679,2.8328,2.9203,2.9983,3.0748,3.2362,3.3245,3.3559,3.4622,3.5235,3.5504,3.5504,3.5504,3.5504,3.5504,3.5504,3.5504,3.5504,3.6148,3.6971,3.6611,3.715,3.8018,3.8302,3.8392,3.8586,3.9664,4.0187,4.0561,4.1324,4.1976,4.2545,4.3125,4.3574,4.3932,4.4242,4.4601,4.5065,4.5753,4.6112,4.6516,4.7174,4.7309,4.7309,4.7309,4.7309,4.7309,4.7309,4.7309,4.7309,4.7309,4.7309,4.7309,4.7309,4.7309,4.7309,4.7309,4.7309,4.7309,4.7309,4.7309,4.7309,4.7309,4.7309,4.7309,4.7309,4.7309,4.7309,4.7309,4.7309,4.7538,4.7946,4.9004,4.9813,0.0,0.0,0.0,0.0,1.9196,0.0,1.8702,1.7741,1.6887,1.7072,1.7103,1.7283,1.7824,1.8012,1.8392,1.929,1.8672,1.8135,1.8268,1.8251,1.8179,1.8129,1.8166,1.8367,1.8782,1.8882,1.9121,1.9673,1.9773,1.9798,1.9798,2.0752,2.1106,2.0616,2.1644,2.2598,2.3414,2.475,2.5852,2.6773,2.8699,2.9651,2.9771,3.1644,3.2841,3.3425,3.4189,3.4848,3.54,3.5474,3.5504,3.5504,3.5504,3.5504,3.5504,3.5504,3.5923,3.6477,3.6402,3.6791,3.7404,3.7988,3.8227,3.8407,3.9095,3.9768,4.0307,4.0382,4.1399,4.262,4.309,4.3245,4.3439,4.4062,4.4212,4.4392,4.505,4.5723,4.6411,4.707,4.7249,4.7309,4.7309,4.7309,4.7309,4.7309,4.7309,4.7309,4.7309,4.7309,4.7309,4.7309,4.7309,4.7309,4.7309,4.7309,4.7309,4.7309,4.7309,4.7309,4.7309,4.7309,4.7309,4.7309,4.7309,4.7309,4.7309,4.7309,4.7876,4.8973,4.997,5.0512,0.0,0.0,0.0,1.9708,1.9196,0.0,1.8702,1.7519,1.6544,1.7006,1.6518,1.6168,1.6708,1.752,1.8027,1.7791,1.8317,1.8753,1.8845,1.8474,1.8041,1.7624,1.794,1.8078,1.7739,1.8103,1.8569,1.9121,1.9572,1.9798,1.9798,2.0012,2.0075,1.9974,2.1066,2.23,2.3623,2.4818,2.635,2.8188,2.9152,2.9849,3.0372,3.1839,3.2557,3.2766,3.3963,3.4578,3.4758,3.528,3.5504,3.5504,3.5504,3.5504,3.5504,3.5504,3.5923,3.6417,3.5878,3.6133,3.6686,3.6821,3.7195,3.7719,3.8392,3.9065,3.9723,4.0247,4.1728,4.3045,4.2656,4.294,4.3319,4.3454,4.3484,4.3663,4.4362,4.502,4.5693,4.6381,4.6935,4.7309,4.7309,4.7309,4.7309,4.7309,4.7309,4.7309,4.7309,4.7309,4.7309,4.7309,4.7309,4.7309,4.7309,4.7309,4.7309,4.7309,4.7309,4.7309,4.7309,4.7309,4.7309,4.7309,4.7309,4.7309,4.7309,4.7309,4.8267,5.0087,5.0281,5.1299,1.9708,1.9708,1.9708,1.9708,1.9453,0.0,0.0,1.781,1.6938,1.6749,1.5848,1.5206,1.5539,1.6037,1.6585,1.7125,1.7382,1.7751,1.8449,1.8101,1.7549,1.6996,1.72,1.7363,1.741,1.7626,1.8028,1.8556,1.9083,1.9384,1.9384,1.966,1.9798,1.9798,2.0903,2.2036,2.3133,2.4641,2.6101,2.7589,2.8613,2.943,3.0073,3.1061,3.1884,3.2572,3.3559,3.4204,3.4563,3.522,3.5504,3.5504,3.5504,3.5504,3.5504,3.5504,3.5714,3.5953,3.5624,3.5729,3.6058,3.6372,3.6911,3.7539,3.8197,3.8871,3.9634,4.0606,4.1594,4.2432,4.2761,4.309,4.329,4.329,4.329,4.3379,4.3708,4.4347,4.5005,4.5678,4.6352,4.692,4.7249,4.7309,4.7309,4.7309,4.7309,4.7309,4.7309,4.7309,4.7309,4.7309,4.7309,4.7309,4.7309,4.7309,4.7309,4.7309,4.7309,4.7309,4.7309,4.7309,4.7309,4.7309,4.7309,4.7309,4.7309,4.7309,4.8072,4.9615,5.0665,5.1704,1.9708,1.9708,1.9708,1.9708,1.9708,1.9528,0.0,0.0,0.0,1.6642,1.5624,1.49,1.4893,1.5048,1.5554,1.6644,1.6633,1.6756,1.7534,1.7344,1.6988,1.6539,1.64,1.6584,1.7162,1.7335,1.7586,1.8016,1.8531,1.8895,1.8995,1.9396,1.9698,1.9798,2.0903,2.1856,2.2604,2.445,2.5755,2.6525,2.7924,2.8951,2.9636,3.0223,3.1165,3.2333,3.3021,3.3679,3.4369,3.5026,3.5385,3.5504,3.5504,3.5504,3.5504,3.5504,3.5504,3.5504,3.5504,3.5504,3.5594,3.6133,3.6806,3.7554,3.8347,3.9065,3.9798,4.0741,4.128,4.1788,4.2716,4.311,4.329,4.329,4.329,4.329,4.329,4.3813,4.4511,4.517,4.5995,4.6756,4.7233,4.7309,4.7309,4.7309,4.7309,4.7309,4.7309,4.7309,4.7309,4.7309,4.7309,4.7309,4.7309,4.7309,4.7309,4.7309,4.7309,4.7309,4.7309,4.7309,4.7381,4.7566,4.7566,4.7694,4.7892,4.7694,4.803,4.8825,5.0518,5.1525,1.9708,1.9708,1.9708,1.9708,1.9708,1.9528,1.8852,0.0,1.7856,1.7139,0.0,1.6135,1.5679,0.0,0.0,1.5982,1.6987,1.7432,1.6145,1.6332,1.6564,1.6502,1.6082,1.6007,1.6538,1.7087,1.7436,1.7498,1.799,1.8505,1.897,1.9058,1.9309,1.9786,2.0903,2.1856,2.2604,2.445,2.5755,2.6525,2.7924,2.8951,2.9636,3.0223,3.0926,3.1645,3.2303,3.3006,3.3664,3.4354,3.4951,3.5504,3.5504,3.5504,3.5504,3.5504,3.5504,3.5504,3.5504,3.5504,3.5519,3.5594,3.6432,3.7644,3.8916,3.9768,4.0202,3.9768,4.0905,4.2186,4.1713,4.2462,4.329,4.329,4.329,4.329,4.329,4.3813,4.4511,4.517,4.6554,4.7538,4.7347,4.7309,4.7309,4.7309,4.7309,4.7309,4.7309,4.7309,4.7309,4.7309,4.7309,4.7309,4.7309,4.7309,4.7309,4.7309,4.7309,4.7309,4.7309,4.7309,4.7722,4.8594,4.8636,4.911,5.0064,4.911,4.8677,4.8825,4.9054,5.0133,1.9708,1.9708,1.9708,1.9708,1.9708,1.9633,1.9331,1.8849,1.839,1.8194,0.0,0.0,0.0,0.0,0.0,0.0,1.5944,1.6136,1.6154,1.5753,1.5606,1.5994,1.5831,1.5906,1.6437,1.6735,1.6886,1.6886,1.74,1.7827,1.8053,1.8657,1.9246,1.9786,2.0903,2.1856,2.2604,2.445,2.56,2.6,2.7358,2.8353,2.9026,2.9669,3.0313,3.1016,3.2452,3.3245,3.3574,3.4637,3.525,3.5504,3.5504,3.5504,3.5504,3.5504,3.5504,3.5504,3.5504,3.5744,3.6193,3.6941,3.7539,3.8153,3.9125,3.9619,3.9843,3.9963,4.0591,4.1324,4.1856,4.2396,4.2865,4.32,4.329,4.329,4.329,4.3998,4.4734,4.5203,4.63,4.7184,4.7272,4.7792,4.7988,4.7381,4.7309,4.7309,4.7309,4.7309,4.7538,4.8099,4.7651,4.7538,4.8099,4.7651,4.7309,4.7309,4.7309,4.7309,4.7309,4.7309,4.7495,4.7919,4.8486,4.9029,4.9456,4.9029,4.8784,4.8784,4.8784,4.9256,1.9821,1.9856,1.9856,1.9856,1.9856,1.9854,1.9744,1.9316,1.8986,1.9086,1.8425,0.0,0.0,0.0,0.0,0.0,0.0,1.5349,1.578,1.5084,1.4879,1.5809,1.5919,1.6082,1.645,1.65,1.65,1.65,1.6911,1.7234,1.7398,1.8432,1.9291,1.9838,2.1131,2.1979,2.2313,2.4394,2.5372,2.5312,2.6864,2.8049,2.8891,2.9397,3.0028,3.0881,3.2512,3.332,3.3589,3.4741,3.5325,3.5504,3.5504,3.5504,3.5504,3.5504,3.5504,3.5504,3.5504,3.5938,3.6701,3.7973,3.8392,3.8527,3.9215,3.9388,3.9514,3.9993,4.0382,4.0891,4.1886,4.2396,4.2746,4.3185,4.329,4.329,4.329,4.4066,4.4864,4.5,4.6381,4.7427,4.7114,4.7782,4.8141,4.7424,4.7309,4.7309,4.7309,4.7309,4.7679,4.8677,4.8141,4.8115,4.9135,4.8293,4.7609,4.7309,4.7309,4.7309,4.7309,4.7309,4.7424,4.7722,4.8444,4.9094,4.9639,4.9376,4.9376,4.9639,4.88,4.8527,2.0176,2.028,2.028,2.028,2.028,2.0193,1.9782,1.9693,1.9678,1.9675,1.9645,1.9452,1.892,0.0,0.0,0.0,0.0,0.0,0.0,1.4147,1.4708,1.6296,1.6475,1.6475,1.65,1.65,1.65,1.65,1.6513,1.6763,1.7373,1.8471,1.9354,1.9962,2.1667,2.2253,2.1641,2.4189,2.5171,2.4565,2.6619,2.8289,2.9577,2.9592,3.0283,3.1511,3.2213,3.2901,3.3544,3.4264,3.4906,3.5504,3.5504,3.5504,3.5504,3.5504,3.5504,3.5504,3.5504,3.5938,3.6701,3.7973,3.8392,3.8527,3.9215,3.9388,3.9388,3.9454,4.0367,4.1392,4.1399,4.2357,4.3275,4.329,4.329,4.329,4.329,4.4066,4.4726,4.4399,4.7251,4.8986,4.6732,4.689,4.7352,4.7294,4.7309,4.7309,4.7309,4.7309,4.7679,4.8677,4.8784,4.9191,5.0242,4.9376,4.8335,4.7337,4.7309,4.7309,4.7309,4.7309,4.7764,4.8743,4.8784,4.9797,5.1796,5.0817,5.0855,5.1724,4.8733,4.7876,2.0633,2.0533,2.0297,2.0297,2.0089,1.9874,1.9729,1.9708,1.9708,1.9708,1.9708,1.9548,1.9006,0.0,0.0,0.0,0.0,0.0,0.0,1.5248,1.6025,1.6928,1.671,1.65,1.65,1.65,1.65,1.65,1.65,1.6588,1.6798,1.826,1.9373,1.9996,2.1689,2.2501,2.2251,2.4416,2.5199,2.4647,2.7104,2.8487,2.8966,2.9804,3.0432,3.0941,3.2497,3.329,3.3589,3.4696,3.5295,3.5504,3.5504,3.5504,3.5504,3.5504,3.5504,3.5624,3.6462,3.6911,3.7315,3.8631,3.9065,3.911,3.9313,3.9388,3.9388,3.9388,4.0053,4.0831,4.1265,4.2028,4.2806,4.32,4.329,4.329,4.329,4.4593,4.5436,4.4474,4.6684,4.8366,4.7429,4.7849,4.8293,4.8293,4.7722,4.7538,4.8225,4.7722,4.7961,4.9671,4.861,4.8501,5.0242,4.8815,4.7651,4.7309,4.7309,4.7309,4.7309,4.7309,4.7452,4.7807,4.8444,4.9135,4.9876,5.0242,5.0589,5.0892,4.9829,4.9551,2.1055,2.0991,2.0716,2.0583,2.0347,2.0085,1.9764,1.9708,1.9708,1.9708,1.9708,1.9584,1.9244,0.0,0.0,0.0,0.0,0.0,0.0,1.5819,1.6625,1.6974,1.6876,1.6774,1.6774,1.6774,1.671,1.6522,1.65,1.65,1.65,1.8144,1.9404,2.0024,2.1722,2.2649,2.2646,2.4552,2.5247,2.4732,2.7339,2.8727,2.8981,3.0028,3.0642,3.0943,3.2736,3.3499,3.3604,3.4951,3.5504,3.5504,3.5504,3.5504,3.5504,3.5504,3.5504,3.5684,3.6971,3.7404,3.7629,3.894,3.9388,3.9388,3.9388,3.9388,3.9388,3.9388,4.0053,4.0846,4.1265,4.2043,4.2821,4.32,4.329,4.329,4.329,4.5011,4.6081,4.4297,4.67,4.8589,4.7151,4.8302,4.9376,4.9376,4.8815,4.8625,4.9311,4.8815,4.8938,5.0242,4.9206,4.8774,4.9734,4.861,4.7679,4.7309,4.7309,4.7309,4.7309,4.7309,4.7519,4.7997,4.8189,4.8867,5.0041,5.0286,5.0795,5.1484,5.1484,5.1484]}]]